<?xml version="1.0" encoding="utf-8"?>
<gpx xmlns:xsi="http://www.w3.org/2001/XMLSchema-instance" xmlns:xsd="http://www.w3.org/2001/XMLSchema" version="1.1" creator="Shapelink.com" xmlns="http://www.topografix.com/GPX/1/1" xmlns:gpxtpx="http://www.garmin.com/xmlschemas/TrackPointExtension/v1">
  <metadata>
    <name>Cykling 35.71 km, 2012-09-16</name>
    <desc></desc>
    <author><name>Alexander Engvall</name></author> 
    <time>2012-09-16T13:33:45Z</time>
  </metadata>
  <trk>
    <name>Cykling 35.71 km, 2012-09-16</name>
    <trkseg>
      <trkpt lat="59.7454678887" lon="18.3745586078">
        <ele>48.6</ele>
        <time>2012-09-16T13:33:45Z</time>
      </trkpt>
      <trkpt lat="59.7454654579" lon="18.3744575221">
        <ele>49.2</ele>
        <time>2012-09-16T13:33:46Z</time>
      </trkpt>
      <trkpt lat="59.7454459281" lon="18.3738816018">
        <ele>49.2</ele>
        <time>2012-09-16T13:33:51Z</time>
      </trkpt>
      <trkpt lat="59.7454445032" lon="18.3737665183">
        <ele>49.6</ele>
        <time>2012-09-16T13:33:52Z</time>
      </trkpt>
      <trkpt lat="59.7454419048" lon="18.3736527759">
        <ele>50</ele>
        <time>2012-09-16T13:33:53Z</time>
      </trkpt>
      <trkpt lat="59.7454382167" lon="18.3735385306">
        <ele>50.6</ele>
        <time>2012-09-16T13:33:54Z</time>
      </trkpt>
      <trkpt lat="59.745435786" lon="18.3734304879">
        <ele>51</ele>
        <time>2012-09-16T13:33:55Z</time>
      </trkpt>
      <trkpt lat="59.7454388035" lon="18.3733223614">
        <ele>51.4</ele>
        <time>2012-09-16T13:33:56Z</time>
      </trkpt>
      <trkpt lat="59.7454346963" lon="18.3731216987">
        <ele>51.4</ele>
        <time>2012-09-16T13:33:58Z</time>
      </trkpt>
      <trkpt lat="59.7454284099" lon="18.3724742807">
        <ele>51.4</ele>
        <time>2012-09-16T13:34:05Z</time>
      </trkpt>
      <trkpt lat="59.7454256439" lon="18.372282922">
        <ele>52</ele>
        <time>2012-09-16T13:34:07Z</time>
      </trkpt>
      <trkpt lat="59.7454258953" lon="18.3721936547">
        <ele>52.4</ele>
        <time>2012-09-16T13:34:08Z</time>
      </trkpt>
      <trkpt lat="59.7454210338" lon="18.3720965085">
        <ele>53</ele>
        <time>2012-09-16T13:34:09Z</time>
      </trkpt>
      <trkpt lat="59.7454142445" lon="18.3720033856">
        <ele>53.4</ele>
        <time>2012-09-16T13:34:10Z</time>
      </trkpt>
      <trkpt lat="59.7454104726" lon="18.3719099274">
        <ele>54</ele>
        <time>2012-09-16T13:34:11Z</time>
      </trkpt>
      <trkpt lat="59.7454035995" lon="18.3718169721">
        <ele>54</ele>
        <time>2012-09-16T13:34:12Z</time>
      </trkpt>
      <trkpt lat="59.7453933736" lon="18.371725358">
        <ele>54.4</ele>
        <time>2012-09-16T13:34:13Z</time>
      </trkpt>
      <trkpt lat="59.7453808845" lon="18.3716365937">
        <ele>54.8</ele>
        <time>2012-09-16T13:34:14Z</time>
      </trkpt>
      <trkpt lat="59.7453631149" lon="18.3715454824">
        <ele>55.2</ele>
        <time>2012-09-16T13:34:15Z</time>
      </trkpt>
      <trkpt lat="59.7453405676" lon="18.371452611">
        <ele>55.6</ele>
        <time>2012-09-16T13:34:16Z</time>
      </trkpt>
      <trkpt lat="59.7453160924" lon="18.3713651039">
        <ele>56</ele>
        <time>2012-09-16T13:34:17Z</time>
      </trkpt>
      <trkpt lat="59.7452923717" lon="18.3712745794">
        <ele>56</ele>
        <time>2012-09-16T13:34:18Z</time>
      </trkpt>
      <trkpt lat="59.7452410744" lon="18.3710957935">
        <ele>56.4</ele>
        <time>2012-09-16T13:34:20Z</time>
      </trkpt>
      <trkpt lat="59.7452133304" lon="18.3710097952">
        <ele>56.8</ele>
        <time>2012-09-16T13:34:21Z</time>
      </trkpt>
      <trkpt lat="59.7451875979" lon="18.3709214499">
        <ele>57.2</ele>
        <time>2012-09-16T13:34:22Z</time>
      </trkpt>
      <trkpt lat="59.7451627875" lon="18.3708328533">
        <ele>57.8</ele>
        <time>2012-09-16T13:34:23Z</time>
      </trkpt>
      <trkpt lat="59.7451370551" lon="18.3707397304">
        <ele>58.2</ele>
        <time>2012-09-16T13:34:24Z</time>
      </trkpt>
      <trkpt lat="59.7451119094" lon="18.3706527262">
        <ele>58.2</ele>
        <time>2012-09-16T13:34:25Z</time>
      </trkpt>
      <trkpt lat="59.7450354664" lon="18.3703970783">
        <ele>59</ele>
        <time>2012-09-16T13:34:28Z</time>
      </trkpt>
      <trkpt lat="59.7450108236" lon="18.3703088169">
        <ele>59.4</ele>
        <time>2012-09-16T13:34:29Z</time>
      </trkpt>
      <trkpt lat="59.7449847559" lon="18.3702158616">
        <ele>59.8</ele>
        <time>2012-09-16T13:34:30Z</time>
      </trkpt>
      <trkpt lat="59.7449585206" lon="18.3701269296">
        <ele>60.4</ele>
        <time>2012-09-16T13:34:31Z</time>
      </trkpt>
      <trkpt lat="59.7449308603" lon="18.3700352317">
        <ele>60.4</ele>
        <time>2012-09-16T13:34:32Z</time>
      </trkpt>
      <trkpt lat="59.7447377413" lon="18.3694391948">
        <ele>60.4</ele>
        <time>2012-09-16T13:34:39Z</time>
      </trkpt>
      <trkpt lat="59.7447009448" lon="18.3693702117">
        <ele>60.4</ele>
        <time>2012-09-16T13:34:40Z</time>
      </trkpt>
      <trkpt lat="59.7446648188" lon="18.369300139">
        <ele>59.8</ele>
        <time>2012-09-16T13:34:41Z</time>
      </trkpt>
      <trkpt lat="59.7446250048" lon="18.369235766">
        <ele>59.4</ele>
        <time>2012-09-16T13:34:42Z</time>
      </trkpt>
      <trkpt lat="59.7445864481" lon="18.3691687947">
        <ele>59</ele>
        <time>2012-09-16T13:34:43Z</time>
      </trkpt>
      <trkpt lat="59.7445458797" lon="18.3691067686">
        <ele>58.6</ele>
        <time>2012-09-16T13:34:44Z</time>
      </trkpt>
      <trkpt lat="59.7445122682" lon="18.3690295713">
        <ele>58.2</ele>
        <time>2012-09-16T13:34:45Z</time>
      </trkpt>
      <trkpt lat="59.7444656649" lon="18.3689135658">
        <ele>57.8</ele>
        <time>2012-09-16T13:34:47Z</time>
      </trkpt>
      <trkpt lat="59.7444489849" lon="18.368864364">
        <ele>57.4</ele>
        <time>2012-09-16T13:34:48Z</time>
      </trkpt>
      <trkpt lat="59.7444258508" lon="18.368825472">
        <ele>57</ele>
        <time>2012-09-16T13:34:49Z</time>
      </trkpt>
      <trkpt lat="59.7443995317" lon="18.3687978118">
        <ele>56.4</ele>
        <time>2012-09-16T13:34:50Z</time>
      </trkpt>
      <trkpt lat="59.7443567002" lon="18.3687686428">
        <ele>56</ele>
        <time>2012-09-16T13:34:51Z</time>
      </trkpt>
      <trkpt lat="59.7443005414" lon="18.3687628592">
        <ele>56</ele>
        <time>2012-09-16T13:34:52Z</time>
      </trkpt>
      <trkpt lat="59.74414841" lon="18.3689713171">
        <ele>56</ele>
        <time>2012-09-16T13:34:55Z</time>
      </trkpt>
      <trkpt lat="59.7440649262" lon="18.3691665315">
        <ele>56</ele>
        <time>2012-09-16T13:34:57Z</time>
      </trkpt>
      <trkpt lat="59.7439374375" lon="18.3694753207">
        <ele>56</ele>
        <time>2012-09-16T13:35:00Z</time>
      </trkpt>
      <trkpt lat="59.7436047599" lon="18.3701978405">
        <ele>56</ele>
        <time>2012-09-16T13:35:07Z</time>
      </trkpt>
      <trkpt lat="59.7435423986" lon="18.370267997">
        <ele>56</ele>
        <time>2012-09-16T13:35:08Z</time>
      </trkpt>
      <trkpt lat="59.7434060251" lon="18.3703530733">
        <ele>55.6</ele>
        <time>2012-09-16T13:35:10Z</time>
      </trkpt>
      <trkpt lat="59.7433357009" lon="18.3703525704">
        <ele>55.2</ele>
        <time>2012-09-16T13:35:11Z</time>
      </trkpt>
      <trkpt lat="59.743267137" lon="18.3703267541">
        <ele>54.8</ele>
        <time>2012-09-16T13:35:12Z</time>
      </trkpt>
      <trkpt lat="59.7431984892" lon="18.3703089845">
        <ele>54.4</ele>
        <time>2012-09-16T13:35:13Z</time>
      </trkpt>
      <trkpt lat="59.7431339486" lon="18.3702665721">
        <ele>54</ele>
        <time>2012-09-16T13:35:14Z</time>
      </trkpt>
      <trkpt lat="59.7429164383" lon="18.3700787337">
        <ele>54</ele>
        <time>2012-09-16T13:35:17Z</time>
      </trkpt>
      <trkpt lat="59.7426996824" lon="18.3698617263">
        <ele>54</ele>
        <time>2012-09-16T13:35:20Z</time>
      </trkpt>
      <trkpt lat="59.7426286038" lon="18.3698183919">
        <ele>54</ele>
        <time>2012-09-16T13:35:21Z</time>
      </trkpt>
      <trkpt lat="59.7425515742" lon="18.3698000355">
        <ele>54.6</ele>
        <time>2012-09-16T13:35:22Z</time>
      </trkpt>
      <trkpt lat="59.7424763885" lon="18.3698000355">
        <ele>55</ele>
        <time>2012-09-16T13:35:23Z</time>
      </trkpt>
      <trkpt lat="59.742404388" lon="18.3698115187">
        <ele>54.8</ele>
        <time>2012-09-16T13:35:24Z</time>
      </trkpt>
      <trkpt lat="59.7423252629" lon="18.3698359101">
        <ele>54.6</ele>
        <time>2012-09-16T13:35:25Z</time>
      </trkpt>
      <trkpt lat="59.7422474789" lon="18.3698618101">
        <ele>54.2</ele>
        <time>2012-09-16T13:35:26Z</time>
      </trkpt>
      <trkpt lat="59.7421670964" lon="18.3699006183">
        <ele>53.6</ele>
        <time>2012-09-16T13:35:27Z</time>
      </trkpt>
      <trkpt lat="59.7420852891" lon="18.3699193938">
        <ele>53</ele>
        <time>2012-09-16T13:35:28Z</time>
      </trkpt>
      <trkpt lat="59.7420025597" lon="18.3699346489">
        <ele>52.6</ele>
        <time>2012-09-16T13:35:29Z</time>
      </trkpt>
      <trkpt lat="59.74191631" lon="18.3699385884">
        <ele>52</ele>
        <time>2012-09-16T13:35:30Z</time>
      </trkpt>
      <trkpt lat="59.7418309822" lon="18.3699429469">
        <ele>52</ele>
        <time>2012-09-16T13:35:31Z</time>
      </trkpt>
      <trkpt lat="59.7413158307" lon="18.3699760554">
        <ele>52</ele>
        <time>2012-09-16T13:35:37Z</time>
      </trkpt>
      <trkpt lat="59.7409175228" lon="18.369985527">
        <ele>51.2</ele>
        <time>2012-09-16T13:35:42Z</time>
      </trkpt>
      <trkpt lat="59.7408410799" lon="18.3699857785">
        <ele>50.8</ele>
        <time>2012-09-16T13:35:43Z</time>
      </trkpt>
      <trkpt lat="59.7407655589" lon="18.3699905561">
        <ele>50.4</ele>
        <time>2012-09-16T13:35:44Z</time>
      </trkpt>
      <trkpt lat="59.7406907924" lon="18.3699907238">
        <ele>50</ele>
        <time>2012-09-16T13:35:45Z</time>
      </trkpt>
      <trkpt lat="59.7402604656" lon="18.3700116785">
        <ele>50</ele>
        <time>2012-09-16T13:35:51Z</time>
      </trkpt>
      <trkpt lat="59.7397074279" lon="18.3700204795">
        <ele>50</ele>
        <time>2012-09-16T13:35:59Z</time>
      </trkpt>
      <trkpt lat="59.7391425716" lon="18.3700228264">
        <ele>50</ele>
        <time>2012-09-16T13:36:07Z</time>
      </trkpt>
      <trkpt lat="59.7390712417" lon="18.3700186355">
        <ele>50</ele>
        <time>2012-09-16T13:36:08Z</time>
      </trkpt>
      <trkpt lat="59.7387077187" lon="18.3699905561">
        <ele>50.4</ele>
        <time>2012-09-16T13:36:13Z</time>
      </trkpt>
      <trkpt lat="59.7386384842" lon="18.3699825095">
        <ele>50.8</ele>
        <time>2012-09-16T13:36:14Z</time>
      </trkpt>
      <trkpt lat="59.738569585" lon="18.3699662486">
        <ele>51.2</ele>
        <time>2012-09-16T13:36:15Z</time>
      </trkpt>
      <trkpt lat="59.7384990094" lon="18.3699516641">
        <ele>51.6</ele>
        <time>2012-09-16T13:36:16Z</time>
      </trkpt>
      <trkpt lat="59.7384249134" lon="18.369936912">
        <ele>52.2</ele>
        <time>2012-09-16T13:36:17Z</time>
      </trkpt>
      <trkpt lat="59.7379260227" lon="18.3697890553">
        <ele>52.2</ele>
        <time>2012-09-16T13:36:24Z</time>
      </trkpt>
      <trkpt lat="59.7373290638" lon="18.3696182321">
        <ele>52.2</ele>
        <time>2012-09-16T13:36:32Z</time>
      </trkpt>
      <trkpt lat="59.7368839849" lon="18.3695458125">
        <ele>52.2</ele>
        <time>2012-09-16T13:36:38Z</time>
      </trkpt>
      <trkpt lat="59.7366566677" lon="18.3695465669">
        <ele>51.6</ele>
        <time>2012-09-16T13:36:41Z</time>
      </trkpt>
      <trkpt lat="59.7365798895" lon="18.3695686951">
        <ele>51.2</ele>
        <time>2012-09-16T13:36:42Z</time>
      </trkpt>
      <trkpt lat="59.7365025246" lon="18.3695952657">
        <ele>50.8</ele>
        <time>2012-09-16T13:36:43Z</time>
      </trkpt>
      <trkpt lat="59.7364290153" lon="18.3696321461">
        <ele>50.2</ele>
        <time>2012-09-16T13:36:44Z</time>
      </trkpt>
      <trkpt lat="59.7363567634" lon="18.3696778274">
        <ele>49.8</ele>
        <time>2012-09-16T13:36:45Z</time>
      </trkpt>
      <trkpt lat="59.7360691804" lon="18.369921154">
        <ele>49.8</ele>
        <time>2012-09-16T13:36:49Z</time>
      </trkpt>
      <trkpt lat="59.7359969284" lon="18.370000363">
        <ele>49.4</ele>
        <time>2012-09-16T13:36:50Z</time>
      </trkpt>
      <trkpt lat="59.7359257661" lon="18.3700914742">
        <ele>49</ele>
        <time>2012-09-16T13:36:51Z</time>
      </trkpt>
      <trkpt lat="59.7358535979" lon="18.3701849324">
        <ele>48.6</ele>
        <time>2012-09-16T13:36:52Z</time>
      </trkpt>
      <trkpt lat="59.7357832738" lon="18.3702792288">
        <ele>48</ele>
        <time>2012-09-16T13:36:53Z</time>
      </trkpt>
      <trkpt lat="59.7357095969" lon="18.3703691666">
        <ele>47.6</ele>
        <time>2012-09-16T13:36:54Z</time>
      </trkpt>
      <trkpt lat="59.7354138834" lon="18.3707384731">
        <ele>47.2</ele>
        <time>2012-09-16T13:36:58Z</time>
      </trkpt>
      <trkpt lat="59.7353416314" lon="18.3708337753">
        <ele>46.8</ele>
        <time>2012-09-16T13:36:59Z</time>
      </trkpt>
      <trkpt lat="59.7352662782" lon="18.3709237969">
        <ele>46.4</ele>
        <time>2012-09-16T13:37:00Z</time>
      </trkpt>
      <trkpt lat="59.7351926851" lon="18.3710200211">
        <ele>46</ele>
        <time>2012-09-16T13:37:01Z</time>
      </trkpt>
      <trkpt lat="59.7351148172" lon="18.3711119705">
        <ele>45.6</ele>
        <time>2012-09-16T13:37:02Z</time>
      </trkpt>
      <trkpt lat="59.7346538966" lon="18.3716962728">
        <ele>45.6</ele>
        <time>2012-09-16T13:37:08Z</time>
      </trkpt>
      <trkpt lat="59.7344321953" lon="18.3719833529">
        <ele>45.6</ele>
        <time>2012-09-16T13:37:11Z</time>
      </trkpt>
      <trkpt lat="59.7339207318" lon="18.3726340398">
        <ele>45.6</ele>
        <time>2012-09-16T13:37:18Z</time>
      </trkpt>
      <trkpt lat="59.7337753058" lon="18.3728073774">
        <ele>45.6</ele>
        <time>2012-09-16T13:37:20Z</time>
      </trkpt>
      <trkpt lat="59.7332848808" lon="18.3734283086">
        <ele>45.6</ele>
        <time>2012-09-16T13:37:27Z</time>
      </trkpt>
      <trkpt lat="59.7331457413" lon="18.3735995508">
        <ele>45.6</ele>
        <time>2012-09-16T13:37:29Z</time>
      </trkpt>
      <trkpt lat="59.7326395583" lon="18.3741799136">
        <ele>45.6</ele>
        <time>2012-09-16T13:37:36Z</time>
      </trkpt>
      <trkpt lat="59.7325636183" lon="18.3742457115">
        <ele>45.6</ele>
        <time>2012-09-16T13:37:37Z</time>
      </trkpt>
      <trkpt lat="59.732127089" lon="18.3745896208">
        <ele>45.6</ele>
        <time>2012-09-16T13:37:43Z</time>
      </trkpt>
      <trkpt lat="59.7317439523" lon="18.3747933848">
        <ele>45.6</ele>
        <time>2012-09-16T13:37:49Z</time>
      </trkpt>
      <trkpt lat="59.7316811719" lon="18.3748084723">
        <ele>45.6</ele>
        <time>2012-09-16T13:37:50Z</time>
      </trkpt>
      <trkpt lat="59.7314288767" lon="18.3748975718">
        <ele>45.6</ele>
        <time>2012-09-16T13:37:54Z</time>
      </trkpt>
      <trkpt lat="59.7312863006" lon="18.3749196162">
        <ele>45.6</ele>
        <time>2012-09-16T13:37:56Z</time>
      </trkpt>
      <trkpt lat="59.7311632543" lon="18.3749302613">
        <ele>45.6</ele>
        <time>2012-09-16T13:37:58Z</time>
      </trkpt>
      <trkpt lat="59.730905008" lon="18.3749295907">
        <ele>46</ele>
        <time>2012-09-16T13:38:02Z</time>
      </trkpt>
      <trkpt lat="59.7308402997" lon="18.3749228852">
        <ele>46.6</ele>
        <time>2012-09-16T13:38:03Z</time>
      </trkpt>
      <trkpt lat="59.7307747532" lon="18.3749058699">
        <ele>47</ele>
        <time>2012-09-16T13:38:04Z</time>
      </trkpt>
      <trkpt lat="59.7307072789" lon="18.3749042774">
        <ele>47.4</ele>
        <time>2012-09-16T13:38:05Z</time>
      </trkpt>
      <trkpt lat="59.7306443309" lon="18.3748950573">
        <ele>48</ele>
        <time>2012-09-16T13:38:06Z</time>
      </trkpt>
      <trkpt lat="59.7301841646" lon="18.3748361325">
        <ele>48</ele>
        <time>2012-09-16T13:38:13Z</time>
      </trkpt>
      <trkpt lat="59.729728273" lon="18.3747857573">
        <ele>48</ele>
        <time>2012-09-16T13:38:20Z</time>
      </trkpt>
      <trkpt lat="59.7296913927" lon="18.3746796425">
        <ele>48</ele>
        <time>2012-09-16T13:38:21Z</time>
      </trkpt>
      <trkpt lat="59.7296960865" lon="18.3745593622">
        <ele>48</ele>
        <time>2012-09-16T13:38:22Z</time>
      </trkpt>
      <trkpt lat="59.7297482219" lon="18.3741988567">
        <ele>48</ele>
        <time>2012-09-16T13:38:25Z</time>
      </trkpt>
      <trkpt lat="59.7296810829" lon="18.3737552865">
        <ele>48</ele>
        <time>2012-09-16T13:38:29Z</time>
      </trkpt>
      <trkpt lat="59.7295817574" lon="18.3736409574">
        <ele>48.4</ele>
        <time>2012-09-16T13:38:31Z</time>
      </trkpt>
      <trkpt lat="59.7295255149" lon="18.3735958628">
        <ele>48.8</ele>
        <time>2012-09-16T13:38:32Z</time>
      </trkpt>
      <trkpt lat="59.7294713678" lon="18.3735482536">
        <ele>49.2</ele>
        <time>2012-09-16T13:38:33Z</time>
      </trkpt>
      <trkpt lat="59.7294204058" lon="18.3734854732">
        <ele>49.8</ele>
        <time>2012-09-16T13:38:34Z</time>
      </trkpt>
      <trkpt lat="59.7293712041" lon="18.3734302364">
        <ele>50.2</ele>
        <time>2012-09-16T13:38:35Z</time>
      </trkpt>
      <trkpt lat="59.7293128661" lon="18.373383214">
        <ele>50.2</ele>
        <time>2012-09-16T13:38:36Z</time>
      </trkpt>
      <trkpt lat="59.7292054939" lon="18.3732822959">
        <ele>50.2</ele>
        <time>2012-09-16T13:38:38Z</time>
      </trkpt>
      <trkpt lat="59.728743735" lon="18.3729087146">
        <ele>50.2</ele>
        <time>2012-09-16T13:38:46Z</time>
      </trkpt>
      <trkpt lat="59.7283010031" lon="18.3725398272">
        <ele>50.2</ele>
        <time>2012-09-16T13:38:53Z</time>
      </trkpt>
      <trkpt lat="59.7279151842" lon="18.3719241766">
        <ele>50.2</ele>
        <time>2012-09-16T13:39:00Z</time>
      </trkpt>
      <trkpt lat="59.7278363105" lon="18.3717119469">
        <ele>50.2</ele>
        <time>2012-09-16T13:39:02Z</time>
      </trkpt>
      <trkpt lat="59.7277586942" lon="18.3713810295">
        <ele>50.2</ele>
        <time>2012-09-16T13:39:05Z</time>
      </trkpt>
      <trkpt lat="59.727755509" lon="18.3709087095">
        <ele>50.2</ele>
        <time>2012-09-16T13:39:09Z</time>
      </trkpt>
      <trkpt lat="59.7277602867" lon="18.370792704">
        <ele>50.2</ele>
        <time>2012-09-16T13:39:10Z</time>
      </trkpt>
      <trkpt lat="59.7277554252" lon="18.3706777043">
        <ele>50.2</ele>
        <time>2012-09-16T13:39:11Z</time>
      </trkpt>
      <trkpt lat="59.7277213947" lon="18.3704876028">
        <ele>50.2</ele>
        <time>2012-09-16T13:39:13Z</time>
      </trkpt>
      <trkpt lat="59.7276391683" lon="18.3702623812">
        <ele>50.2</ele>
        <time>2012-09-16T13:39:16Z</time>
      </trkpt>
      <trkpt lat="59.7276064788" lon="18.3701825855">
        <ele>50.2</ele>
        <time>2012-09-16T13:39:17Z</time>
      </trkpt>
      <trkpt lat="59.7275759687" lon="18.3701027898">
        <ele>50.6</ele>
        <time>2012-09-16T13:39:18Z</time>
      </trkpt>
      <trkpt lat="59.7275397589" lon="18.3700324656">
        <ele>51</ele>
        <time>2012-09-16T13:39:19Z</time>
      </trkpt>
      <trkpt lat="59.7275012022" lon="18.3699523347">
        <ele>51.6</ele>
        <time>2012-09-16T13:39:20Z</time>
      </trkpt>
      <trkpt lat="59.7274717817" lon="18.3698590441">
        <ele>52</ele>
        <time>2012-09-16T13:39:21Z</time>
      </trkpt>
      <trkpt lat="59.7274360748" lon="18.3697512529">
        <ele>52.4</ele>
        <time>2012-09-16T13:39:22Z</time>
      </trkpt>
      <trkpt lat="59.7274033016" lon="18.3696593034">
        <ele>52.8</ele>
        <time>2012-09-16T13:39:23Z</time>
      </trkpt>
      <trkpt lat="59.7273707798" lon="18.369567354">
        <ele>53.2</ele>
        <time>2012-09-16T13:39:24Z</time>
      </trkpt>
      <trkpt lat="59.7273379228" lon="18.3694791764">
        <ele>54</ele>
        <time>2012-09-16T13:39:25Z</time>
      </trkpt>
      <trkpt lat="59.7273062392" lon="18.3693940163">
        <ele>54.4</ele>
        <time>2012-09-16T13:39:26Z</time>
      </trkpt>
      <trkpt lat="59.7271443009" lon="18.3689964628">
        <ele>54.4</ele>
        <time>2012-09-16T13:39:31Z</time>
      </trkpt>
      <trkpt lat="59.7271108571" lon="18.3689307487">
        <ele>54.4</ele>
        <time>2012-09-16T13:39:32Z</time>
      </trkpt>
      <trkpt lat="59.7269593962" lon="18.3685691535">
        <ele>54.8</ele>
        <time>2012-09-16T13:39:37Z</time>
      </trkpt>
      <trkpt lat="59.7269346696" lon="18.3684924591">
        <ele>55.2</ele>
        <time>2012-09-16T13:39:38Z</time>
      </trkpt>
      <trkpt lat="59.7269122899" lon="18.3684206263">
        <ele>55.8</ele>
        <time>2012-09-16T13:39:39Z</time>
      </trkpt>
      <trkpt lat="59.726890916" lon="18.3683548283">
        <ele>56.2</ele>
        <time>2012-09-16T13:39:40Z</time>
      </trkpt>
      <trkpt lat="59.7268667762" lon="18.3682902039">
        <ele>56.6</ele>
        <time>2012-09-16T13:39:41Z</time>
      </trkpt>
      <trkpt lat="59.7268119585" lon="18.3681286009">
        <ele>57</ele>
        <time>2012-09-16T13:39:43Z</time>
      </trkpt>
      <trkpt lat="59.7267826219" lon="18.3680483861">
        <ele>57.4</ele>
        <time>2012-09-16T13:39:44Z</time>
      </trkpt>
      <trkpt lat="59.7267501839" lon="18.3679652376">
        <ele>58</ele>
        <time>2012-09-16T13:39:45Z</time>
      </trkpt>
      <trkpt lat="59.7267109567" lon="18.367900697">
        <ele>58.4</ele>
        <time>2012-09-16T13:39:46Z</time>
      </trkpt>
      <trkpt lat="59.7266695501" lon="18.3678529202">
        <ele>58.8</ele>
        <time>2012-09-16T13:39:47Z</time>
      </trkpt>
      <trkpt lat="59.7266265509" lon="18.3678088314">
        <ele>58.8</ele>
        <time>2012-09-16T13:39:48Z</time>
      </trkpt>
      <trkpt lat="59.7265786903" lon="18.3677737112">
        <ele>59.8</ele>
        <time>2012-09-16T13:39:49Z</time>
      </trkpt>
      <trkpt lat="59.7265285665" lon="18.3677411056">
        <ele>60.2</ele>
        <time>2012-09-16T13:39:50Z</time>
      </trkpt>
      <trkpt lat="59.7264771016" lon="18.3677160437">
        <ele>60.6</ele>
        <time>2012-09-16T13:39:51Z</time>
      </trkpt>
      <trkpt lat="59.7264243795" lon="18.3676962625">
        <ele>61</ele>
        <time>2012-09-16T13:39:52Z</time>
      </trkpt>
      <trkpt lat="59.7263677178" lon="18.3676763974">
        <ele>61</ele>
        <time>2012-09-16T13:39:53Z</time>
      </trkpt>
      <trkpt lat="59.725951808" lon="18.3674937558">
        <ele>61</ele>
        <time>2012-09-16T13:40:01Z</time>
      </trkpt>
      <trkpt lat="59.7257948988" lon="18.3672696238">
        <ele>61</ele>
        <time>2012-09-16T13:40:05Z</time>
      </trkpt>
      <trkpt lat="59.7257643887" lon="18.367193097">
        <ele>61</ele>
        <time>2012-09-16T13:40:06Z</time>
      </trkpt>
      <trkpt lat="59.7257306096" lon="18.3671246169">
        <ele>61.4</ele>
        <time>2012-09-16T13:40:07Z</time>
      </trkpt>
      <trkpt lat="59.7256854312" lon="18.3670549633">
        <ele>61.8</ele>
        <time>2012-09-16T13:40:08Z</time>
      </trkpt>
      <trkpt lat="59.7256423482" lon="18.3669978826">
        <ele>62.2</ele>
        <time>2012-09-16T13:40:09Z</time>
      </trkpt>
      <trkpt lat="59.7255931465" lon="18.3669426458">
        <ele>62.6</ele>
        <time>2012-09-16T13:40:10Z</time>
      </trkpt>
      <trkpt lat="59.7255380774" lon="18.3668853975">
        <ele>63.2</ele>
        <time>2012-09-16T13:40:11Z</time>
      </trkpt>
      <trkpt lat="59.7254755484" lon="18.366842566">
        <ele>63.2</ele>
        <time>2012-09-16T13:40:12Z</time>
      </trkpt>
      <trkpt lat="59.7254091638" lon="18.3668078649">
        <ele>63.2</ele>
        <time>2012-09-16T13:40:13Z</time>
      </trkpt>
      <trkpt lat="59.7250292961" lon="18.3667025882">
        <ele>63.2</ele>
        <time>2012-09-16T13:40:18Z</time>
      </trkpt>
      <trkpt lat="59.7244570637" lon="18.3665344473">
        <ele>63.2</ele>
        <time>2012-09-16T13:40:25Z</time>
      </trkpt>
      <trkpt lat="59.7241815507" lon="18.3664546516">
        <ele>62.6</ele>
        <time>2012-09-16T13:40:28Z</time>
      </trkpt>
      <trkpt lat="59.7240802135" lon="18.3664506283">
        <ele>62.2</ele>
        <time>2012-09-16T13:40:29Z</time>
      </trkpt>
      <trkpt lat="59.7239780382" lon="18.3664569985">
        <ele>61.8</ele>
        <time>2012-09-16T13:40:30Z</time>
      </trkpt>
      <trkpt lat="59.7238730968" lon="18.3664722536">
        <ele>61.4</ele>
        <time>2012-09-16T13:40:31Z</time>
      </trkpt>
      <trkpt lat="59.7237670657" lon="18.3664963097">
        <ele>61</ele>
        <time>2012-09-16T13:40:32Z</time>
      </trkpt>
      <trkpt lat="59.7236618729" lon="18.3665125705">
        <ele>60.6</ele>
        <time>2012-09-16T13:40:33Z</time>
      </trkpt>
      <trkpt lat="59.7235545008" lon="18.3665333577">
        <ele>60</ele>
        <time>2012-09-16T13:40:34Z</time>
      </trkpt>
      <trkpt lat="59.723448805" lon="18.3665487804">
        <ele>59.6</ele>
        <time>2012-09-16T13:40:35Z</time>
      </trkpt>
      <trkpt lat="59.7233397565" lon="18.3665723335">
        <ele>59</ele>
        <time>2012-09-16T13:40:36Z</time>
      </trkpt>
      <trkpt lat="59.7232290316" lon="18.3665956352">
        <ele>58.6</ele>
        <time>2012-09-16T13:40:37Z</time>
      </trkpt>
      <trkpt lat="59.7231122717" lon="18.3666236307">
        <ele>58</ele>
        <time>2012-09-16T13:40:38Z</time>
      </trkpt>
      <trkpt lat="59.722997775" lon="18.3666551467">
        <ele>57</ele>
        <time>2012-09-16T13:40:39Z</time>
      </trkpt>
      <trkpt lat="59.7228819371" lon="18.3666830584">
        <ele>56.4</ele>
        <time>2012-09-16T13:40:40Z</time>
      </trkpt>
      <trkpt lat="59.7227670212" lon="18.3667074497">
        <ele>55.8</ele>
        <time>2012-09-16T13:40:41Z</time>
      </trkpt>
      <trkpt lat="59.7226585595" lon="18.3667351938">
        <ele>55.2</ele>
        <time>2012-09-16T13:40:42Z</time>
      </trkpt>
      <trkpt lat="59.7225536181" lon="18.3667672127">
        <ele>54.4</ele>
        <time>2012-09-16T13:40:43Z</time>
      </trkpt>
      <trkpt lat="59.7224511913" lon="18.3668050989">
        <ele>54</ele>
        <time>2012-09-16T13:40:44Z</time>
      </trkpt>
      <trkpt lat="59.7223480939" lon="18.366855055">
        <ele>53.6</ele>
        <time>2012-09-16T13:40:45Z</time>
      </trkpt>
      <trkpt lat="59.7222559768" lon="18.3669160752">
        <ele>52.8</ele>
        <time>2012-09-16T13:40:46Z</time>
      </trkpt>
      <trkpt lat="59.7221657876" lon="18.3669796938">
        <ele>51.8</ele>
        <time>2012-09-16T13:40:47Z</time>
      </trkpt>
      <trkpt lat="59.7220804598" lon="18.3670470843">
        <ele>51</ele>
        <time>2012-09-16T13:40:48Z</time>
      </trkpt>
      <trkpt lat="59.7219935395" lon="18.3671010637">
        <ele>50.2</ele>
        <time>2012-09-16T13:40:49Z</time>
      </trkpt>
      <trkpt lat="59.721908128" lon="18.3671414645">
        <ele>49.4</ele>
        <time>2012-09-16T13:40:50Z</time>
      </trkpt>
      <trkpt lat="59.7218234708" lon="18.3671691248">
        <ele>49.4</ele>
        <time>2012-09-16T13:40:51Z</time>
      </trkpt>
      <trkpt lat="59.7217411605" lon="18.3671717232">
        <ele>49.4</ele>
        <time>2012-09-16T13:40:52Z</time>
      </trkpt>
      <trkpt lat="59.7215809824" lon="18.3671363515">
        <ele>49.4</ele>
        <time>2012-09-16T13:40:54Z</time>
      </trkpt>
      <trkpt lat="59.7213805712" lon="18.3670122994">
        <ele>49.4</ele>
        <time>2012-09-16T13:40:57Z</time>
      </trkpt>
      <trkpt lat="59.7213169525" lon="18.3669648579">
        <ele>49.4</ele>
        <time>2012-09-16T13:40:58Z</time>
      </trkpt>
      <trkpt lat="59.7209058204" lon="18.3666644506">
        <ele>49.4</ele>
        <time>2012-09-16T13:41:04Z</time>
      </trkpt>
      <trkpt lat="59.7205154753" lon="18.3663584274">
        <ele>49.4</ele>
        <time>2012-09-16T13:41:10Z</time>
      </trkpt>
      <trkpt lat="59.7201335959" lon="18.3660165297">
        <ele>49.4</ele>
        <time>2012-09-16T13:41:16Z</time>
      </trkpt>
      <trkpt lat="59.7197831487" lon="18.3658287751">
        <ele>49.4</ele>
        <time>2012-09-16T13:41:21Z</time>
      </trkpt>
      <trkpt lat="59.7194925482" lon="18.3655265238">
        <ele>49.4</ele>
        <time>2012-09-16T13:41:26Z</time>
      </trkpt>
      <trkpt lat="59.7191830046" lon="18.3651758251">
        <ele>50</ele>
        <time>2012-09-16T13:41:32Z</time>
      </trkpt>
      <trkpt lat="59.7191308692" lon="18.3651329098">
        <ele>50.4</ele>
        <time>2012-09-16T13:41:33Z</time>
      </trkpt>
      <trkpt lat="59.719075381" lon="18.3650930958">
        <ele>50.8</ele>
        <time>2012-09-16T13:41:34Z</time>
      </trkpt>
      <trkpt lat="59.7190202281" lon="18.3650568022">
        <ele>51.4</ele>
        <time>2012-09-16T13:41:35Z</time>
      </trkpt>
      <trkpt lat="59.7189645723" lon="18.3650217658">
        <ele>51.8</ele>
        <time>2012-09-16T13:41:36Z</time>
      </trkpt>
      <trkpt lat="59.7187401888" lon="18.3648681256">
        <ele>51.8</ele>
        <time>2012-09-16T13:41:40Z</time>
      </trkpt>
      <trkpt lat="59.7182047531" lon="18.3645643655">
        <ele>51.8</ele>
        <time>2012-09-16T13:41:49Z</time>
      </trkpt>
      <trkpt lat="59.7177884241" lon="18.3644172632">
        <ele>51.8</ele>
        <time>2012-09-16T13:41:56Z</time>
      </trkpt>
      <trkpt lat="59.7177282421" lon="18.3644025949">
        <ele>52.2</ele>
        <time>2012-09-16T13:41:57Z</time>
      </trkpt>
      <trkpt lat="59.7176669704" lon="18.3643819754">
        <ele>52.6</ele>
        <time>2012-09-16T13:41:58Z</time>
      </trkpt>
      <trkpt lat="59.7176037708" lon="18.3643702407">
        <ele>53</ele>
        <time>2012-09-16T13:41:59Z</time>
      </trkpt>
      <trkpt lat="59.7175373862" lon="18.3643575002">
        <ele>53.4</ele>
        <time>2012-09-16T13:42:00Z</time>
      </trkpt>
      <trkpt lat="59.7174687384" lon="18.3643476934">
        <ele>53.8</ele>
        <time>2012-09-16T13:42:01Z</time>
      </trkpt>
      <trkpt lat="59.7173326164" lon="18.3643301752">
        <ele>53.8</ele>
        <time>2012-09-16T13:42:03Z</time>
      </trkpt>
      <trkpt lat="59.7169019544" lon="18.364295558">
        <ele>53.8</ele>
        <time>2012-09-16T13:42:09Z</time>
      </trkpt>
      <trkpt lat="59.7165466456" lon="18.3641979927">
        <ele>53.8</ele>
        <time>2012-09-16T13:42:14Z</time>
      </trkpt>
      <trkpt lat="59.7164753995" lon="18.364122807">
        <ele>53.8</ele>
        <time>2012-09-16T13:42:15Z</time>
      </trkpt>
      <trkpt lat="59.7164102721" lon="18.3640191229">
        <ele>53.4</ele>
        <time>2012-09-16T13:42:16Z</time>
      </trkpt>
      <trkpt lat="59.7163468211" lon="18.3638934783">
        <ele>53</ele>
        <time>2012-09-16T13:42:17Z</time>
      </trkpt>
      <trkpt lat="59.7162847951" lon="18.3637559313">
        <ele>52.2</ele>
        <time>2012-09-16T13:42:18Z</time>
      </trkpt>
      <trkpt lat="59.7162244454" lon="18.3636111759">
        <ele>51.8</ele>
        <time>2012-09-16T13:42:19Z</time>
      </trkpt>
      <trkpt lat="59.715926385" lon="18.3630979521">
        <ele>51.8</ele>
        <time>2012-09-16T13:42:23Z</time>
      </trkpt>
      <trkpt lat="59.7156301687" lon="18.3627988021">
        <ele>51.8</ele>
        <time>2012-09-16T13:42:27Z</time>
      </trkpt>
      <trkpt lat="59.7155490319" lon="18.3627368599">
        <ele>51</ele>
        <time>2012-09-16T13:42:28Z</time>
      </trkpt>
      <trkpt lat="59.7154661349" lon="18.3626909271">
        <ele>50.4</ele>
        <time>2012-09-16T13:42:29Z</time>
      </trkpt>
      <trkpt lat="59.7153829864" lon="18.3626551363">
        <ele>49.6</ele>
        <time>2012-09-16T13:42:30Z</time>
      </trkpt>
      <trkpt lat="59.7153013467" lon="18.3626263864">
        <ele>48.6</ele>
        <time>2012-09-16T13:42:31Z</time>
      </trkpt>
      <trkpt lat="59.715221132" lon="18.3625818785">
        <ele>47.8</ele>
        <time>2012-09-16T13:42:32Z</time>
      </trkpt>
      <trkpt lat="59.7151434317" lon="18.3625444114">
        <ele>47</ele>
        <time>2012-09-16T13:42:33Z</time>
      </trkpt>
      <trkpt lat="59.7150681623" lon="18.3625118897">
        <ele>46.2</ele>
        <time>2012-09-16T13:42:34Z</time>
      </trkpt>
      <trkpt lat="59.7149278493" lon="18.3624600057">
        <ele>46.2</ele>
        <time>2012-09-16T13:42:36Z</time>
      </trkpt>
      <trkpt lat="59.7146054814" lon="18.3623935372">
        <ele>46.2</ele>
        <time>2012-09-16T13:42:41Z</time>
      </trkpt>
      <trkpt lat="59.7145480654" lon="18.3624113907">
        <ele>46.2</ele>
        <time>2012-09-16T13:42:42Z</time>
      </trkpt>
      <trkpt lat="59.7143843669" lon="18.3625039269">
        <ele>46.2</ele>
        <time>2012-09-16T13:42:45Z</time>
      </trkpt>
      <trkpt lat="59.7141829498" lon="18.3626406357">
        <ele>46.2</ele>
        <time>2012-09-16T13:42:49Z</time>
      </trkpt>
      <trkpt lat="59.7140912518" lon="18.3626862332">
        <ele>46.2</ele>
        <time>2012-09-16T13:42:51Z</time>
      </trkpt>
      <trkpt lat="59.7140449837" lon="18.3627203475">
        <ele>46.2</ele>
        <time>2012-09-16T13:42:52Z</time>
      </trkpt>
      <trkpt lat="59.7138955345" lon="18.3628153983">
        <ele>46.2</ele>
        <time>2012-09-16T13:42:55Z</time>
      </trkpt>
      <trkpt lat="59.7138420579" lon="18.3628337546">
        <ele>46.2</ele>
        <time>2012-09-16T13:42:56Z</time>
      </trkpt>
      <trkpt lat="59.7135703167" lon="18.3629231895">
        <ele>46.2</ele>
        <time>2012-09-16T13:43:01Z</time>
      </trkpt>
      <trkpt lat="59.7132399861" lon="18.3630122053">
        <ele>47</ele>
        <time>2012-09-16T13:43:07Z</time>
      </trkpt>
      <trkpt lat="59.7131819833" lon="18.3630111156">
        <ele>47.6</ele>
        <time>2012-09-16T13:43:08Z</time>
      </trkpt>
      <trkpt lat="59.7131233938" lon="18.3630299749">
        <ele>48</ele>
        <time>2012-09-16T13:43:09Z</time>
      </trkpt>
      <trkpt lat="59.7130636309" lon="18.3630311484">
        <ele>48.6</ele>
        <time>2012-09-16T13:43:10Z</time>
      </trkpt>
      <trkpt lat="59.712890377" lon="18.3630288014">
        <ele>48.6</ele>
        <time>2012-09-16T13:43:13Z</time>
      </trkpt>
      <trkpt lat="59.7127779757" lon="18.3630158095">
        <ele>48.6</ele>
        <time>2012-09-16T13:43:15Z</time>
      </trkpt>
      <trkpt lat="59.7125992736" lon="18.3629504307">
        <ele>49</ele>
        <time>2012-09-16T13:43:18Z</time>
      </trkpt>
      <trkpt lat="59.7125432825" lon="18.3629352594">
        <ele>49.6</ele>
        <time>2012-09-16T13:43:19Z</time>
      </trkpt>
      <trkpt lat="59.7124876267" lon="18.3629148914">
        <ele>50</ele>
        <time>2012-09-16T13:43:20Z</time>
      </trkpt>
      <trkpt lat="59.7124319709" lon="18.3628920927">
        <ele>50.4</ele>
        <time>2012-09-16T13:43:21Z</time>
      </trkpt>
      <trkpt lat="59.7123748902" lon="18.3628668631">
        <ele>51</ele>
        <time>2012-09-16T13:43:22Z</time>
      </trkpt>
      <trkpt lat="59.7120252811" lon="18.3627654422">
        <ele>51</ele>
        <time>2012-09-16T13:43:28Z</time>
      </trkpt>
      <trkpt lat="59.7119128798" lon="18.362737279">
        <ele>51.4</ele>
        <time>2012-09-16T13:43:30Z</time>
      </trkpt>
      <trkpt lat="59.7118576431" lon="18.3627179168">
        <ele>51.8</ele>
        <time>2012-09-16T13:43:31Z</time>
      </trkpt>
      <trkpt lat="59.711799808" lon="18.362699309">
        <ele>52.6</ele>
        <time>2012-09-16T13:43:32Z</time>
      </trkpt>
      <trkpt lat="59.7117355188" lon="18.3626724031">
        <ele>53</ele>
        <time>2012-09-16T13:43:33Z</time>
      </trkpt>
      <trkpt lat="59.7116737442" lon="18.3626305774">
        <ele>53</ele>
        <time>2012-09-16T13:43:34Z</time>
      </trkpt>
      <trkpt lat="59.7114274002" lon="18.3624108878">
        <ele>53</ele>
        <time>2012-09-16T13:43:38Z</time>
      </trkpt>
      <trkpt lat="59.7113730855" lon="18.3623240513">
        <ele>53</ele>
        <time>2012-09-16T13:43:39Z</time>
      </trkpt>
      <trkpt lat="59.7112294197" lon="18.362019956">
        <ele>53</ele>
        <time>2012-09-16T13:43:42Z</time>
      </trkpt>
      <trkpt lat="59.7111851633" lon="18.3617559261">
        <ele>53</ele>
        <time>2012-09-16T13:43:44Z</time>
      </trkpt>
      <trkpt lat="59.7112707425" lon="18.3613298741">
        <ele>53</ele>
        <time>2012-09-16T13:43:47Z</time>
      </trkpt>
      <trkpt lat="59.711421449" lon="18.3609679437">
        <ele>53</ele>
        <time>2012-09-16T13:43:50Z</time>
      </trkpt>
      <trkpt lat="59.7115180085" lon="18.3607294786">
        <ele>53</ele>
        <time>2012-09-16T13:43:52Z</time>
      </trkpt>
      <trkpt lat="59.7115803699" lon="18.3604607549">
        <ele>53</ele>
        <time>2012-09-16T13:43:54Z</time>
      </trkpt>
      <trkpt lat="59.7115882489" lon="18.3601562405">
        <ele>53</ele>
        <time>2012-09-16T13:43:56Z</time>
      </trkpt>
      <trkpt lat="59.7115518714" lon="18.3594276858">
        <ele>52.4</ele>
        <time>2012-09-16T13:44:00Z</time>
      </trkpt>
      <trkpt lat="59.7115329283" lon="18.3592357402">
        <ele>51.8</ele>
        <time>2012-09-16T13:44:01Z</time>
      </trkpt>
      <trkpt lat="59.7115081179" lon="18.3590465608">
        <ele>51.4</ele>
        <time>2012-09-16T13:44:02Z</time>
      </trkpt>
      <trkpt lat="59.7114761829" lon="18.3588535256">
        <ele>50.8</ele>
        <time>2012-09-16T13:44:03Z</time>
      </trkpt>
      <trkpt lat="59.711440476" lon="18.3586744882">
        <ele>50.2</ele>
        <time>2012-09-16T13:44:04Z</time>
      </trkpt>
      <trkpt lat="59.7113971415" lon="18.3585091133">
        <ele>50.2</ele>
        <time>2012-09-16T13:44:05Z</time>
      </trkpt>
      <trkpt lat="59.711339977" lon="18.3581724124">
        <ele>49.8</ele>
        <time>2012-09-16T13:44:07Z</time>
      </trkpt>
      <trkpt lat="59.7113206148" lon="18.3580046068">
        <ele>49.2</ele>
        <time>2012-09-16T13:44:08Z</time>
      </trkpt>
      <trkpt lat="59.7113207824" lon="18.3578368011">
        <ele>48.8</ele>
        <time>2012-09-16T13:44:09Z</time>
      </trkpt>
      <trkpt lat="59.7113262307" lon="18.3576851726">
        <ele>48.4</ele>
        <time>2012-09-16T13:44:10Z</time>
      </trkpt>
      <trkpt lat="59.7113349478" lon="18.3575289339">
        <ele>48</ele>
        <time>2012-09-16T13:44:11Z</time>
      </trkpt>
      <trkpt lat="59.7113716606" lon="18.3572324661">
        <ele>48</ele>
        <time>2012-09-16T13:44:13Z</time>
      </trkpt>
      <trkpt lat="59.7113862451" lon="18.3570820949">
        <ele>48</ele>
        <time>2012-09-16T13:44:14Z</time>
      </trkpt>
      <trkpt lat="59.7113952975" lon="18.3565075156">
        <ele>48</ele>
        <time>2012-09-16T13:44:18Z</time>
      </trkpt>
      <trkpt lat="59.7113134902" lon="18.3557134144">
        <ele>48</ele>
        <time>2012-09-16T13:44:23Z</time>
      </trkpt>
      <trkpt lat="59.7112994924" lon="18.3553617099">
        <ele>48</ele>
        <time>2012-09-16T13:44:25Z</time>
      </trkpt>
      <trkpt lat="59.7113819703" lon="18.3549516673">
        <ele>48</ele>
        <time>2012-09-16T13:44:27Z</time>
      </trkpt>
      <trkpt lat="59.7114883366" lon="18.3545925029">
        <ele>47.6</ele>
        <time>2012-09-16T13:44:29Z</time>
      </trkpt>
      <trkpt lat="59.7115296594" lon="18.3544176565">
        <ele>47.2</ele>
        <time>2012-09-16T13:44:30Z</time>
      </trkpt>
      <trkpt lat="59.7115433219" lon="18.3542410499">
        <ele>46.8</ele>
        <time>2012-09-16T13:44:31Z</time>
      </trkpt>
      <trkpt lat="59.7115322578" lon="18.354083554">
        <ele>46.2</ele>
        <time>2012-09-16T13:44:32Z</time>
      </trkpt>
      <trkpt lat="59.7114966347" lon="18.3539429895">
        <ele>45.8</ele>
        <time>2012-09-16T13:44:33Z</time>
      </trkpt>
      <trkpt lat="59.7114556472" lon="18.3538271516">
        <ele>46.4</ele>
        <time>2012-09-16T13:44:34Z</time>
      </trkpt>
      <trkpt lat="59.711410804" lon="18.3537265688">
        <ele>46.8</ele>
        <time>2012-09-16T13:44:35Z</time>
      </trkpt>
      <trkpt lat="59.7113709062" lon="18.3536269919">
        <ele>47.2</ele>
        <time>2012-09-16T13:44:36Z</time>
      </trkpt>
      <trkpt lat="59.7113306731" lon="18.353537557">
        <ele>47.6</ele>
        <time>2012-09-16T13:44:37Z</time>
      </trkpt>
      <trkpt lat="59.7112828962" lon="18.3534525645">
        <ele>48</ele>
        <time>2012-09-16T13:44:38Z</time>
      </trkpt>
      <trkpt lat="59.7111360453" lon="18.353212926">
        <ele>48</ele>
        <time>2012-09-16T13:44:41Z</time>
      </trkpt>
      <trkpt lat="59.7109721792" lon="18.3530115928">
        <ele>48</ele>
        <time>2012-09-16T13:44:44Z</time>
      </trkpt>
      <trkpt lat="59.7108767094" lon="18.3528567791">
        <ele>47.2</ele>
        <time>2012-09-16T13:44:46Z</time>
      </trkpt>
      <trkpt lat="59.7108265018" lon="18.3527774863">
        <ele>46.8</ele>
        <time>2012-09-16T13:44:47Z</time>
      </trkpt>
      <trkpt lat="59.7107752046" lon="18.352694254">
        <ele>46.4</ele>
        <time>2012-09-16T13:44:48Z</time>
      </trkpt>
      <trkpt lat="59.7107311996" lon="18.3526069984">
        <ele>46</ele>
        <time>2012-09-16T13:44:49Z</time>
      </trkpt>
      <trkpt lat="59.7105550959" lon="18.3522133844">
        <ele>46</ele>
        <time>2012-09-16T13:44:53Z</time>
      </trkpt>
      <trkpt lat="59.7103795789" lon="18.3518933635">
        <ele>46</ele>
        <time>2012-09-16T13:44:57Z</time>
      </trkpt>
      <trkpt lat="59.7103280302" lon="18.35183754">
        <ele>46</ele>
        <time>2012-09-16T13:44:58Z</time>
      </trkpt>
      <trkpt lat="59.7102752242" lon="18.3517775256">
        <ele>46.4</ele>
        <time>2012-09-16T13:44:59Z</time>
      </trkpt>
      <trkpt lat="59.7102175567" lon="18.3517158348">
        <ele>46.8</ele>
        <time>2012-09-16T13:45:00Z</time>
      </trkpt>
      <trkpt lat="59.710153519" lon="18.3516603467">
        <ele>47.4</ele>
        <time>2012-09-16T13:45:01Z</time>
      </trkpt>
      <trkpt lat="59.7100908224" lon="18.3515927885">
        <ele>47.8</ele>
        <time>2012-09-16T13:45:02Z</time>
      </trkpt>
      <trkpt lat="59.7100204145" lon="18.3515270745">
        <ele>48.2</ele>
        <time>2012-09-16T13:45:03Z</time>
      </trkpt>
      <trkpt lat="59.7095448255" lon="18.3509952429">
        <ele>48.2</ele>
        <time>2012-09-16T13:45:10Z</time>
      </trkpt>
      <trkpt lat="59.7094912651" lon="18.3508700173">
        <ele>48.2</ele>
        <time>2012-09-16T13:45:11Z</time>
      </trkpt>
      <trkpt lat="59.7094410575" lon="18.3507347334">
        <ele>47.8</ele>
        <time>2012-09-16T13:45:12Z</time>
      </trkpt>
      <trkpt lat="59.709391269" lon="18.3506045625">
        <ele>47.2</ele>
        <time>2012-09-16T13:45:13Z</time>
      </trkpt>
      <trkpt lat="59.709349611" lon="18.3504756489">
        <ele>46.8</ele>
        <time>2012-09-16T13:45:14Z</time>
      </trkpt>
      <trkpt lat="59.7093100484" lon="18.350349669">
        <ele>46.4</ele>
        <time>2012-09-16T13:45:15Z</time>
      </trkpt>
      <trkpt lat="59.7092724137" lon="18.3502309813">
        <ele>46</ele>
        <time>2012-09-16T13:45:16Z</time>
      </trkpt>
      <trkpt lat="59.7092087113" lon="18.3499794404">
        <ele>46</ele>
        <time>2012-09-16T13:45:18Z</time>
      </trkpt>
      <trkpt lat="59.709044426" lon="18.3497327611">
        <ele>46</ele>
        <time>2012-09-16T13:45:21Z</time>
      </trkpt>
      <trkpt lat="59.708979131" lon="18.3496589166">
        <ele>46</ele>
        <time>2012-09-16T13:45:22Z</time>
      </trkpt>
      <trkpt lat="59.708733709" lon="18.3492637938">
        <ele>46</ele>
        <time>2012-09-16T13:45:26Z</time>
      </trkpt>
      <trkpt lat="59.7084657396" lon="18.3485594628">
        <ele>46</ele>
        <time>2012-09-16T13:45:32Z</time>
      </trkpt>
      <trkpt lat="59.7082649093" lon="18.3478896651">
        <ele>46</ele>
        <time>2012-09-16T13:45:38Z</time>
      </trkpt>
      <trkpt lat="59.7082145341" lon="18.3478044212">
        <ele>46</ele>
        <time>2012-09-16T13:45:39Z</time>
      </trkpt>
      <trkpt lat="59.7079196589" lon="18.3472444265">
        <ele>46</ele>
        <time>2012-09-16T13:45:45Z</time>
      </trkpt>
      <trkpt lat="59.7078198304" lon="18.3470393214">
        <ele>46</ele>
        <time>2012-09-16T13:45:47Z</time>
      </trkpt>
      <trkpt lat="59.707637105" lon="18.3468327075">
        <ele>46</ele>
        <time>2012-09-16T13:45:50Z</time>
      </trkpt>
      <trkpt lat="59.7075771744" lon="18.3467703462">
        <ele>46</ele>
        <time>2012-09-16T13:45:51Z</time>
      </trkpt>
      <trkpt lat="59.7075153998" lon="18.3467252516">
        <ele>46</ele>
        <time>2012-09-16T13:45:52Z</time>
      </trkpt>
      <trkpt lat="59.7073356081" lon="18.3466139399">
        <ele>46</ele>
        <time>2012-09-16T13:45:55Z</time>
      </trkpt>
      <trkpt lat="59.7072707322" lon="18.3465817535">
        <ele>46</ele>
        <time>2012-09-16T13:45:56Z</time>
      </trkpt>
      <trkpt lat="59.7072074488" lon="18.3465744612">
        <ele>46</ele>
        <time>2012-09-16T13:45:57Z</time>
      </trkpt>
      <trkpt lat="59.7070019246" lon="18.3465182186">
        <ele>46</ele>
        <time>2012-09-16T13:46:00Z</time>
      </trkpt>
      <trkpt lat="59.7069340312" lon="18.346500449">
        <ele>46.4</ele>
        <time>2012-09-16T13:46:01Z</time>
      </trkpt>
      <trkpt lat="59.7068707479" lon="18.3464732078">
        <ele>46.8</ele>
        <time>2012-09-16T13:46:02Z</time>
      </trkpt>
      <trkpt lat="59.7068056205" lon="18.3464602159">
        <ele>47.2</ele>
        <time>2012-09-16T13:46:03Z</time>
      </trkpt>
      <trkpt lat="59.7067368051" lon="18.3464359084">
        <ele>47.8</ele>
        <time>2012-09-16T13:46:04Z</time>
      </trkpt>
      <trkpt lat="59.7066680736" lon="18.3464211562">
        <ele>48.2</ele>
        <time>2012-09-16T13:46:05Z</time>
      </trkpt>
      <trkpt lat="59.7065982523" lon="18.3464002015">
        <ele>48.2</ele>
        <time>2012-09-16T13:46:06Z</time>
      </trkpt>
      <trkpt lat="59.7061456297" lon="18.3462166379">
        <ele>48.2</ele>
        <time>2012-09-16T13:46:12Z</time>
      </trkpt>
      <trkpt lat="59.7058248544" lon="18.3459424659">
        <ele>48.2</ele>
        <time>2012-09-16T13:46:17Z</time>
      </trkpt>
      <trkpt lat="59.7054887402" lon="18.3456940264">
        <ele>48.2</ele>
        <time>2012-09-16T13:46:23Z</time>
      </trkpt>
      <trkpt lat="59.7051201881" lon="18.3454492749">
        <ele>48.2</ele>
        <time>2012-09-16T13:46:28Z</time>
      </trkpt>
      <trkpt lat="59.7048662165" lon="18.3451497058">
        <ele>48.2</ele>
        <time>2012-09-16T13:46:32Z</time>
      </trkpt>
      <trkpt lat="59.7048105607" lon="18.345057924">
        <ele>48.2</ele>
        <time>2012-09-16T13:46:33Z</time>
      </trkpt>
      <trkpt lat="59.70472012" lon="18.3448514778">
        <ele>48.2</ele>
        <time>2012-09-16T13:46:35Z</time>
      </trkpt>
      <trkpt lat="59.7046350437" lon="18.3446287708">
        <ele>48.2</ele>
        <time>2012-09-16T13:46:37Z</time>
      </trkpt>
      <trkpt lat="59.7043692537" lon="18.3438878108">
        <ele>48.2</ele>
        <time>2012-09-16T13:46:44Z</time>
      </trkpt>
      <trkpt lat="59.7042401724" lon="18.3433886686">
        <ele>48.2</ele>
        <time>2012-09-16T13:46:49Z</time>
      </trkpt>
      <trkpt lat="59.7042154458" lon="18.3432642813">
        <ele>48.2</ele>
        <time>2012-09-16T13:46:50Z</time>
      </trkpt>
      <trkpt lat="59.7041193892" lon="18.3424887879">
        <ele>48.2</ele>
        <time>2012-09-16T13:46:56Z</time>
      </trkpt>
      <trkpt lat="59.7040582014" lon="18.3420278672">
        <ele>48.2</ele>
        <time>2012-09-16T13:47:00Z</time>
      </trkpt>
      <trkpt lat="59.7040412699" lon="18.3419187348">
        <ele>48.2</ele>
        <time>2012-09-16T13:47:01Z</time>
      </trkpt>
      <trkpt lat="59.7040157051" lon="18.3417112828">
        <ele>48.2</ele>
        <time>2012-09-16T13:47:03Z</time>
      </trkpt>
      <trkpt lat="59.7039919843" lon="18.3415144758">
        <ele>48.2</ele>
        <time>2012-09-16T13:47:05Z</time>
      </trkpt>
      <trkpt lat="59.703978238" lon="18.3414180001">
        <ele>48.2</ele>
        <time>2012-09-16T13:47:06Z</time>
      </trkpt>
      <trkpt lat="59.703971281" lon="18.341318507">
        <ele>48.2</ele>
        <time>2012-09-16T13:47:07Z</time>
      </trkpt>
      <trkpt lat="59.703951835" lon="18.3411242145">
        <ele>48.2</ele>
        <time>2012-09-16T13:47:09Z</time>
      </trkpt>
      <trkpt lat="59.7039353227" lon="18.340918858">
        <ele>48.2</ele>
        <time>2012-09-16T13:47:11Z</time>
      </trkpt>
      <trkpt lat="59.7039072433" lon="18.3405899522">
        <ele>49</ele>
        <time>2012-09-16T13:47:14Z</time>
      </trkpt>
      <trkpt lat="59.7038989453" lon="18.3404904591">
        <ele>49.4</ele>
        <time>2012-09-16T13:47:15Z</time>
      </trkpt>
      <trkpt lat="59.7038946705" lon="18.3403873617">
        <ele>49.8</ele>
        <time>2012-09-16T13:47:16Z</time>
      </trkpt>
      <trkpt lat="59.7038857018" lon="18.340292311">
        <ele>50.2</ele>
        <time>2012-09-16T13:47:17Z</time>
      </trkpt>
      <trkpt lat="59.7038347399" lon="18.339911186">
        <ele>50.2</ele>
        <time>2012-09-16T13:47:21Z</time>
      </trkpt>
      <trkpt lat="59.7038109353" lon="18.3398158">
        <ele>50.2</ele>
        <time>2012-09-16T13:47:22Z</time>
      </trkpt>
      <trkpt lat="59.7037191535" lon="18.3394343397">
        <ele>50.8</ele>
        <time>2012-09-16T13:47:26Z</time>
      </trkpt>
      <trkpt lat="59.7037004619" lon="18.3393331702">
        <ele>51.2</ele>
        <time>2012-09-16T13:47:27Z</time>
      </trkpt>
      <trkpt lat="59.7036873861" lon="18.3392198469">
        <ele>51.6</ele>
        <time>2012-09-16T13:47:28Z</time>
      </trkpt>
      <trkpt lat="59.7036758191" lon="18.3391212757">
        <ele>52.2</ele>
        <time>2012-09-16T13:47:29Z</time>
      </trkpt>
      <trkpt lat="59.703663833" lon="18.3390237104">
        <ele>52.6</ele>
        <time>2012-09-16T13:47:30Z</time>
      </trkpt>
      <trkpt lat="59.7036586362" lon="18.3389251393">
        <ele>52.6</ele>
        <time>2012-09-16T13:47:31Z</time>
      </trkpt>
      <trkpt lat="59.7036215044" lon="18.3385304356">
        <ele>52.6</ele>
        <time>2012-09-16T13:47:35Z</time>
      </trkpt>
      <trkpt lat="59.7035345841" lon="18.3378416949">
        <ele>52.6</ele>
        <time>2012-09-16T13:47:42Z</time>
      </trkpt>
      <trkpt lat="59.7035303093" lon="18.3377393519">
        <ele>52.6</ele>
        <time>2012-09-16T13:47:43Z</time>
      </trkpt>
      <trkpt lat="59.7034894894" lon="18.3374083506">
        <ele>53</ele>
        <time>2012-09-16T13:47:47Z</time>
      </trkpt>
      <trkpt lat="59.7034749887" lon="18.3373423013">
        <ele>53.4</ele>
        <time>2012-09-16T13:47:48Z</time>
      </trkpt>
      <trkpt lat="59.7034593146" lon="18.3372665289">
        <ele>53.8</ele>
        <time>2012-09-16T13:47:49Z</time>
      </trkpt>
      <trkpt lat="59.7034482505" lon="18.3371851406">
        <ele>54.2</ele>
        <time>2012-09-16T13:47:50Z</time>
      </trkpt>
      <trkpt lat="59.7034236915" lon="18.3371067699">
        <ele>54.6</ele>
        <time>2012-09-16T13:47:51Z</time>
      </trkpt>
      <trkpt lat="59.7033306524" lon="18.3368849848">
        <ele>54.6</ele>
        <time>2012-09-16T13:47:54Z</time>
      </trkpt>
      <trkpt lat="59.7032485936" lon="18.3367701528">
        <ele>54.6</ele>
        <time>2012-09-16T13:47:56Z</time>
      </trkpt>
      <trkpt lat="59.7031452448" lon="18.3366844059">
        <ele>54.6</ele>
        <time>2012-09-16T13:47:58Z</time>
      </trkpt>
      <trkpt lat="59.7030916006" lon="18.3366606852">
        <ele>54.6</ele>
        <time>2012-09-16T13:47:59Z</time>
      </trkpt>
      <trkpt lat="59.7030374536" lon="18.3366388084">
        <ele>55</ele>
        <time>2012-09-16T13:48:00Z</time>
      </trkpt>
      <trkpt lat="59.7029815463" lon="18.3366109805">
        <ele>55.6</ele>
        <time>2012-09-16T13:48:01Z</time>
      </trkpt>
      <trkpt lat="59.7029229568" lon="18.3365919536">
        <ele>56</ele>
        <time>2012-09-16T13:48:02Z</time>
      </trkpt>
      <trkpt lat="59.7028626071" lon="18.3365633713">
        <ele>56.8</ele>
        <time>2012-09-16T13:48:03Z</time>
      </trkpt>
      <trkpt lat="59.7027429974" lon="18.3364595196">
        <ele>56.8</ele>
        <time>2012-09-16T13:48:05Z</time>
      </trkpt>
      <trkpt lat="59.7026855814" lon="18.3363891954">
        <ele>56.8</ele>
        <time>2012-09-16T13:48:06Z</time>
      </trkpt>
      <trkpt lat="59.7026307638" lon="18.3363081424">
        <ele>56.4</ele>
        <time>2012-09-16T13:48:07Z</time>
      </trkpt>
      <trkpt lat="59.7025813106" lon="18.3362146004">
        <ele>56</ele>
        <time>2012-09-16T13:48:08Z</time>
      </trkpt>
      <trkpt lat="59.702534791" lon="18.336117538">
        <ele>55.6</ele>
        <time>2012-09-16T13:48:09Z</time>
      </trkpt>
      <trkpt lat="59.7024850864" lon="18.3360251695">
        <ele>55.2</ele>
        <time>2012-09-16T13:48:10Z</time>
      </trkpt>
      <trkpt lat="59.7024352141" lon="18.3359370757">
        <ele>54.6</ele>
        <time>2012-09-16T13:48:11Z</time>
      </trkpt>
      <trkpt lat="59.7023278419" lon="18.3357936614">
        <ele>55.2</ele>
        <time>2012-09-16T13:48:13Z</time>
      </trkpt>
      <trkpt lat="59.7022736948" lon="18.3357348205">
        <ele>55.6</ele>
        <time>2012-09-16T13:48:14Z</time>
      </trkpt>
      <trkpt lat="59.7022204698" lon="18.3356777397">
        <ele>56</ele>
        <time>2012-09-16T13:48:15Z</time>
      </trkpt>
      <trkpt lat="59.7021689211" lon="18.3356163842">
        <ele>56.4</ele>
        <time>2012-09-16T13:48:16Z</time>
      </trkpt>
      <trkpt lat="59.7021181268" lon="18.3355515083">
        <ele>56.8</ele>
        <time>2012-09-16T13:48:17Z</time>
      </trkpt>
      <trkpt lat="59.7020723616" lon="18.335473389">
        <ele>56.8</ele>
        <time>2012-09-16T13:48:18Z</time>
      </trkpt>
      <trkpt lat="59.701983262" lon="18.3352271288">
        <ele>56.8</ele>
        <time>2012-09-16T13:48:21Z</time>
      </trkpt>
      <trkpt lat="59.7019212359" lon="18.3347620172">
        <ele>56.8</ele>
        <time>2012-09-16T13:48:25Z</time>
      </trkpt>
      <trkpt lat="59.7018913126" lon="18.3346471851">
        <ele>56.8</ele>
        <time>2012-09-16T13:48:26Z</time>
      </trkpt>
      <trkpt lat="59.7018520853" lon="18.334548614">
        <ele>56.8</ele>
        <time>2012-09-16T13:48:27Z</time>
      </trkpt>
      <trkpt lat="59.70175913" lon="18.3344008411">
        <ele>56.8</ele>
        <time>2012-09-16T13:48:29Z</time>
      </trkpt>
      <trkpt lat="59.7015308909" lon="18.3341855101">
        <ele>56.8</ele>
        <time>2012-09-16T13:48:33Z</time>
      </trkpt>
      <trkpt lat="59.7014705412" lon="18.3341337099">
        <ele>56.8</ele>
        <time>2012-09-16T13:48:34Z</time>
      </trkpt>
      <trkpt lat="59.7012196709" lon="18.3339048003">
        <ele>56.8</ele>
        <time>2012-09-16T13:48:38Z</time>
      </trkpt>
      <trkpt lat="59.7011227762" lon="18.3337431134">
        <ele>56.8</ele>
        <time>2012-09-16T13:48:40Z</time>
      </trkpt>
      <trkpt lat="59.7010639352" lon="18.3335860366">
        <ele>56.8</ele>
        <time>2012-09-16T13:48:42Z</time>
      </trkpt>
      <trkpt lat="59.7010174157" lon="18.3333737231">
        <ele>56.8</ele>
        <time>2012-09-16T13:48:44Z</time>
      </trkpt>
      <trkpt lat="59.7009719858" lon="18.3331595655">
        <ele>56.8</ele>
        <time>2012-09-16T13:48:46Z</time>
      </trkpt>
      <trkpt lat="59.70089965" lon="18.3329482578">
        <ele>56.8</ele>
        <time>2012-09-16T13:48:48Z</time>
      </trkpt>
      <trkpt lat="59.7008248834" lon="18.3327594974">
        <ele>57.4</ele>
        <time>2012-09-16T13:48:50Z</time>
      </trkpt>
      <trkpt lat="59.7007821357" lon="18.33266847">
        <ele>58</ele>
        <time>2012-09-16T13:48:51Z</time>
      </trkpt>
      <trkpt lat="59.7007379631" lon="18.3325648697">
        <ele>58.6</ele>
        <time>2012-09-16T13:48:52Z</time>
      </trkpt>
      <trkpt lat="59.700701418" lon="18.3324677235">
        <ele>59.6</ele>
        <time>2012-09-16T13:48:53Z</time>
      </trkpt>
      <trkpt lat="59.7006305072" lon="18.332268821">
        <ele>59.6</ele>
        <time>2012-09-16T13:48:55Z</time>
      </trkpt>
      <trkpt lat="59.7005362946" lon="18.3319809866">
        <ele>60.2</ele>
        <time>2012-09-16T13:48:58Z</time>
      </trkpt>
      <trkpt lat="59.7004916191" lon="18.3318995145">
        <ele>60.6</ele>
        <time>2012-09-16T13:48:59Z</time>
      </trkpt>
      <trkpt lat="59.700449039" lon="18.3318253347">
        <ele>61.2</ele>
        <time>2012-09-16T13:49:00Z</time>
      </trkpt>
      <trkpt lat="59.7004035253" lon="18.3317554296">
        <ele>61.6</ele>
        <time>2012-09-16T13:49:01Z</time>
      </trkpt>
      <trkpt lat="59.7003547427" lon="18.3316909728">
        <ele>62.2</ele>
        <time>2012-09-16T13:49:02Z</time>
      </trkpt>
      <trkpt lat="59.7002501365" lon="18.3315916473">
        <ele>62.2</ele>
        <time>2012-09-16T13:49:04Z</time>
      </trkpt>
      <trkpt lat="59.7001326223" lon="18.3315121031">
        <ele>62.2</ele>
        <time>2012-09-16T13:49:06Z</time>
      </trkpt>
      <trkpt lat="59.6998079913" lon="18.3312580477">
        <ele>62.2</ele>
        <time>2012-09-16T13:49:11Z</time>
      </trkpt>
      <trkpt lat="59.6996786586" lon="18.3311607338">
        <ele>61.6</ele>
        <time>2012-09-16T13:49:13Z</time>
      </trkpt>
      <trkpt lat="59.6996176384" lon="18.3311080117">
        <ele>61.2</ele>
        <time>2012-09-16T13:49:14Z</time>
      </trkpt>
      <trkpt lat="59.6995583783" lon="18.3310614921">
        <ele>60.8</ele>
        <time>2012-09-16T13:49:15Z</time>
      </trkpt>
      <trkpt lat="59.6994981125" lon="18.33101338">
        <ele>60.4</ele>
        <time>2012-09-16T13:49:16Z</time>
      </trkpt>
      <trkpt lat="59.6994366731" lon="18.3309670281">
        <ele>60</ele>
        <time>2012-09-16T13:49:17Z</time>
      </trkpt>
      <trkpt lat="59.6993102741" lon="18.3308744919">
        <ele>60</ele>
        <time>2012-09-16T13:49:19Z</time>
      </trkpt>
      <trkpt lat="59.6991286383" lon="18.3306956222">
        <ele>60</ele>
        <time>2012-09-16T13:49:22Z</time>
      </trkpt>
      <trkpt lat="59.6987809571" lon="18.3302373837">
        <ele>60</ele>
        <time>2012-09-16T13:49:28Z</time>
      </trkpt>
      <trkpt lat="59.698633268" lon="18.3299705878">
        <ele>60</ele>
        <time>2012-09-16T13:49:31Z</time>
      </trkpt>
      <trkpt lat="59.6985566575" lon="18.3297552568">
        <ele>60</ele>
        <time>2012-09-16T13:49:33Z</time>
      </trkpt>
      <trkpt lat="59.6985231299" lon="18.32963615">
        <ele>59.6</ele>
        <time>2012-09-16T13:49:34Z</time>
      </trkpt>
      <trkpt lat="59.6984919492" lon="18.3295110921">
        <ele>59.2</ele>
        <time>2012-09-16T13:49:35Z</time>
      </trkpt>
      <trkpt lat="59.6984564938" lon="18.3293822623">
        <ele>58.8</ele>
        <time>2012-09-16T13:49:36Z</time>
      </trkpt>
      <trkpt lat="59.6984181885" lon="18.3292646642">
        <ele>58.4</ele>
        <time>2012-09-16T13:49:37Z</time>
      </trkpt>
      <trkpt lat="59.6983784583" lon="18.3291518439">
        <ele>58</ele>
        <time>2012-09-16T13:49:38Z</time>
      </trkpt>
      <trkpt lat="59.6981924639" lon="18.3287211818">
        <ele>58</ele>
        <time>2012-09-16T13:49:42Z</time>
      </trkpt>
      <trkpt lat="59.6981367243" lon="18.3286288133">
        <ele>58</ele>
        <time>2012-09-16T13:49:43Z</time>
      </trkpt>
      <trkpt lat="59.6978714371" lon="18.3284268095">
        <ele>58</ele>
        <time>2012-09-16T13:49:47Z</time>
      </trkpt>
      <trkpt lat="59.6977244186" lon="18.328453464">
        <ele>58</ele>
        <time>2012-09-16T13:49:49Z</time>
      </trkpt>
      <trkpt lat="59.6975701078" lon="18.3284754245">
        <ele>58</ele>
        <time>2012-09-16T13:49:51Z</time>
      </trkpt>
      <trkpt lat="59.6974907312" lon="18.3284727423">
        <ele>58</ele>
        <time>2012-09-16T13:49:52Z</time>
      </trkpt>
      <trkpt lat="59.6974074152" lon="18.3284531287">
        <ele>58</ele>
        <time>2012-09-16T13:49:53Z</time>
      </trkpt>
      <trkpt lat="59.6972484105" lon="18.3283522106">
        <ele>58</ele>
        <time>2012-09-16T13:49:55Z</time>
      </trkpt>
      <trkpt lat="59.6969956124" lon="18.32805239">
        <ele>58</ele>
        <time>2012-09-16T13:49:59Z</time>
      </trkpt>
      <trkpt lat="59.6967099573" lon="18.3275949059">
        <ele>58</ele>
        <time>2012-09-16T13:50:05Z</time>
      </trkpt>
      <trkpt lat="59.6966562293" lon="18.3275218996">
        <ele>58</ele>
        <time>2012-09-16T13:50:06Z</time>
      </trkpt>
      <trkpt lat="59.6966018307" lon="18.3274520784">
        <ele>58.8</ele>
        <time>2012-09-16T13:50:07Z</time>
      </trkpt>
      <trkpt lat="59.6965455044" lon="18.3273865319">
        <ele>59.2</ele>
        <time>2012-09-16T13:50:08Z</time>
      </trkpt>
      <trkpt lat="59.6964880045" lon="18.3273266013">
        <ele>59.6</ele>
        <time>2012-09-16T13:50:09Z</time>
      </trkpt>
      <trkpt lat="59.6964322649" lon="18.3272658325">
        <ele>60.2</ele>
        <time>2012-09-16T13:50:10Z</time>
      </trkpt>
      <trkpt lat="59.6963755194" lon="18.327203555">
        <ele>60.6</ele>
        <time>2012-09-16T13:50:11Z</time>
      </trkpt>
      <trkpt lat="59.6963230488" lon="18.3271432892">
        <ele>61</ele>
        <time>2012-09-16T13:50:12Z</time>
      </trkpt>
      <trkpt lat="59.696265968" lon="18.3270772398">
        <ele>61.6</ele>
        <time>2012-09-16T13:50:13Z</time>
      </trkpt>
      <trkpt lat="59.6962124077" lon="18.3270133697">
        <ele>62</ele>
        <time>2012-09-16T13:50:14Z</time>
      </trkpt>
      <trkpt lat="59.6959945621" lon="18.3267185783">
        <ele>62</ele>
        <time>2012-09-16T13:50:18Z</time>
      </trkpt>
      <trkpt lat="59.6957864395" lon="18.3262743376">
        <ele>62</ele>
        <time>2012-09-16T13:50:22Z</time>
      </trkpt>
      <trkpt lat="59.6956450369" lon="18.3258715873">
        <ele>61.6</ele>
        <time>2012-09-16T13:50:25Z</time>
      </trkpt>
      <trkpt lat="59.6955953322" lon="18.3257306876">
        <ele>61.2</ele>
        <time>2012-09-16T13:50:26Z</time>
      </trkpt>
      <trkpt lat="59.6955356531" lon="18.3255961581">
        <ele>60.6</ele>
        <time>2012-09-16T13:50:27Z</time>
      </trkpt>
      <trkpt lat="59.6954696037" lon="18.3254771351">
        <ele>60.2</ele>
        <time>2012-09-16T13:50:28Z</time>
      </trkpt>
      <trkpt lat="59.6953956753" lon="18.3253731995">
        <ele>59.8</ele>
        <time>2012-09-16T13:50:29Z</time>
      </trkpt>
      <trkpt lat="59.6953107667" lon="18.3252880394">
        <ele>59.8</ele>
        <time>2012-09-16T13:50:30Z</time>
      </trkpt>
      <trkpt lat="59.6951369261" lon="18.3251836848">
        <ele>59.8</ele>
        <time>2012-09-16T13:50:32Z</time>
      </trkpt>
      <trkpt lat="59.6949553741" lon="18.3251073257">
        <ele>59.8</ele>
        <time>2012-09-16T13:50:34Z</time>
      </trkpt>
      <trkpt lat="59.6946940265" lon="18.3249596366">
        <ele>59.4</ele>
        <time>2012-09-16T13:50:37Z</time>
      </trkpt>
      <trkpt lat="59.6946180865" lon="18.3248813496">
        <ele>59</ele>
        <time>2012-09-16T13:50:38Z</time>
      </trkpt>
      <trkpt lat="59.6945528753" lon="18.324784371">
        <ele>58.6</ele>
        <time>2012-09-16T13:50:39Z</time>
      </trkpt>
      <trkpt lat="59.6945015781" lon="18.3246683655">
        <ele>58.2</ele>
        <time>2012-09-16T13:50:40Z</time>
      </trkpt>
      <trkpt lat="59.6944674637" lon="18.3245445649">
        <ele>57.8</ele>
        <time>2012-09-16T13:50:41Z</time>
      </trkpt>
      <trkpt lat="59.694435864" lon="18.3241405573">
        <ele>57.8</ele>
        <time>2012-09-16T13:50:44Z</time>
      </trkpt>
      <trkpt lat="59.6944045995" lon="18.3234891999">
        <ele>57.8</ele>
        <time>2012-09-16T13:50:49Z</time>
      </trkpt>
      <trkpt lat="59.694406695" lon="18.323350228">
        <ele>57.8</ele>
        <time>2012-09-16T13:50:50Z</time>
      </trkpt>
      <trkpt lat="59.6944381271" lon="18.3230260161">
        <ele>57.8</ele>
        <time>2012-09-16T13:50:52Z</time>
      </trkpt>
      <trkpt lat="59.6945009913" lon="18.3225107807">
        <ele>57</ele>
        <time>2012-09-16T13:50:55Z</time>
      </trkpt>
      <trkpt lat="59.6944602553" lon="18.3223719764">
        <ele>55.8</ele>
        <time>2012-09-16T13:50:56Z</time>
      </trkpt>
      <trkpt lat="59.6943933677" lon="18.3222831283">
        <ele>55</ele>
        <time>2012-09-16T13:50:57Z</time>
      </trkpt>
      <trkpt lat="59.6943122309" lon="18.322251277">
        <ele>54.4</ele>
        <time>2012-09-16T13:50:58Z</time>
      </trkpt>
      <trkpt lat="59.6942235504" lon="18.3222480919">
        <ele>54</ele>
        <time>2012-09-16T13:50:59Z</time>
      </trkpt>
      <trkpt lat="59.6941291702" lon="18.3222559709">
        <ele>53.4</ele>
        <time>2012-09-16T13:51:00Z</time>
      </trkpt>
      <trkpt lat="59.6940379752" lon="18.3222547974">
        <ele>53</ele>
        <time>2012-09-16T13:51:01Z</time>
      </trkpt>
      <trkpt lat="59.6939456905" lon="18.3222474214">
        <ele>52.6</ele>
        <time>2012-09-16T13:51:02Z</time>
      </trkpt>
      <trkpt lat="59.6938545792" lon="18.3222410511">
        <ele>52</ele>
        <time>2012-09-16T13:51:03Z</time>
      </trkpt>
      <trkpt lat="59.6937658149" lon="18.3222365249">
        <ele>52</ele>
        <time>2012-09-16T13:51:04Z</time>
      </trkpt>
      <trkpt lat="59.6932622303" lon="18.3221764267">
        <ele>52</ele>
        <time>2012-09-16T13:51:10Z</time>
      </trkpt>
      <trkpt lat="59.6929357553" lon="18.3221316673">
        <ele>51.6</ele>
        <time>2012-09-16T13:51:14Z</time>
      </trkpt>
      <trkpt lat="59.6928617432" lon="18.3220565655">
        <ele>51.2</ele>
        <time>2012-09-16T13:51:15Z</time>
      </trkpt>
      <trkpt lat="59.6928009744" lon="18.3219332678">
        <ele>50.6</ele>
        <time>2012-09-16T13:51:16Z</time>
      </trkpt>
      <trkpt lat="59.6927656866" lon="18.3217903564">
        <ele>50.2</ele>
        <time>2012-09-16T13:51:17Z</time>
      </trkpt>
      <trkpt lat="59.692736769" lon="18.321639566">
        <ele>49.8</ele>
        <time>2012-09-16T13:51:18Z</time>
      </trkpt>
      <trkpt lat="59.6927060074" lon="18.3214908711">
        <ele>50.2</ele>
        <time>2012-09-16T13:51:19Z</time>
      </trkpt>
      <trkpt lat="59.6926718093" lon="18.3213444393">
        <ele>50.6</ele>
        <time>2012-09-16T13:51:20Z</time>
      </trkpt>
      <trkpt lat="59.6926394552" lon="18.3211959958">
        <ele>51.4</ele>
        <time>2012-09-16T13:51:21Z</time>
      </trkpt>
      <trkpt lat="59.69261498" lon="18.3210399249">
        <ele>51.8</ele>
        <time>2012-09-16T13:51:22Z</time>
      </trkpt>
      <trkpt lat="59.6926060114" lon="18.3208773998">
        <ele>51.4</ele>
        <time>2012-09-16T13:51:23Z</time>
      </trkpt>
      <trkpt lat="59.6926148962" lon="18.3207089236">
        <ele>51</ele>
        <time>2012-09-16T13:51:24Z</time>
      </trkpt>
      <trkpt lat="59.6926370244" lon="18.3205612345">
        <ele>50.2</ele>
        <time>2012-09-16T13:51:25Z</time>
      </trkpt>
      <trkpt lat="59.6926679536" lon="18.3204261183">
        <ele>49.6</ele>
        <time>2012-09-16T13:51:26Z</time>
      </trkpt>
      <trkpt lat="59.6927037443" lon="18.3203148067">
        <ele>48.8</ele>
        <time>2012-09-16T13:51:27Z</time>
      </trkpt>
      <trkpt lat="59.6927412952" lon="18.3202171576">
        <ele>48.2</ele>
        <time>2012-09-16T13:51:28Z</time>
      </trkpt>
      <trkpt lat="59.6927820313" lon="18.320122023">
        <ele>47.6</ele>
        <time>2012-09-16T13:51:29Z</time>
      </trkpt>
      <trkpt lat="59.6929052452" lon="18.3198664589">
        <ele>47.6</ele>
        <time>2012-09-16T13:51:32Z</time>
      </trkpt>
      <trkpt lat="59.6929417903" lon="18.3197843162">
        <ele>47.6</ele>
        <time>2012-09-16T13:51:33Z</time>
      </trkpt>
      <trkpt lat="59.6930645851" lon="18.3195012595">
        <ele>47.6</ele>
        <time>2012-09-16T13:51:37Z</time>
      </trkpt>
      <trkpt lat="59.6930959334" lon="18.3194425024">
        <ele>47.6</ele>
        <time>2012-09-16T13:51:38Z</time>
      </trkpt>
      <trkpt lat="59.6931251024" lon="18.319372262">
        <ele>48</ele>
        <time>2012-09-16T13:51:39Z</time>
      </trkpt>
      <trkpt lat="59.6931495776" lon="18.3192985013">
        <ele>48.4</ele>
        <time>2012-09-16T13:51:40Z</time>
      </trkpt>
      <trkpt lat="59.6931732146" lon="18.319223148">
        <ele>48.8</ele>
        <time>2012-09-16T13:51:41Z</time>
      </trkpt>
      <trkpt lat="59.6931932473" lon="18.31914352">
        <ele>49.4</ele>
        <time>2012-09-16T13:51:42Z</time>
      </trkpt>
      <trkpt lat="59.6932053172" lon="18.3190628861">
        <ele>50</ele>
        <time>2012-09-16T13:51:43Z</time>
      </trkpt>
      <trkpt lat="59.6932111846" lon="18.3189745409">
        <ele>50.6</ele>
        <time>2012-09-16T13:51:44Z</time>
      </trkpt>
      <trkpt lat="59.6932117713" lon="18.3188819209">
        <ele>51.8</ele>
        <time>2012-09-16T13:51:45Z</time>
      </trkpt>
      <trkpt lat="59.6932094244" lon="18.3187898876">
        <ele>52.4</ele>
        <time>2012-09-16T13:51:46Z</time>
      </trkpt>
      <trkpt lat="59.6932074127" lon="18.3186944178">
        <ele>53</ele>
        <time>2012-09-16T13:51:47Z</time>
      </trkpt>
      <trkpt lat="59.6932064069" lon="18.3185951761">
        <ele>53.4</ele>
        <time>2012-09-16T13:51:48Z</time>
      </trkpt>
      <trkpt lat="59.6932069936" lon="18.3184890612">
        <ele>54</ele>
        <time>2012-09-16T13:51:49Z</time>
      </trkpt>
      <trkpt lat="59.6932089214" lon="18.3183829464">
        <ele>54.4</ele>
        <time>2012-09-16T13:51:50Z</time>
      </trkpt>
      <trkpt lat="59.69321328" lon="18.3182729758">
        <ele>55</ele>
        <time>2012-09-16T13:51:51Z</time>
      </trkpt>
      <trkpt lat="59.6932261882" lon="18.3181603231">
        <ele>55</ele>
        <time>2012-09-16T13:51:52Z</time>
      </trkpt>
      <trkpt lat="59.6932917346" lon="18.3178279808">
        <ele>55</ele>
        <time>2012-09-16T13:51:55Z</time>
      </trkpt>
      <trkpt lat="59.6933903896" lon="18.3175409845">
        <ele>55</ele>
        <time>2012-09-16T13:51:58Z</time>
      </trkpt>
      <trkpt lat="59.69346524" lon="18.3173322752">
        <ele>55</ele>
        <time>2012-09-16T13:52:00Z</time>
      </trkpt>
      <trkpt lat="59.6934996057" lon="18.3172106538">
        <ele>55</ele>
        <time>2012-09-16T13:52:01Z</time>
      </trkpt>
      <trkpt lat="59.6935535014" lon="18.3169629687">
        <ele>55</ele>
        <time>2012-09-16T13:52:03Z</time>
      </trkpt>
      <trkpt lat="59.6935769707" lon="18.3168444486">
        <ele>55</ele>
        <time>2012-09-16T13:52:04Z</time>
      </trkpt>
      <trkpt lat="59.6936200536" lon="18.316627106">
        <ele>55</ele>
        <time>2012-09-16T13:52:06Z</time>
      </trkpt>
      <trkpt lat="59.6936722729" lon="18.3163241003">
        <ele>55</ele>
        <time>2012-09-16T13:52:09Z</time>
      </trkpt>
      <trkpt lat="59.6938215545" lon="18.3155373751">
        <ele>55</ele>
        <time>2012-09-16T13:52:17Z</time>
      </trkpt>
      <trkpt lat="59.6938753663" lon="18.3152460203">
        <ele>55.4</ele>
        <time>2012-09-16T13:52:20Z</time>
      </trkpt>
      <trkpt lat="59.6938987518" lon="18.3151494608">
        <ele>55.8</ele>
        <time>2012-09-16T13:52:21Z</time>
      </trkpt>
      <trkpt lat="59.6939270826" lon="18.3150496324">
        <ele>56.2</ele>
        <time>2012-09-16T13:52:22Z</time>
      </trkpt>
      <trkpt lat="59.6939607779" lon="18.3149415897">
        <ele>56.6</ele>
        <time>2012-09-16T13:52:23Z</time>
      </trkpt>
      <trkpt lat="59.693994054" lon="18.3148339661">
        <ele>57</ele>
        <time>2012-09-16T13:52:24Z</time>
      </trkpt>
      <trkpt lat="59.694023223" lon="18.3147158651">
        <ele>57</ele>
        <time>2012-09-16T13:52:25Z</time>
      </trkpt>
      <trkpt lat="59.6940552419" lon="18.3144396815">
        <ele>57</ele>
        <time>2012-09-16T13:52:27Z</time>
      </trkpt>
      <trkpt lat="59.6940643782" lon="18.3141014719">
        <ele>57</ele>
        <time>2012-09-16T13:52:29Z</time>
      </trkpt>
      <trkpt lat="59.6940662222" lon="18.313909694">
        <ele>57</ele>
        <time>2012-09-16T13:52:30Z</time>
      </trkpt>
      <trkpt lat="59.694060271" lon="18.3136990568">
        <ele>56.4</ele>
        <time>2012-09-16T13:52:31Z</time>
      </trkpt>
      <trkpt lat="59.6940349577" lon="18.3135114699">
        <ele>55.8</ele>
        <time>2012-09-16T13:52:32Z</time>
      </trkpt>
      <trkpt lat="59.6939878514" lon="18.31335213">
        <ele>55.2</ele>
        <time>2012-09-16T13:52:33Z</time>
      </trkpt>
      <trkpt lat="59.6939293458" lon="18.3132324365">
        <ele>54.4</ele>
        <time>2012-09-16T13:52:34Z</time>
      </trkpt>
      <trkpt lat="59.69386162" lon="18.3131381401">
        <ele>53</ele>
        <time>2012-09-16T13:52:35Z</time>
      </trkpt>
      <trkpt lat="59.6937951515" lon="18.3130556622">
        <ele>52.2</ele>
        <time>2012-09-16T13:52:36Z</time>
      </trkpt>
      <trkpt lat="59.6937349695" lon="18.3129768723">
        <ele>52.6</ele>
        <time>2012-09-16T13:52:37Z</time>
      </trkpt>
      <trkpt lat="59.6936815768" lon="18.3128919637">
        <ele>53.2</ele>
        <time>2012-09-16T13:52:38Z</time>
      </trkpt>
      <trkpt lat="59.6936331294" lon="18.3127950689">
        <ele>53.6</ele>
        <time>2012-09-16T13:52:39Z</time>
      </trkpt>
      <trkpt lat="59.6935936507" lon="18.3126915525">
        <ele>54</ele>
        <time>2012-09-16T13:52:40Z</time>
      </trkpt>
      <trkpt lat="59.6935634758" lon="18.3125787321">
        <ele>54.4</ele>
        <time>2012-09-16T13:52:41Z</time>
      </trkpt>
      <trkpt lat="59.6935383301" lon="18.312461134">
        <ele>54</ele>
        <time>2012-09-16T13:52:42Z</time>
      </trkpt>
      <trkpt lat="59.6935141902" lon="18.3123457153">
        <ele>53.6</ele>
        <time>2012-09-16T13:52:43Z</time>
      </trkpt>
      <trkpt lat="59.6934921458" lon="18.3122375049">
        <ele>53.2</ele>
        <time>2012-09-16T13:52:44Z</time>
      </trkpt>
      <trkpt lat="59.6934730351" lon="18.3121412807">
        <ele>52.8</ele>
        <time>2012-09-16T13:52:45Z</time>
      </trkpt>
      <trkpt lat="59.6934523318" lon="18.3120450565">
        <ele>52.4</ele>
        <time>2012-09-16T13:52:46Z</time>
      </trkpt>
      <trkpt lat="59.6933998611" lon="18.3117581441">
        <ele>52.4</ele>
        <time>2012-09-16T13:52:49Z</time>
      </trkpt>
      <trkpt lat="59.6933553532" lon="18.3114237063">
        <ele>52.4</ele>
        <time>2012-09-16T13:52:53Z</time>
      </trkpt>
      <trkpt lat="59.6933520843" lon="18.3113341038">
        <ele>52.4</ele>
        <time>2012-09-16T13:52:54Z</time>
      </trkpt>
      <trkpt lat="59.6933520843" lon="18.3112445012">
        <ele>52.8</ele>
        <time>2012-09-16T13:52:55Z</time>
      </trkpt>
      <trkpt lat="59.6933483963" lon="18.3111529709">
        <ele>53.4</ele>
        <time>2012-09-16T13:52:56Z</time>
      </trkpt>
      <trkpt lat="59.6933397629" lon="18.3110610215">
        <ele>53.8</ele>
        <time>2012-09-16T13:52:57Z</time>
      </trkpt>
      <trkpt lat="59.6933302075" lon="18.310962115">
        <ele>54.2</ele>
        <time>2012-09-16T13:52:58Z</time>
      </trkpt>
      <trkpt lat="59.6933228315" lon="18.3108566707">
        <ele>54.6</ele>
        <time>2012-09-16T13:52:59Z</time>
      </trkpt>
      <trkpt lat="59.6933063191" lon="18.3105392482">
        <ele>55</ele>
        <time>2012-09-16T13:53:02Z</time>
      </trkpt>
      <trkpt lat="59.6932965123" lon="18.3104357317">
        <ele>55.4</ele>
        <time>2012-09-16T13:53:03Z</time>
      </trkpt>
      <trkpt lat="59.6932876275" lon="18.310337412">
        <ele>55.8</ele>
        <time>2012-09-16T13:53:04Z</time>
      </trkpt>
      <trkpt lat="59.6932781559" lon="18.3102435347">
        <ele>56.2</ele>
        <time>2012-09-16T13:53:05Z</time>
      </trkpt>
      <trkpt lat="59.6932680977" lon="18.3101510824">
        <ele>56.6</ele>
        <time>2012-09-16T13:53:06Z</time>
      </trkpt>
      <trkpt lat="59.6932553572" lon="18.3100638268">
        <ele>56.6</ele>
        <time>2012-09-16T13:53:07Z</time>
      </trkpt>
      <trkpt lat="59.6931963486" lon="18.3098285469">
        <ele>56.6</ele>
        <time>2012-09-16T13:53:10Z</time>
      </trkpt>
      <trkpt lat="59.6931699456" lon="18.3097571331">
        <ele>57.2</ele>
        <time>2012-09-16T13:53:11Z</time>
      </trkpt>
      <trkpt lat="59.6931399384" lon="18.3096874795">
        <ele>57.6</ele>
        <time>2012-09-16T13:53:12Z</time>
      </trkpt>
      <trkpt lat="59.693107249" lon="18.3096174906">
        <ele>58</ele>
        <time>2012-09-16T13:53:13Z</time>
      </trkpt>
      <trkpt lat="59.6930709554" lon="18.3095440652">
        <ele>58.6</ele>
        <time>2012-09-16T13:53:14Z</time>
      </trkpt>
      <trkpt lat="59.6930347456" lon="18.3094687957">
        <ele>59</ele>
        <time>2012-09-16T13:53:15Z</time>
      </trkpt>
      <trkpt lat="59.6929992901" lon="18.3093928557">
        <ele>59</ele>
        <time>2012-09-16T13:53:16Z</time>
      </trkpt>
      <trkpt lat="59.6928948517" lon="18.3091381298">
        <ele>59</ele>
        <time>2012-09-16T13:53:19Z</time>
      </trkpt>
      <trkpt lat="59.6928406208" lon="18.3089409875">
        <ele>59</ele>
        <time>2012-09-16T13:53:21Z</time>
      </trkpt>
      <trkpt lat="59.6927842944" lon="18.3084325414">
        <ele>59</ele>
        <time>2012-09-16T13:53:25Z</time>
      </trkpt>
      <trkpt lat="59.6927642617" lon="18.3077880571">
        <ele>59</ele>
        <time>2012-09-16T13:53:29Z</time>
      </trkpt>
      <trkpt lat="59.6927423011" lon="18.3067680637">
        <ele>58.6</ele>
        <time>2012-09-16T13:53:35Z</time>
      </trkpt>
      <trkpt lat="59.6927382778" lon="18.3065897807">
        <ele>58</ele>
        <time>2012-09-16T13:53:36Z</time>
      </trkpt>
      <trkpt lat="59.6927319913" lon="18.3064140123">
        <ele>57.6</ele>
        <time>2012-09-16T13:53:37Z</time>
      </trkpt>
      <trkpt lat="59.692722436" lon="18.3062458714">
        <ele>57</ele>
        <time>2012-09-16T13:53:38Z</time>
      </trkpt>
      <trkpt lat="59.6927139703" lon="18.3060758026">
        <ele>56.6</ele>
        <time>2012-09-16T13:53:39Z</time>
      </trkpt>
      <trkpt lat="59.692703912" lon="18.3059219109">
        <ele>56.6</ele>
        <time>2012-09-16T13:53:40Z</time>
      </trkpt>
      <trkpt lat="59.6926549617" lon="18.3053463258">
        <ele>56</ele>
        <time>2012-09-16T13:53:44Z</time>
      </trkpt>
      <trkpt lat="59.6926465798" lon="18.3052032468">
        <ele>55.6</ele>
        <time>2012-09-16T13:53:45Z</time>
      </trkpt>
      <trkpt lat="59.6926437299" lon="18.305054971">
        <ele>55</ele>
        <time>2012-09-16T13:53:46Z</time>
      </trkpt>
      <trkpt lat="59.6926473341" lon="18.3049015822">
        <ele>54.6</ele>
        <time>2012-09-16T13:53:47Z</time>
      </trkpt>
      <trkpt lat="59.6926532853" lon="18.3047381352">
        <ele>54</ele>
        <time>2012-09-16T13:53:48Z</time>
      </trkpt>
      <trkpt lat="59.6926609966" lon="18.3045794658">
        <ele>53.6</ele>
        <time>2012-09-16T13:53:49Z</time>
      </trkpt>
      <trkpt lat="59.6926685404" lon="18.3044306871">
        <ele>53</ele>
        <time>2012-09-16T13:53:50Z</time>
      </trkpt>
      <trkpt lat="59.692674743" lon="18.3042983369">
        <ele>52.6</ele>
        <time>2012-09-16T13:53:51Z</time>
      </trkpt>
      <trkpt lat="59.6926820352" lon="18.3041669925">
        <ele>52.2</ele>
        <time>2012-09-16T13:53:52Z</time>
      </trkpt>
      <trkpt lat="59.6926864776" lon="18.3040369054">
        <ele>51.6</ele>
        <time>2012-09-16T13:53:53Z</time>
      </trkpt>
      <trkpt lat="59.6926870644" lon="18.3037915672">
        <ele>51.6</ele>
        <time>2012-09-16T13:53:55Z</time>
      </trkpt>
      <trkpt lat="59.6926484238" lon="18.303187819">
        <ele>51.6</ele>
        <time>2012-09-16T13:54:00Z</time>
      </trkpt>
      <trkpt lat="59.6926402095" lon="18.3030692151">
        <ele>52.2</ele>
        <time>2012-09-16T13:54:01Z</time>
      </trkpt>
      <trkpt lat="59.6926318276" lon="18.302946085">
        <ele>52.6</ele>
        <time>2012-09-16T13:54:02Z</time>
      </trkpt>
      <trkpt lat="59.6926241163" lon="18.302828906">
        <ele>53.2</ele>
        <time>2012-09-16T13:54:03Z</time>
      </trkpt>
      <trkpt lat="59.6926179137" lon="18.3027120623">
        <ele>53.6</ele>
        <time>2012-09-16T13:54:04Z</time>
      </trkpt>
      <trkpt lat="59.692612214" lon="18.3025966436">
        <ele>54</ele>
        <time>2012-09-16T13:54:05Z</time>
      </trkpt>
      <trkpt lat="59.6925750822" lon="18.3021296879">
        <ele>54</ele>
        <time>2012-09-16T13:54:09Z</time>
      </trkpt>
      <trkpt lat="59.6925567258" lon="18.3017648238">
        <ele>54</ele>
        <time>2012-09-16T13:54:12Z</time>
      </trkpt>
      <trkpt lat="59.6925211866" lon="18.3015282866">
        <ele>54</ele>
        <time>2012-09-16T13:54:14Z</time>
      </trkpt>
      <trkpt lat="59.6924090367" lon="18.3012333275">
        <ele>54</ele>
        <time>2012-09-16T13:54:17Z</time>
      </trkpt>
      <trkpt lat="59.6922979766" lon="18.3011267098">
        <ele>54</ele>
        <time>2012-09-16T13:54:19Z</time>
      </trkpt>
      <trkpt lat="59.6922332683" lon="18.3010807769">
        <ele>54.6</ele>
        <time>2012-09-16T13:54:20Z</time>
      </trkpt>
      <trkpt lat="59.6921707393" lon="18.3010329163">
        <ele>55</ele>
        <time>2012-09-16T13:54:21Z</time>
      </trkpt>
      <trkpt lat="59.6921068692" lon="18.3009832116">
        <ele>55.4</ele>
        <time>2012-09-16T13:54:22Z</time>
      </trkpt>
      <trkpt lat="59.6920424124" lon="18.3009354348">
        <ele>56</ele>
        <time>2012-09-16T13:54:23Z</time>
      </trkpt>
      <trkpt lat="59.6919801349" lon="18.3008793599">
        <ele>56.4</ele>
        <time>2012-09-16T13:54:24Z</time>
      </trkpt>
      <trkpt lat="59.6918563342" lon="18.3007495243">
        <ele>56.4</ele>
        <time>2012-09-16T13:54:26Z</time>
      </trkpt>
      <trkpt lat="59.691582749" lon="18.3003527251">
        <ele>56.4</ele>
        <time>2012-09-16T13:54:31Z</time>
      </trkpt>
      <trkpt lat="59.6914828368" lon="18.3001547446">
        <ele>56.4</ele>
        <time>2012-09-16T13:54:33Z</time>
      </trkpt>
      <trkpt lat="59.6913464633" lon="18.2997923113">
        <ele>56.4</ele>
        <time>2012-09-16T13:54:36Z</time>
      </trkpt>
      <trkpt lat="59.6912090839" lon="18.2993349948">
        <ele>55.6</ele>
        <time>2012-09-16T13:54:39Z</time>
      </trkpt>
      <trkpt lat="59.6911658333" lon="18.2991606513">
        <ele>55.2</ele>
        <time>2012-09-16T13:54:40Z</time>
      </trkpt>
      <trkpt lat="59.6911240076" lon="18.2989775068">
        <ele>54.8</ele>
        <time>2012-09-16T13:54:41Z</time>
      </trkpt>
      <trkpt lat="59.6910907315" lon="18.2988001458">
        <ele>54.2</ele>
        <time>2012-09-16T13:54:42Z</time>
      </trkpt>
      <trkpt lat="59.6910237601" lon="18.298284156">
        <ele>54.2</ele>
        <time>2012-09-16T13:54:45Z</time>
      </trkpt>
      <trkpt lat="59.6910179766" lon="18.2981190326">
        <ele>53.8</ele>
        <time>2012-09-16T13:54:46Z</time>
      </trkpt>
      <trkpt lat="59.6910180604" lon="18.297961369">
        <ele>53.4</ele>
        <time>2012-09-16T13:54:47Z</time>
      </trkpt>
      <trkpt lat="59.691020575" lon="18.2978096566">
        <ele>53</ele>
        <time>2012-09-16T13:54:48Z</time>
      </trkpt>
      <trkpt lat="59.6910269452" lon="18.297645539">
        <ele>52.6</ele>
        <time>2012-09-16T13:54:49Z</time>
      </trkpt>
      <trkpt lat="59.6910390152" lon="18.2974753027">
        <ele>52.2</ele>
        <time>2012-09-16T13:54:50Z</time>
      </trkpt>
      <trkpt lat="59.6910763985" lon="18.2970693672">
        <ele>51.8</ele>
        <time>2012-09-16T13:54:52Z</time>
      </trkpt>
      <trkpt lat="59.6910966826" lon="18.2968386135">
        <ele>51.4</ele>
        <time>2012-09-16T13:54:53Z</time>
      </trkpt>
      <trkpt lat="59.6911179727" lon="18.2966092847">
        <ele>51</ele>
        <time>2012-09-16T13:54:54Z</time>
      </trkpt>
      <trkpt lat="59.6911445433" lon="18.2963862424">
        <ele>50.6</ele>
        <time>2012-09-16T13:54:55Z</time>
      </trkpt>
      <trkpt lat="59.6911772327" lon="18.2961621104">
        <ele>50</ele>
        <time>2012-09-16T13:54:56Z</time>
      </trkpt>
      <trkpt lat="59.6912167953" lon="18.2959669797">
        <ele>49.4</ele>
        <time>2012-09-16T13:54:57Z</time>
      </trkpt>
      <trkpt lat="59.6912600459" lon="18.2957852602">
        <ele>48.8</ele>
        <time>2012-09-16T13:54:58Z</time>
      </trkpt>
      <trkpt lat="59.6912970101" lon="18.2956266746">
        <ele>48.2</ele>
        <time>2012-09-16T13:54:59Z</time>
      </trkpt>
      <trkpt lat="59.6913293642" lon="18.295487116">
        <ele>47.4</ele>
        <time>2012-09-16T13:55:00Z</time>
      </trkpt>
      <trkpt lat="59.691422068" lon="18.2950292128">
        <ele>47.4</ele>
        <time>2012-09-16T13:55:04Z</time>
      </trkpt>
      <trkpt lat="59.6915560108" lon="18.2941155019">
        <ele>47.4</ele>
        <time>2012-09-16T13:55:12Z</time>
      </trkpt>
      <trkpt lat="59.691610074" lon="18.2935817425">
        <ele>47.4</ele>
        <time>2012-09-16T13:55:17Z</time>
      </trkpt>
      <trkpt lat="59.6916425958" lon="18.2932307923">
        <ele>48</ele>
        <time>2012-09-16T13:55:20Z</time>
      </trkpt>
      <trkpt lat="59.691655923" lon="18.2931131104">
        <ele>48.4</ele>
        <time>2012-09-16T13:55:21Z</time>
      </trkpt>
      <trkpt lat="59.6916710104" lon="18.2930001224">
        <ele>48.8</ele>
        <time>2012-09-16T13:55:22Z</time>
      </trkpt>
      <trkpt lat="59.6916886962" lon="18.2928789202">
        <ele>49.2</ele>
        <time>2012-09-16T13:55:23Z</time>
      </trkpt>
      <trkpt lat="59.6917088128" lon="18.2927495874">
        <ele>49.6</ele>
        <time>2012-09-16T13:55:24Z</time>
      </trkpt>
      <trkpt lat="59.6917555" lon="18.2924680394">
        <ele>49.6</ele>
        <time>2012-09-16T13:55:26Z</time>
      </trkpt>
      <trkpt lat="59.6918097309" lon="18.2921771037">
        <ele>49.2</ele>
        <time>2012-09-16T13:55:28Z</time>
      </trkpt>
      <trkpt lat="59.6918397381" lon="18.2920415683">
        <ele>48.6</ele>
        <time>2012-09-16T13:55:29Z</time>
      </trkpt>
      <trkpt lat="59.6918743553" lon="18.2919143311">
        <ele>48.2</ele>
        <time>2012-09-16T13:55:30Z</time>
      </trkpt>
      <trkpt lat="59.6919135826" lon="18.2917958949">
        <ele>47.6</ele>
        <time>2012-09-16T13:55:31Z</time>
      </trkpt>
      <trkpt lat="59.6919555759" lon="18.2916803923">
        <ele>47.2</ele>
        <time>2012-09-16T13:55:32Z</time>
      </trkpt>
      <trkpt lat="59.692133859" lon="18.2912040489">
        <ele>47.2</ele>
        <time>2012-09-16T13:55:36Z</time>
      </trkpt>
      <trkpt lat="59.692169482" lon="18.2910742133">
        <ele>47.2</ele>
        <time>2012-09-16T13:55:37Z</time>
      </trkpt>
      <trkpt lat="59.6921908559" lon="18.2909230876">
        <ele>46.8</ele>
        <time>2012-09-16T13:55:38Z</time>
      </trkpt>
      <trkpt lat="59.6921963879" lon="18.2907592215">
        <ele>46.4</ele>
        <time>2012-09-16T13:55:39Z</time>
      </trkpt>
      <trkpt lat="59.692187084" lon="18.2905951039">
        <ele>46</ele>
        <time>2012-09-16T13:55:40Z</time>
      </trkpt>
      <trkpt lat="59.692164872" lon="18.2904428886">
        <ele>45.6</ele>
        <time>2012-09-16T13:55:41Z</time>
      </trkpt>
      <trkpt lat="59.692133356" lon="18.2902960377">
        <ele>45.2</ele>
        <time>2012-09-16T13:55:42Z</time>
      </trkpt>
      <trkpt lat="59.6920996608" lon="18.2901651962">
        <ele>45.6</ele>
        <time>2012-09-16T13:55:43Z</time>
      </trkpt>
      <trkpt lat="59.6920658817" lon="18.2900403897">
        <ele>46</ele>
        <time>2012-09-16T13:55:44Z</time>
      </trkpt>
      <trkpt lat="59.6920321027" lon="18.2899270664">
        <ele>46.6</ele>
        <time>2012-09-16T13:55:45Z</time>
      </trkpt>
      <trkpt lat="59.6919967311" lon="18.2898180179">
        <ele>47</ele>
        <time>2012-09-16T13:55:46Z</time>
      </trkpt>
      <trkpt lat="59.6919587611" lon="18.2897055328">
        <ele>46.6</ele>
        <time>2012-09-16T13:55:47Z</time>
      </trkpt>
      <trkpt lat="59.6919281671" lon="18.2895910361">
        <ele>46</ele>
        <time>2012-09-16T13:55:48Z</time>
      </trkpt>
      <trkpt lat="59.6918983276" lon="18.2894709234">
        <ele>45.6</ele>
        <time>2012-09-16T13:55:49Z</time>
      </trkpt>
      <trkpt lat="59.6918650514" lon="18.2893455302">
        <ele>45</ele>
        <time>2012-09-16T13:55:50Z</time>
      </trkpt>
      <trkpt lat="59.691829596" lon="18.2892253338">
        <ele>44.6</ele>
        <time>2012-09-16T13:55:51Z</time>
      </trkpt>
      <trkpt lat="59.6917625408" lon="18.2889743797">
        <ele>44.6</ele>
        <time>2012-09-16T13:55:53Z</time>
      </trkpt>
      <trkpt lat="59.6915315356" lon="18.288248088">
        <ele>44.6</ele>
        <time>2012-09-16T13:55:59Z</time>
      </trkpt>
      <trkpt lat="59.6914957449" lon="18.2881516124">
        <ele>44.6</ele>
        <time>2012-09-16T13:56:00Z</time>
      </trkpt>
      <trkpt lat="59.6913934019" lon="18.287843829">
        <ele>45</ele>
        <time>2012-09-16T13:56:03Z</time>
      </trkpt>
      <trkpt lat="59.6913667475" lon="18.2877209503">
        <ele>45.6</ele>
        <time>2012-09-16T13:56:04Z</time>
      </trkpt>
      <trkpt lat="59.6913462118" lon="18.2875836548">
        <ele>46</ele>
        <time>2012-09-16T13:56:05Z</time>
      </trkpt>
      <trkpt lat="59.6913372432" lon="18.2874488739">
        <ele>46.6</ele>
        <time>2012-09-16T13:56:06Z</time>
      </trkpt>
      <trkpt lat="59.6913340581" lon="18.287319625">
        <ele>47</ele>
        <time>2012-09-16T13:56:07Z</time>
      </trkpt>
      <trkpt lat="59.6913347286" lon="18.2871974169">
        <ele>47</ele>
        <time>2012-09-16T13:56:08Z</time>
      </trkpt>
      <trkpt lat="59.6913545937" lon="18.2867765617">
        <ele>46.6</ele>
        <time>2012-09-16T13:56:12Z</time>
      </trkpt>
      <trkpt lat="59.6913607963" lon="18.2866696925">
        <ele>46</ele>
        <time>2012-09-16T13:56:13Z</time>
      </trkpt>
      <trkpt lat="59.6913647358" lon="18.2865655893">
        <ele>45.6</ele>
        <time>2012-09-16T13:56:14Z</time>
      </trkpt>
      <trkpt lat="59.6913739559" lon="18.2864676887">
        <ele>45.2</ele>
        <time>2012-09-16T13:56:15Z</time>
      </trkpt>
      <trkpt lat="59.6913870317" lon="18.2863764936">
        <ele>44.6</ele>
        <time>2012-09-16T13:56:16Z</time>
      </trkpt>
      <trkpt lat="59.6914115906" lon="18.2861955284">
        <ele>44.6</ele>
        <time>2012-09-16T13:56:18Z</time>
      </trkpt>
      <trkpt lat="59.6914410111" lon="18.2860216878">
        <ele>45</ele>
        <time>2012-09-16T13:56:20Z</time>
      </trkpt>
      <trkpt lat="59.6914607924" lon="18.2859377011">
        <ele>45.6</ele>
        <time>2012-09-16T13:56:21Z</time>
      </trkpt>
      <trkpt lat="59.6914825853" lon="18.2858480986">
        <ele>46</ele>
        <time>2012-09-16T13:56:22Z</time>
      </trkpt>
      <trkpt lat="59.6915087369" lon="18.2857459233">
        <ele>46.4</ele>
        <time>2012-09-16T13:56:23Z</time>
      </trkpt>
      <trkpt lat="59.6915326253" lon="18.285645089">
        <ele>47</ele>
        <time>2012-09-16T13:56:24Z</time>
      </trkpt>
      <trkpt lat="59.6915538315" lon="18.2855450091">
        <ele>47.4</ele>
        <time>2012-09-16T13:56:25Z</time>
      </trkpt>
      <trkpt lat="59.6915750377" lon="18.285449204">
        <ele>48</ele>
        <time>2012-09-16T13:56:26Z</time>
      </trkpt>
      <trkpt lat="59.6915962439" lon="18.2853456875">
        <ele>48.6</ele>
        <time>2012-09-16T13:56:27Z</time>
      </trkpt>
      <trkpt lat="59.6916215572" lon="18.2852293468">
        <ele>49</ele>
        <time>2012-09-16T13:56:28Z</time>
      </trkpt>
      <trkpt lat="59.6916479602" lon="18.2851083121">
        <ele>49.6</ele>
        <time>2012-09-16T13:56:29Z</time>
      </trkpt>
      <trkpt lat="59.6916700884" lon="18.2849798176">
        <ele>49.6</ele>
        <time>2012-09-16T13:56:30Z</time>
      </trkpt>
      <trkpt lat="59.6917025264" lon="18.2846955874">
        <ele>49</ele>
        <time>2012-09-16T13:56:32Z</time>
      </trkpt>
      <trkpt lat="59.6917081423" lon="18.2845194836">
        <ele>48.6</ele>
        <time>2012-09-16T13:56:33Z</time>
      </trkpt>
      <trkpt lat="59.6917081423" lon="18.2843550308">
        <ele>48.2</ele>
        <time>2012-09-16T13:56:34Z</time>
      </trkpt>
      <trkpt lat="59.691705041" lon="18.2841893206">
        <ele>47.6</ele>
        <time>2012-09-16T13:56:35Z</time>
      </trkpt>
      <trkpt lat="59.6917031969" lon="18.2840397037">
        <ele>47.2</ele>
        <time>2012-09-16T13:56:36Z</time>
      </trkpt>
      <trkpt lat="59.6917306896" lon="18.2834733387">
        <ele>47.2</ele>
        <time>2012-09-16T13:56:40Z</time>
      </trkpt>
      <trkpt lat="59.6917487945" lon="18.2833321037">
        <ele>47.2</ele>
        <time>2012-09-16T13:56:41Z</time>
      </trkpt>
      <trkpt lat="59.6918507184" lon="18.2828736138">
        <ele>46.8</ele>
        <time>2012-09-16T13:56:44Z</time>
      </trkpt>
      <trkpt lat="59.6918849165" lon="18.2827148606">
        <ele>46.4</ele>
        <time>2012-09-16T13:56:45Z</time>
      </trkpt>
      <trkpt lat="59.6919081344" lon="18.2825644055">
        <ele>46</ele>
        <time>2012-09-16T13:56:46Z</time>
      </trkpt>
      <trkpt lat="59.691917103" lon="18.2824237572">
        <ele>45.6</ele>
        <time>2012-09-16T13:56:47Z</time>
      </trkpt>
      <trkpt lat="59.691912493" lon="18.2822970229">
        <ele>45</ele>
        <time>2012-09-16T13:56:48Z</time>
      </trkpt>
      <trkpt lat="59.6918850842" lon="18.2820460688">
        <ele>45</ele>
        <time>2012-09-16T13:56:50Z</time>
      </trkpt>
      <trkpt lat="59.6918303504" lon="18.2815732458">
        <ele>45</ele>
        <time>2012-09-16T13:56:54Z</time>
      </trkpt>
      <trkpt lat="59.6917665641" lon="18.2809139255">
        <ele>45</ele>
        <time>2012-09-16T13:57:00Z</time>
      </trkpt>
      <trkpt lat="59.6917611159" lon="18.2808102414">
        <ele>45</ele>
        <time>2012-09-16T13:57:01Z</time>
      </trkpt>
      <trkpt lat="59.6917605291" lon="18.2807096586">
        <ele>45.6</ele>
        <time>2012-09-16T13:57:02Z</time>
      </trkpt>
      <trkpt lat="59.6917634628" lon="18.2806133506">
        <ele>46</ele>
        <time>2012-09-16T13:57:03Z</time>
      </trkpt>
      <trkpt lat="59.6917683243" lon="18.2805203115">
        <ele>46.4</ele>
        <time>2012-09-16T13:57:04Z</time>
      </trkpt>
      <trkpt lat="59.6917720962" lon="18.2804289488">
        <ele>46.8</ele>
        <time>2012-09-16T13:57:05Z</time>
      </trkpt>
      <trkpt lat="59.6917783826" lon="18.2803294557">
        <ele>47.4</ele>
        <time>2012-09-16T13:57:06Z</time>
      </trkpt>
      <trkpt lat="59.6918361339" lon="18.2800404477">
        <ele>47.4</ele>
        <time>2012-09-16T13:57:09Z</time>
      </trkpt>
      <trkpt lat="59.691860609" lon="18.2799373504">
        <ele>47.4</ele>
        <time>2012-09-16T13:57:10Z</time>
      </trkpt>
      <trkpt lat="59.6919193661" lon="18.279724953">
        <ele>47.4</ele>
        <time>2012-09-16T13:57:12Z</time>
      </trkpt>
      <trkpt lat="59.6920378024" lon="18.2794668743">
        <ele>47.4</ele>
        <time>2012-09-16T13:57:15Z</time>
      </trkpt>
      <trkpt lat="59.6921212023" lon="18.2793311714">
        <ele>47.4</ele>
        <time>2012-09-16T13:57:17Z</time>
      </trkpt>
      <trkpt lat="59.6922911872" lon="18.2790295068">
        <ele>47.4</ele>
        <time>2012-09-16T13:57:21Z</time>
      </trkpt>
      <trkpt lat="59.6925640181" lon="18.2786192966">
        <ele>47.4</ele>
        <time>2012-09-16T13:57:27Z</time>
      </trkpt>
      <trkpt lat="59.6927875633" lon="18.2783606312">
        <ele>46.8</ele>
        <time>2012-09-16T13:57:31Z</time>
      </trkpt>
      <trkpt lat="59.6928480807" lon="18.2783047239">
        <ele>46.4</ele>
        <time>2012-09-16T13:57:32Z</time>
      </trkpt>
      <trkpt lat="59.6929101067" lon="18.278261138">
        <ele>46</ele>
        <time>2012-09-16T13:57:33Z</time>
      </trkpt>
      <trkpt lat="59.692972971" lon="18.2782270237">
        <ele>45.4</ele>
        <time>2012-09-16T13:57:34Z</time>
      </trkpt>
      <trkpt lat="59.6930365058" lon="18.2781978547">
        <ele>45</ele>
        <time>2012-09-16T13:57:35Z</time>
      </trkpt>
      <trkpt lat="59.6932919861" lon="18.2781282011">
        <ele>45</ele>
        <time>2012-09-16T13:57:39Z</time>
      </trkpt>
      <trkpt lat="59.6933569458" lon="18.2781169693">
        <ele>45.4</ele>
        <time>2012-09-16T13:57:40Z</time>
      </trkpt>
      <trkpt lat="59.6934216541" lon="18.2781009599">
        <ele>45.8</ele>
        <time>2012-09-16T13:57:41Z</time>
      </trkpt>
      <trkpt lat="59.6934876196" lon="18.2780732158">
        <ele>46.2</ele>
        <time>2012-09-16T13:57:42Z</time>
      </trkpt>
      <trkpt lat="59.6935530823" lon="18.2780316416">
        <ele>46.8</ele>
        <time>2012-09-16T13:57:43Z</time>
      </trkpt>
      <trkpt lat="59.6936181258" lon="18.2779767401">
        <ele>47.2</ele>
        <time>2012-09-16T13:57:44Z</time>
      </trkpt>
      <trkpt lat="59.6937962412" lon="18.2777710483">
        <ele>47.2</ele>
        <time>2012-09-16T13:57:47Z</time>
      </trkpt>
      <trkpt lat="59.6939109056" lon="18.277627634">
        <ele>47.2</ele>
        <time>2012-09-16T13:57:49Z</time>
      </trkpt>
      <trkpt lat="59.6939671481" lon="18.2775671167">
        <ele>47.6</ele>
        <time>2012-09-16T13:57:50Z</time>
      </trkpt>
      <trkpt lat="59.694022301" lon="18.2775141431">
        <ele>48</ele>
        <time>2012-09-16T13:57:51Z</time>
      </trkpt>
      <trkpt lat="59.694076951" lon="18.2774647737">
        <ele>48.4</ele>
        <time>2012-09-16T13:57:52Z</time>
      </trkpt>
      <trkpt lat="59.6941257337" lon="18.2774180027">
        <ele>48.8</ele>
        <time>2012-09-16T13:57:53Z</time>
      </trkpt>
      <trkpt lat="59.6941742649" lon="18.277365532">
        <ele>49.4</ele>
        <time>2012-09-16T13:57:54Z</time>
      </trkpt>
      <trkpt lat="59.6942240534" lon="18.2773234549">
        <ele>49.4</ele>
        <time>2012-09-16T13:57:55Z</time>
      </trkpt>
      <trkpt lat="59.6943690602" lon="18.2771875004">
        <ele>49.8</ele>
        <time>2012-09-16T13:57:58Z</time>
      </trkpt>
      <trkpt lat="59.694416418" lon="18.2771491952">
        <ele>50.2</ele>
        <time>2012-09-16T13:57:59Z</time>
      </trkpt>
      <trkpt lat="59.6944587466" lon="18.277108962">
        <ele>50.8</ele>
        <time>2012-09-16T13:58:00Z</time>
      </trkpt>
      <trkpt lat="59.6944981415" lon="18.2770672202">
        <ele>51.2</ele>
        <time>2012-09-16T13:58:01Z</time>
      </trkpt>
      <trkpt lat="59.6945399672" lon="18.2770210359">
        <ele>51.8</ele>
        <time>2012-09-16T13:58:02Z</time>
      </trkpt>
      <trkpt lat="59.6945839721" lon="18.2769727562">
        <ele>52.2</ele>
        <time>2012-09-16T13:58:03Z</time>
      </trkpt>
      <trkpt lat="59.6946302402" lon="18.2769299247">
        <ele>52.6</ele>
        <time>2012-09-16T13:58:04Z</time>
      </trkpt>
      <trkpt lat="59.6946756701" lon="18.2768861711">
        <ele>53</ele>
        <time>2012-09-16T13:58:05Z</time>
      </trkpt>
      <trkpt lat="59.694722944" lon="18.276845938">
        <ele>53.6</ele>
        <time>2012-09-16T13:58:06Z</time>
      </trkpt>
      <trkpt lat="59.6947768397" lon="18.2768110693">
        <ele>54</ele>
        <time>2012-09-16T13:58:07Z</time>
      </trkpt>
      <trkpt lat="59.694835513" lon="18.2767863427">
        <ele>54.4</ele>
        <time>2012-09-16T13:58:08Z</time>
      </trkpt>
      <trkpt lat="59.6949029034" lon="18.276776033">
        <ele>54.8</ele>
        <time>2012-09-16T13:58:09Z</time>
      </trkpt>
      <trkpt lat="59.6949732276" lon="18.2767788828">
        <ele>55.2</ele>
        <time>2012-09-16T13:58:10Z</time>
      </trkpt>
      <trkpt lat="59.6950434679" lon="18.276781565">
        <ele>55.8</ele>
        <time>2012-09-16T13:58:11Z</time>
      </trkpt>
      <trkpt lat="59.6951116127" lon="18.276776033">
        <ele>56.2</ele>
        <time>2012-09-16T13:58:12Z</time>
      </trkpt>
      <trkpt lat="59.6951831942" lon="18.2767546591">
        <ele>56.2</ele>
        <time>2012-09-16T13:58:13Z</time>
      </trkpt>
      <trkpt lat="59.6954240062" lon="18.2767051221">
        <ele>56.2</ele>
        <time>2012-09-16T13:58:16Z</time>
      </trkpt>
      <trkpt lat="59.6956759661" lon="18.2766948124">
        <ele>55.6</ele>
        <time>2012-09-16T13:58:19Z</time>
      </trkpt>
      <trkpt lat="59.6957433566" lon="18.2766477061">
        <ele>54.6</ele>
        <time>2012-09-16T13:58:20Z</time>
      </trkpt>
      <trkpt lat="59.6957807398" lon="18.2765720175">
        <ele>54</ele>
        <time>2012-09-16T13:58:21Z</time>
      </trkpt>
      <trkpt lat="59.6957930612" lon="18.2764830856">
        <ele>53.6</ele>
        <time>2012-09-16T13:58:22Z</time>
      </trkpt>
      <trkpt lat="59.6957447815" lon="18.2761798284">
        <ele>53.6</ele>
        <time>2012-09-16T13:58:25Z</time>
      </trkpt>
      <trkpt lat="59.6956963341" lon="18.2759729631">
        <ele>53.6</ele>
        <time>2012-09-16T13:58:27Z</time>
      </trkpt>
      <trkpt lat="59.6955823403" lon="18.2754137228">
        <ele>53.6</ele>
        <time>2012-09-16T13:58:32Z</time>
      </trkpt>
      <trkpt lat="59.6954048116" lon="18.2745444359">
        <ele>53.6</ele>
        <time>2012-09-16T13:58:40Z</time>
      </trkpt>
      <trkpt lat="59.6953142033" lon="18.2738799189">
        <ele>53.6</ele>
        <time>2012-09-16T13:58:46Z</time>
      </trkpt>
      <trkpt lat="59.6952369222" lon="18.2730322573">
        <ele>53.6</ele>
        <time>2012-09-16T13:58:53Z</time>
      </trkpt>
      <trkpt lat="59.695163832" lon="18.2721194684">
        <ele>53</ele>
        <time>2012-09-16T13:58:59Z</time>
      </trkpt>
      <trkpt lat="59.6951504209" lon="18.2719588712">
        <ele>52.6</ele>
        <time>2012-09-16T13:59:00Z</time>
      </trkpt>
      <trkpt lat="59.6951357526" lon="18.2718106792">
        <ele>52</ele>
        <time>2012-09-16T13:59:01Z</time>
      </trkpt>
      <trkpt lat="59.6951210005" lon="18.2716707853">
        <ele>51.4</ele>
        <time>2012-09-16T13:59:02Z</time>
      </trkpt>
      <trkpt lat="59.6951057454" lon="18.2715377646">
        <ele>51</ele>
        <time>2012-09-16T13:59:03Z</time>
      </trkpt>
      <trkpt lat="59.6950919153" lon="18.271413461">
        <ele>51</ele>
        <time>2012-09-16T13:59:04Z</time>
      </trkpt>
      <trkpt lat="59.6950603993" lon="18.2711996387">
        <ele>51</ele>
        <time>2012-09-16T13:59:06Z</time>
      </trkpt>
      <trkpt lat="59.6950249439" lon="18.2710034184">
        <ele>51</ele>
        <time>2012-09-16T13:59:08Z</time>
      </trkpt>
      <trkpt lat="59.6949868901" lon="18.2708262251">
        <ele>51.8</ele>
        <time>2012-09-16T13:59:10Z</time>
      </trkpt>
      <trkpt lat="59.6949700425" lon="18.2707384666">
        <ele>52.2</ele>
        <time>2012-09-16T13:59:11Z</time>
      </trkpt>
      <trkpt lat="59.6949565476" lon="18.2706507919">
        <ele>52.6</ele>
        <time>2012-09-16T13:59:12Z</time>
      </trkpt>
      <trkpt lat="59.6949392809" lon="18.2705650451">
        <ele>53</ele>
        <time>2012-09-16T13:59:13Z</time>
      </trkpt>
      <trkpt lat="59.6949050827" lon="18.2703943058">
        <ele>53</ele>
        <time>2012-09-16T13:59:15Z</time>
      </trkpt>
      <trkpt lat="59.6948889057" lon="18.2703130013">
        <ele>53.4</ele>
        <time>2012-09-16T13:59:16Z</time>
      </trkpt>
      <trkpt lat="59.6948752432" lon="18.2702325351">
        <ele>53.8</ele>
        <time>2012-09-16T13:59:17Z</time>
      </trkpt>
      <trkpt lat="59.6948610778" lon="18.2701554216">
        <ele>54.2</ele>
        <time>2012-09-16T13:59:18Z</time>
      </trkpt>
      <trkpt lat="59.6948458227" lon="18.2700747877">
        <ele>54.6</ele>
        <time>2012-09-16T13:59:19Z</time>
      </trkpt>
      <trkpt lat="59.6948304838" lon="18.269993148">
        <ele>55.2</ele>
        <time>2012-09-16T13:59:20Z</time>
      </trkpt>
      <trkpt lat="59.6948142229" lon="18.2699110054">
        <ele>55.8</ele>
        <time>2012-09-16T13:59:21Z</time>
      </trkpt>
      <trkpt lat="59.6947957828" lon="18.2698211514">
        <ele>56.2</ele>
        <time>2012-09-16T13:59:22Z</time>
      </trkpt>
      <trkpt lat="59.6947789351" lon="18.2697296211">
        <ele>56.8</ele>
        <time>2012-09-16T13:59:23Z</time>
      </trkpt>
      <trkpt lat="59.6947619199" lon="18.2696385937">
        <ele>57.4</ele>
        <time>2012-09-16T13:59:24Z</time>
      </trkpt>
      <trkpt lat="59.6946496862" lon="18.2690652717">
        <ele>57.4</ele>
        <time>2012-09-16T13:59:30Z</time>
      </trkpt>
      <trkpt lat="59.694456232" lon="18.2682878505">
        <ele>57.4</ele>
        <time>2012-09-16T13:59:37Z</time>
      </trkpt>
      <trkpt lat="59.6941989915" lon="18.2675738802">
        <ele>57.4</ele>
        <time>2012-09-16T13:59:43Z</time>
      </trkpt>
      <trkpt lat="59.6941632008" lon="18.2674401889">
        <ele>57.4</ele>
        <time>2012-09-16T13:59:44Z</time>
      </trkpt>
      <trkpt lat="59.6941290026" lon="18.2672990377">
        <ele>57</ele>
        <time>2012-09-16T13:59:45Z</time>
      </trkpt>
      <trkpt lat="59.6941002527" lon="18.2671600658">
        <ele>56.6</ele>
        <time>2012-09-16T13:59:46Z</time>
      </trkpt>
      <trkpt lat="59.6940743526" lon="18.2670237761">
        <ele>56.2</ele>
        <time>2012-09-16T13:59:47Z</time>
      </trkpt>
      <trkpt lat="59.694049626" lon="18.2668905039">
        <ele>55.6</ele>
        <time>2012-09-16T13:59:48Z</time>
      </trkpt>
      <trkpt lat="59.6940248994" lon="18.2667589919">
        <ele>55.2</ele>
        <time>2012-09-16T13:59:49Z</time>
      </trkpt>
      <trkpt lat="59.6939072175" lon="18.2661311038">
        <ele>55.2</ele>
        <time>2012-09-16T13:59:54Z</time>
      </trkpt>
      <trkpt lat="59.6938171959" lon="18.2655271041">
        <ele>55.2</ele>
        <time>2012-09-16T13:59:59Z</time>
      </trkpt>
      <trkpt lat="59.6938052098" lon="18.2651453923">
        <ele>55.2</ele>
        <time>2012-09-16T14:00:02Z</time>
      </trkpt>
      <trkpt lat="59.6938042878" lon="18.26490106">
        <ele>55.2</ele>
        <time>2012-09-16T14:00:04Z</time>
      </trkpt>
      <trkpt lat="59.6937897033" lon="18.2645142353">
        <ele>55.6</ele>
        <time>2012-09-16T14:00:07Z</time>
      </trkpt>
      <trkpt lat="59.6937800641" lon="18.2643923624">
        <ele>56.2</ele>
        <time>2012-09-16T14:00:08Z</time>
      </trkpt>
      <trkpt lat="59.6937695867" lon="18.2642755188">
        <ele>56.6</ele>
        <time>2012-09-16T14:00:09Z</time>
      </trkpt>
      <trkpt lat="59.693761121" lon="18.2641574178">
        <ele>57</ele>
        <time>2012-09-16T14:00:10Z</time>
      </trkpt>
      <trkpt lat="59.6937524877" lon="18.2640363832">
        <ele>57.6</ele>
        <time>2012-09-16T14:00:11Z</time>
      </trkpt>
      <trkpt lat="59.693739831" lon="18.263800265">
        <ele>57.6</ele>
        <time>2012-09-16T14:00:13Z</time>
      </trkpt>
      <trkpt lat="59.6937392443" lon="18.263674788">
        <ele>57.6</ele>
        <time>2012-09-16T14:00:14Z</time>
      </trkpt>
      <trkpt lat="59.6937663178" lon="18.263066262">
        <ele>57.6</ele>
        <time>2012-09-16T14:00:19Z</time>
      </trkpt>
      <trkpt lat="59.6937789745" lon="18.2629355044">
        <ele>57.6</ele>
        <time>2012-09-16T14:00:20Z</time>
      </trkpt>
      <trkpt lat="59.6938163577" lon="18.2624962929">
        <ele>58</ele>
        <time>2012-09-16T14:00:23Z</time>
      </trkpt>
      <trkpt lat="59.6938260807" lon="18.2623419821">
        <ele>58.8</ele>
        <time>2012-09-16T14:00:24Z</time>
      </trkpt>
      <trkpt lat="59.6938321995" lon="18.2621881742">
        <ele>58.4</ele>
        <time>2012-09-16T14:00:25Z</time>
      </trkpt>
      <trkpt lat="59.6938363067" lon="18.2620383897">
        <ele>58.2</ele>
        <time>2012-09-16T14:00:26Z</time>
      </trkpt>
      <trkpt lat="59.6938392403" lon="18.2618857553">
        <ele>57.8</ele>
        <time>2012-09-16T14:00:27Z</time>
      </trkpt>
      <trkpt lat="59.6938430122" lon="18.2617347972">
        <ele>57.4</ele>
        <time>2012-09-16T14:00:28Z</time>
      </trkpt>
      <trkpt lat="59.6938456106" lon="18.2615816599">
        <ele>57.2</ele>
        <time>2012-09-16T14:00:29Z</time>
      </trkpt>
      <trkpt lat="59.6938484604" lon="18.2612708591">
        <ele>56.8</ele>
        <time>2012-09-16T14:00:31Z</time>
      </trkpt>
      <trkpt lat="59.6938477899" lon="18.2611197334">
        <ele>56.2</ele>
        <time>2012-09-16T14:00:32Z</time>
      </trkpt>
      <trkpt lat="59.693848209" lon="18.2609769897">
        <ele>55.8</ele>
        <time>2012-09-16T14:00:33Z</time>
      </trkpt>
      <trkpt lat="59.6938534057" lon="18.26082863">
        <ele>55.4</ele>
        <time>2012-09-16T14:00:34Z</time>
      </trkpt>
      <trkpt lat="59.6938585187" lon="18.2606795998">
        <ele>55</ele>
        <time>2012-09-16T14:00:35Z</time>
      </trkpt>
      <trkpt lat="59.6938790544" lon="18.2601017517">
        <ele>55</ele>
        <time>2012-09-16T14:00:39Z</time>
      </trkpt>
      <trkpt lat="59.6938793058" lon="18.2599695691">
        <ele>55</ele>
        <time>2012-09-16T14:00:40Z</time>
      </trkpt>
      <trkpt lat="59.6938648889" lon="18.2597342053">
        <ele>55</ele>
        <time>2012-09-16T14:00:42Z</time>
      </trkpt>
      <trkpt lat="59.6938478737" lon="18.2596435132">
        <ele>55</ele>
        <time>2012-09-16T14:00:43Z</time>
      </trkpt>
      <trkpt lat="59.6937939781" lon="18.2594594467">
        <ele>55</ele>
        <time>2012-09-16T14:00:45Z</time>
      </trkpt>
      <trkpt lat="59.6937110811" lon="18.2593375738">
        <ele>55</ele>
        <time>2012-09-16T14:00:47Z</time>
      </trkpt>
      <trkpt lat="59.6936112526" lon="18.2592478875">
        <ele>55</ele>
        <time>2012-09-16T14:00:49Z</time>
      </trkpt>
      <trkpt lat="59.6935657389" lon="18.2591936566">
        <ele>55.6</ele>
        <time>2012-09-16T14:00:50Z</time>
      </trkpt>
      <trkpt lat="59.6935245838" lon="18.2591239192">
        <ele>56</ele>
        <time>2012-09-16T14:00:51Z</time>
      </trkpt>
      <trkpt lat="59.6934812494" lon="18.2590444588">
        <ele>56.6</ele>
        <time>2012-09-16T14:00:52Z</time>
      </trkpt>
      <trkpt lat="59.6934424412" lon="18.2589640764">
        <ele>57</ele>
        <time>2012-09-16T14:00:53Z</time>
      </trkpt>
      <trkpt lat="59.6934048903" lon="18.2588805088">
        <ele>57.6</ele>
        <time>2012-09-16T14:00:54Z</time>
      </trkpt>
      <trkpt lat="59.6932411079" lon="18.2585158124">
        <ele>57.6</ele>
        <time>2012-09-16T14:00:58Z</time>
      </trkpt>
      <trkpt lat="59.69299007" lon="18.2578300891">
        <ele>57.6</ele>
        <time>2012-09-16T14:01:05Z</time>
      </trkpt>
      <trkpt lat="59.6929045747" lon="18.2575086433">
        <ele>58</ele>
        <time>2012-09-16T14:01:08Z</time>
      </trkpt>
      <trkpt lat="59.6928718014" lon="18.2574028637">
        <ele>58.4</ele>
        <time>2012-09-16T14:01:09Z</time>
      </trkpt>
      <trkpt lat="59.6928383576" lon="18.257300353">
        <ele>58.8</ele>
        <time>2012-09-16T14:01:10Z</time>
      </trkpt>
      <trkpt lat="59.6928030699" lon="18.2572001893">
        <ele>59.2</ele>
        <time>2012-09-16T14:01:11Z</time>
      </trkpt>
      <trkpt lat="59.6927716377" lon="18.2570996065">
        <ele>59.8</ele>
        <time>2012-09-16T14:01:12Z</time>
      </trkpt>
      <trkpt lat="59.692639539" lon="18.2566277056">
        <ele>59.8</ele>
        <time>2012-09-16T14:01:17Z</time>
      </trkpt>
      <trkpt lat="59.6925379504" lon="18.2559224525">
        <ele>59.8</ele>
        <time>2012-09-16T14:01:23Z</time>
      </trkpt>
      <trkpt lat="59.6925064344" lon="18.2556041079">
        <ele>60.2</ele>
        <time>2012-09-16T14:01:25Z</time>
      </trkpt>
      <trkpt lat="59.6924853958" lon="18.2554357994">
        <ele>60.6</ele>
        <time>2012-09-16T14:01:26Z</time>
      </trkpt>
      <trkpt lat="59.6924620942" lon="18.25526045">
        <ele>61</ele>
        <time>2012-09-16T14:01:27Z</time>
      </trkpt>
      <trkpt lat="59.692438541" lon="18.2550820832">
        <ele>61.4</ele>
        <time>2012-09-16T14:01:28Z</time>
      </trkpt>
      <trkpt lat="59.692411216" lon="18.254900196">
        <ele>61.8</ele>
        <time>2012-09-16T14:01:29Z</time>
      </trkpt>
      <trkpt lat="59.6923797001" lon="18.2547049815">
        <ele>61.2</ele>
        <time>2012-09-16T14:01:30Z</time>
      </trkpt>
      <trkpt lat="59.6923483518" lon="18.2545116111">
        <ele>60.6</ele>
        <time>2012-09-16T14:01:31Z</time>
      </trkpt>
      <trkpt lat="59.6923131478" lon="18.2543142173">
        <ele>59.6</ele>
        <time>2012-09-16T14:01:32Z</time>
      </trkpt>
      <trkpt lat="59.692278782" lon="18.2541143929">
        <ele>58.4</ele>
        <time>2012-09-16T14:01:33Z</time>
      </trkpt>
      <trkpt lat="59.6922449191" lon="18.2539209386">
        <ele>57</ele>
        <time>2012-09-16T14:01:34Z</time>
      </trkpt>
      <trkpt lat="59.6922069491" lon="18.2537278196">
        <ele>55.8</ele>
        <time>2012-09-16T14:01:35Z</time>
      </trkpt>
      <trkpt lat="59.6921686438" lon="18.2535378019">
        <ele>54.4</ele>
        <time>2012-09-16T14:01:36Z</time>
      </trkpt>
      <trkpt lat="59.6921248903" lon="18.2533471137">
        <ele>53</ele>
        <time>2012-09-16T14:01:37Z</time>
      </trkpt>
      <trkpt lat="59.692079209" lon="18.2531726864">
        <ele>51.2</ele>
        <time>2012-09-16T14:01:38Z</time>
      </trkpt>
      <trkpt lat="59.692022715" lon="18.2530078982">
        <ele>50.8</ele>
        <time>2012-09-16T14:01:39Z</time>
      </trkpt>
      <trkpt lat="59.6919564141" lon="18.2528515758">
        <ele>50.2</ele>
        <time>2012-09-16T14:01:40Z</time>
      </trkpt>
      <trkpt lat="59.6918875149" lon="18.2526983547">
        <ele>49.8</ele>
        <time>2012-09-16T14:01:41Z</time>
      </trkpt>
      <trkpt lat="59.6918162688" lon="18.2525528449">
        <ele>49.2</ele>
        <time>2012-09-16T14:01:42Z</time>
      </trkpt>
      <trkpt lat="59.691744855" lon="18.2524054073">
        <ele>49.2</ele>
        <time>2012-09-16T14:01:43Z</time>
      </trkpt>
      <trkpt lat="59.6916784703" lon="18.2522518509">
        <ele>48.8</ele>
        <time>2012-09-16T14:01:44Z</time>
      </trkpt>
      <trkpt lat="59.6916169472" lon="18.2520824527">
        <ele>48.4</ele>
        <time>2012-09-16T14:01:45Z</time>
      </trkpt>
      <trkpt lat="59.6915650632" lon="18.2519171616">
        <ele>48</ele>
        <time>2012-09-16T14:01:46Z</time>
      </trkpt>
      <trkpt lat="59.6915157776" lon="18.2517563967">
        <ele>47.6</ele>
        <time>2012-09-16T14:01:47Z</time>
      </trkpt>
      <trkpt lat="59.6914692581" lon="18.2516021698">
        <ele>47.2</ele>
        <time>2012-09-16T14:01:48Z</time>
      </trkpt>
      <trkpt lat="59.6914247502" lon="18.2514596775">
        <ele>46.6</ele>
        <time>2012-09-16T14:01:49Z</time>
      </trkpt>
      <trkpt lat="59.6913782307" lon="18.2513222981">
        <ele>45.8</ele>
        <time>2012-09-16T14:01:50Z</time>
      </trkpt>
      <trkpt lat="59.6913333875" lon="18.2511955638">
        <ele>45.2</ele>
        <time>2012-09-16T14:01:51Z</time>
      </trkpt>
      <trkpt lat="59.6912899693" lon="18.2510692486">
        <ele>44.6</ele>
        <time>2012-09-16T14:01:52Z</time>
      </trkpt>
      <trkpt lat="59.6912475568" lon="18.2509427657">
        <ele>45.2</ele>
        <time>2012-09-16T14:01:53Z</time>
      </trkpt>
      <trkpt lat="59.691208581" lon="18.2508265926">
        <ele>45.8</ele>
        <time>2012-09-16T14:01:54Z</time>
      </trkpt>
      <trkpt lat="59.6911721197" lon="18.2507107547">
        <ele>46.4</ele>
        <time>2012-09-16T14:01:55Z</time>
      </trkpt>
      <trkpt lat="59.6911391789" lon="18.2505929052">
        <ele>47</ele>
        <time>2012-09-16T14:01:56Z</time>
      </trkpt>
      <trkpt lat="59.691109507" lon="18.2504732117">
        <ele>46.6</ele>
        <time>2012-09-16T14:01:57Z</time>
      </trkpt>
      <trkpt lat="59.6910818467" lon="18.2503567033">
        <ele>46</ele>
        <time>2012-09-16T14:01:58Z</time>
      </trkpt>
      <trkpt lat="59.6910567848" lon="18.2502395243">
        <ele>45.6</ele>
        <time>2012-09-16T14:01:59Z</time>
      </trkpt>
      <trkpt lat="59.6910302142" lon="18.2501167295">
        <ele>45</ele>
        <time>2012-09-16T14:02:00Z</time>
      </trkpt>
      <trkpt lat="59.6910056552" lon="18.2500014783">
        <ele>44.6</ele>
        <time>2012-09-16T14:02:01Z</time>
      </trkpt>
      <trkpt lat="59.6909224229" lon="18.2495262246">
        <ele>44.6</ele>
        <time>2012-09-16T14:02:05Z</time>
      </trkpt>
      <trkpt lat="59.690793677" lon="18.2485275212">
        <ele>44.6</ele>
        <time>2012-09-16T14:02:13Z</time>
      </trkpt>
      <trkpt lat="59.6907477442" lon="18.247651948">
        <ele>44.6</ele>
        <time>2012-09-16T14:02:20Z</time>
      </trkpt>
      <trkpt lat="59.6907816908" lon="18.2471605172">
        <ele>44.6</ele>
        <time>2012-09-16T14:02:24Z</time>
      </trkpt>
      <trkpt lat="59.690817733" lon="18.2469220521">
        <ele>44.6</ele>
        <time>2012-09-16T14:02:26Z</time>
      </trkpt>
      <trkpt lat="59.690995094" lon="18.2461416134">
        <ele>44.6</ele>
        <time>2012-09-16T14:02:33Z</time>
      </trkpt>
      <trkpt lat="59.6912276917" lon="18.2455117974">
        <ele>44.6</ele>
        <time>2012-09-16T14:02:40Z</time>
      </trkpt>
      <trkpt lat="59.6914400053" lon="18.245073927">
        <ele>44.6</ele>
        <time>2012-09-16T14:02:46Z</time>
      </trkpt>
      <trkpt lat="59.6917031969" lon="18.2444174566">
        <ele>44.6</ele>
        <time>2012-09-16T14:02:54Z</time>
      </trkpt>
      <trkpt lat="59.6917685758" lon="18.2442513273">
        <ele>45</ele>
        <time>2012-09-16T14:02:56Z</time>
      </trkpt>
      <trkpt lat="59.6917969066" lon="18.2441599646">
        <ele>45.4</ele>
        <time>2012-09-16T14:02:57Z</time>
      </trkpt>
      <trkpt lat="59.6918240639" lon="18.2440594656">
        <ele>45.8</ele>
        <time>2012-09-16T14:02:58Z</time>
      </trkpt>
      <trkpt lat="59.6918517242" lon="18.2439616488">
        <ele>46.2</ele>
        <time>2012-09-16T14:02:59Z</time>
      </trkpt>
      <trkpt lat="59.6918772052" lon="18.2438670172">
        <ele>46.8</ele>
        <time>2012-09-16T14:03:00Z</time>
      </trkpt>
      <trkpt lat="59.6919039434" lon="18.2437755707">
        <ele>47.4</ele>
        <time>2012-09-16T14:03:01Z</time>
      </trkpt>
      <trkpt lat="59.6919327772" lon="18.2436776701">
        <ele>48</ele>
        <time>2012-09-16T14:03:02Z</time>
      </trkpt>
      <trkpt lat="59.6919585096" lon="18.2435838766">
        <ele>48.4</ele>
        <time>2012-09-16T14:03:03Z</time>
      </trkpt>
      <trkpt lat="59.69198332" lon="18.243488742">
        <ele>49</ele>
        <time>2012-09-16T14:03:04Z</time>
      </trkpt>
      <trkpt lat="59.6920334438" lon="18.2432926894">
        <ele>49</ele>
        <time>2012-09-16T14:03:06Z</time>
      </trkpt>
      <trkpt lat="59.6921118984" lon="18.2427817288">
        <ele>49.4</ele>
        <time>2012-09-16T14:03:11Z</time>
      </trkpt>
      <trkpt lat="59.6921156702" lon="18.2426842473">
        <ele>49.8</ele>
        <time>2012-09-16T14:03:12Z</time>
      </trkpt>
      <trkpt lat="59.6921160893" lon="18.2425873525">
        <ele>50.2</ele>
        <time>2012-09-16T14:03:13Z</time>
      </trkpt>
      <trkpt lat="59.6921103058" lon="18.2424913798">
        <ele>50.6</ele>
        <time>2012-09-16T14:03:14Z</time>
      </trkpt>
      <trkpt lat="59.6921003314" lon="18.2423975025">
        <ele>51</ele>
        <time>2012-09-16T14:03:15Z</time>
      </trkpt>
      <trkpt lat="59.6920844896" lon="18.2422998533">
        <ele>51</ele>
        <time>2012-09-16T14:03:16Z</time>
      </trkpt>
      <trkpt lat="59.6920686478" lon="18.242204635">
        <ele>51</ele>
        <time>2012-09-16T14:03:17Z</time>
      </trkpt>
      <trkpt lat="59.6919131635" lon="18.2415440574">
        <ele>51</ele>
        <time>2012-09-16T14:03:24Z</time>
      </trkpt>
      <trkpt lat="59.6916965752" lon="18.2408316797">
        <ele>51</ele>
        <time>2012-09-16T14:03:32Z</time>
      </trkpt>
      <trkpt lat="59.6915064737" lon="18.2400953298">
        <ele>51</ele>
        <time>2012-09-16T14:03:40Z</time>
      </trkpt>
      <trkpt lat="59.6914875306" lon="18.2400009496">
        <ele>51</ele>
        <time>2012-09-16T14:03:41Z</time>
      </trkpt>
      <trkpt lat="59.691433635" lon="18.2397198207">
        <ele>51.4</ele>
        <time>2012-09-16T14:03:44Z</time>
      </trkpt>
      <trkpt lat="59.6914191343" lon="18.2396231774">
        <ele>52</ele>
        <time>2012-09-16T14:03:45Z</time>
      </trkpt>
      <trkpt lat="59.6914025382" lon="18.2395187389">
        <ele>52.4</ele>
        <time>2012-09-16T14:03:46Z</time>
      </trkpt>
      <trkpt lat="59.6913896301" lon="18.2394148872">
        <ele>52.8</ele>
        <time>2012-09-16T14:03:47Z</time>
      </trkpt>
      <trkpt lat="59.691379488" lon="18.2393104487">
        <ele>53.2</ele>
        <time>2012-09-16T14:03:48Z</time>
      </trkpt>
      <trkpt lat="59.691341937" lon="18.238875009">
        <ele>53.2</ele>
        <time>2012-09-16T14:03:52Z</time>
      </trkpt>
      <trkpt lat="59.6913283584" lon="18.2386306766">
        <ele>52.8</ele>
        <time>2012-09-16T14:03:54Z</time>
      </trkpt>
      <trkpt lat="59.6913208147" lon="18.2385081332">
        <ele>52.4</ele>
        <time>2012-09-16T14:03:55Z</time>
      </trkpt>
      <trkpt lat="59.69131369" lon="18.2383864281">
        <ele>51.8</ele>
        <time>2012-09-16T14:03:56Z</time>
      </trkpt>
      <trkpt lat="59.691302123" lon="18.2382750326">
        <ele>51.4</ele>
        <time>2012-09-16T14:03:57Z</time>
      </trkpt>
      <trkpt lat="59.6912874547" lon="18.2381643077">
        <ele>51</ele>
        <time>2012-09-16T14:03:58Z</time>
      </trkpt>
      <trkpt lat="59.6912187231" lon="18.2378323845">
        <ele>51</ele>
        <time>2012-09-16T14:04:01Z</time>
      </trkpt>
      <trkpt lat="59.6911454653" lon="18.2376327276">
        <ele>51</ele>
        <time>2012-09-16T14:04:03Z</time>
      </trkpt>
      <trkpt lat="59.6910116902" lon="18.2371893251">
        <ele>51</ele>
        <time>2012-09-16T14:04:07Z</time>
      </trkpt>
      <trkpt lat="59.6909879694" lon="18.2370598247">
        <ele>51</ele>
        <time>2012-09-16T14:04:08Z</time>
      </trkpt>
      <trkpt lat="59.6909867959" lon="18.2366095491">
        <ele>51</ele>
        <time>2012-09-16T14:04:11Z</time>
      </trkpt>
      <trkpt lat="59.6910747221" lon="18.2361580999">
        <ele>50.6</ele>
        <time>2012-09-16T14:04:14Z</time>
      </trkpt>
      <trkpt lat="59.6911105966" lon="18.2360176193">
        <ele>50.2</ele>
        <time>2012-09-16T14:04:15Z</time>
      </trkpt>
      <trkpt lat="59.6911520032" lon="18.2358712713">
        <ele>49.8</ele>
        <time>2012-09-16T14:04:16Z</time>
      </trkpt>
      <trkpt lat="59.6911904761" lon="18.2357255101">
        <ele>49.4</ele>
        <time>2012-09-16T14:04:17Z</time>
      </trkpt>
      <trkpt lat="59.6912320503" lon="18.2355780725">
        <ele>48.8</ele>
        <time>2012-09-16T14:04:18Z</time>
      </trkpt>
      <trkpt lat="59.691316959" lon="18.2352732228">
        <ele>48.4</ele>
        <time>2012-09-16T14:04:20Z</time>
      </trkpt>
      <trkpt lat="59.6913554319" lon="18.2351183252">
        <ele>48</ele>
        <time>2012-09-16T14:04:21Z</time>
      </trkpt>
      <trkpt lat="59.6913818349" lon="18.2349515254">
        <ele>47.6</ele>
        <time>2012-09-16T14:04:22Z</time>
      </trkpt>
      <trkpt lat="59.6913902168" lon="18.2347840551">
        <ele>47</ele>
        <time>2012-09-16T14:04:23Z</time>
      </trkpt>
      <trkpt lat="59.691379907" lon="18.2346237093">
        <ele>46.6</ele>
        <time>2012-09-16T14:04:24Z</time>
      </trkpt>
      <trkpt lat="59.6912764744" lon="18.2342536484">
        <ele>46.6</ele>
        <time>2012-09-16T14:04:27Z</time>
      </trkpt>
      <trkpt lat="59.6912390073" lon="18.2341627048">
        <ele>47.2</ele>
        <time>2012-09-16T14:04:28Z</time>
      </trkpt>
      <trkpt lat="59.6912079943" lon="18.2340738567">
        <ele>47.6</ele>
        <time>2012-09-16T14:04:29Z</time>
      </trkpt>
      <trkpt lat="59.6911773165" lon="18.2339862658">
        <ele>48.2</ele>
        <time>2012-09-16T14:04:30Z</time>
      </trkpt>
      <trkpt lat="59.6911444595" lon="18.233904207">
        <ele>48.4</ele>
        <time>2012-09-16T14:04:31Z</time>
      </trkpt>
      <trkpt lat="59.6911118539" lon="18.2338138501">
        <ele>48</ele>
        <time>2012-09-16T14:04:32Z</time>
      </trkpt>
      <trkpt lat="59.6910782425" lon="18.2337115071">
        <ele>47.8</ele>
        <time>2012-09-16T14:04:33Z</time>
      </trkpt>
      <trkpt lat="59.6910492411" lon="18.2336139418">
        <ele>47.4</ele>
        <time>2012-09-16T14:04:34Z</time>
      </trkpt>
      <trkpt lat="59.6910200721" lon="18.2335074917">
        <ele>47</ele>
        <time>2012-09-16T14:04:35Z</time>
      </trkpt>
      <trkpt lat="59.6909356663" lon="18.233202642">
        <ele>47.6</ele>
        <time>2012-09-16T14:04:38Z</time>
      </trkpt>
      <trkpt lat="59.6909039828" lon="18.2330912465">
        <ele>48</ele>
        <time>2012-09-16T14:04:39Z</time>
      </trkpt>
      <trkpt lat="59.690876574" lon="18.2329695414">
        <ele>48.4</ele>
        <time>2012-09-16T14:04:40Z</time>
      </trkpt>
      <trkpt lat="59.6908558707" lon="18.2328315753">
        <ele>48.8</ele>
        <time>2012-09-16T14:04:41Z</time>
      </trkpt>
      <trkpt lat="59.6908438845" lon="18.2326905917">
        <ele>49.2</ele>
        <time>2012-09-16T14:04:42Z</time>
      </trkpt>
      <trkpt lat="59.6908227622" lon="18.2321203711">
        <ele>49.2</ele>
        <time>2012-09-16T14:04:46Z</time>
      </trkpt>
      <trkpt lat="59.6908281266" lon="18.2319865959">
        <ele>49.2</ele>
        <time>2012-09-16T14:04:47Z</time>
      </trkpt>
      <trkpt lat="59.6908440522" lon="18.2318571794">
        <ele>49.2</ele>
        <time>2012-09-16T14:04:48Z</time>
      </trkpt>
      <trkpt lat="59.6908966067" lon="18.2315348954">
        <ele>49.2</ele>
        <time>2012-09-16T14:04:51Z</time>
      </trkpt>
      <trkpt lat="59.6909691101" lon="18.2309495873">
        <ele>49.2</ele>
        <time>2012-09-16T14:04:57Z</time>
      </trkpt>
      <trkpt lat="59.6909971895" lon="18.2301460145">
        <ele>49.2</ele>
        <time>2012-09-16T14:05:05Z</time>
      </trkpt>
      <trkpt lat="59.6909591357" lon="18.2293588703">
        <ele>49.2</ele>
        <time>2012-09-16T14:05:12Z</time>
      </trkpt>
      <trkpt lat="59.6909415337" lon="18.229023259">
        <ele>49.8</ele>
        <time>2012-09-16T14:05:15Z</time>
      </trkpt>
      <trkpt lat="59.6909408631" lon="18.2289120312">
        <ele>50.2</ele>
        <time>2012-09-16T14:05:16Z</time>
      </trkpt>
      <trkpt lat="59.6909425395" lon="18.228801893">
        <ele>50.6</ele>
        <time>2012-09-16T14:05:17Z</time>
      </trkpt>
      <trkpt lat="59.6909476525" lon="18.2286867257">
        <ele>51.2</ele>
        <time>2012-09-16T14:05:18Z</time>
      </trkpt>
      <trkpt lat="59.6909567049" lon="18.2285802756">
        <ele>51.6</ele>
        <time>2012-09-16T14:05:19Z</time>
      </trkpt>
      <trkpt lat="59.6909899811" lon="18.2282772699">
        <ele>51.6</ele>
        <time>2012-09-16T14:05:22Z</time>
      </trkpt>
      <trkpt lat="59.6910046494" lon="18.2281898467">
        <ele>51.2</ele>
        <time>2012-09-16T14:05:23Z</time>
      </trkpt>
      <trkpt lat="59.6910193177" lon="18.228103094">
        <ele>50.8</ele>
        <time>2012-09-16T14:05:24Z</time>
      </trkpt>
      <trkpt lat="59.6910357462" lon="18.2280098873">
        <ele>50.4</ele>
        <time>2012-09-16T14:05:25Z</time>
      </trkpt>
      <trkpt lat="59.6910526777" lon="18.2279126573">
        <ele>49.8</ele>
        <time>2012-09-16T14:05:26Z</time>
      </trkpt>
      <trkpt lat="59.6910686033" lon="18.2278131641">
        <ele>49.4</ele>
        <time>2012-09-16T14:05:27Z</time>
      </trkpt>
      <trkpt lat="59.6911116862" lon="18.2275047102">
        <ele>49.4</ele>
        <time>2012-09-16T14:05:30Z</time>
      </trkpt>
      <trkpt lat="59.6911880454" lon="18.227046807">
        <ele>50</ele>
        <time>2012-09-16T14:05:34Z</time>
      </trkpt>
      <trkpt lat="59.6912040548" lon="18.226938429">
        <ele>50.4</ele>
        <time>2012-09-16T14:05:35Z</time>
      </trkpt>
      <trkpt lat="59.6912219082" lon="18.2268385168">
        <ele>50.8</ele>
        <time>2012-09-16T14:05:36Z</time>
      </trkpt>
      <trkpt lat="59.6912359898" lon="18.2267348327">
        <ele>51.2</ele>
        <time>2012-09-16T14:05:37Z</time>
      </trkpt>
      <trkpt lat="59.6912509934" lon="18.2266327411">
        <ele>51.8</ele>
        <time>2012-09-16T14:05:38Z</time>
      </trkpt>
      <trkpt lat="59.6912864489" lon="18.2264384487">
        <ele>51.8</ele>
        <time>2012-09-16T14:05:40Z</time>
      </trkpt>
      <trkpt lat="59.691361886" lon="18.2260331838">
        <ele>52.2</ele>
        <time>2012-09-16T14:05:44Z</time>
      </trkpt>
      <trkpt lat="59.6913802423" lon="18.2259287454">
        <ele>53</ele>
        <time>2012-09-16T14:05:45Z</time>
      </trkpt>
      <trkpt lat="59.6913982634" lon="18.2258203674">
        <ele>53.6</ele>
        <time>2012-09-16T14:05:46Z</time>
      </trkpt>
      <trkpt lat="59.6914175418" lon="18.2257142525">
        <ele>54</ele>
        <time>2012-09-16T14:05:47Z</time>
      </trkpt>
      <trkpt lat="59.6914343894" lon="18.225599672">
        <ele>54</ele>
        <time>2012-09-16T14:05:48Z</time>
      </trkpt>
      <trkpt lat="59.6915294401" lon="18.2247821853">
        <ele>54</ele>
        <time>2012-09-16T14:05:55Z</time>
      </trkpt>
      <trkpt lat="59.6916334595" lon="18.2238549795">
        <ele>54</ele>
        <time>2012-09-16T14:06:03Z</time>
      </trkpt>
      <trkpt lat="59.6916653107" lon="18.2236285844">
        <ele>53.6</ele>
        <time>2012-09-16T14:06:05Z</time>
      </trkpt>
      <trkpt lat="59.6916768778" lon="18.2235169375">
        <ele>53.2</ele>
        <time>2012-09-16T14:06:06Z</time>
      </trkpt>
      <trkpt lat="59.6916834156" lon="18.2233981659">
        <ele>52.6</ele>
        <time>2012-09-16T14:06:07Z</time>
      </trkpt>
      <trkpt lat="59.6916899535" lon="18.223293476">
        <ele>52.2</ele>
        <time>2012-09-16T14:06:08Z</time>
      </trkpt>
      <trkpt lat="59.6916986707" lon="18.2231935638">
        <ele>51.8</ele>
        <time>2012-09-16T14:06:09Z</time>
      </trkpt>
      <trkpt lat="59.6917023587" lon="18.2230929809">
        <ele>51.8</ele>
        <time>2012-09-16T14:06:10Z</time>
      </trkpt>
      <trkpt lat="59.6917015206" lon="18.2228715312">
        <ele>52.2</ele>
        <time>2012-09-16T14:06:12Z</time>
      </trkpt>
      <trkpt lat="59.6916973296" lon="18.2227550227">
        <ele>52.6</ele>
        <time>2012-09-16T14:06:13Z</time>
      </trkpt>
      <trkpt lat="59.6916956532" lon="18.2226303839">
        <ele>53</ele>
        <time>2012-09-16T14:06:14Z</time>
      </trkpt>
      <trkpt lat="59.6916976649" lon="18.2224999615">
        <ele>53.6</ele>
        <time>2012-09-16T14:06:15Z</time>
      </trkpt>
      <trkpt lat="59.6917016044" lon="18.2223652644">
        <ele>54</ele>
        <time>2012-09-16T14:06:16Z</time>
      </trkpt>
      <trkpt lat="59.6917183682" lon="18.2220990552">
        <ele>54</ele>
        <time>2012-09-16T14:06:18Z</time>
      </trkpt>
      <trkpt lat="59.6918074678" lon="18.2212016052">
        <ele>54</ele>
        <time>2012-09-16T14:06:25Z</time>
      </trkpt>
      <trkpt lat="59.691882402" lon="18.2207116832">
        <ele>54</ele>
        <time>2012-09-16T14:06:29Z</time>
      </trkpt>
      <trkpt lat="59.6919366328" lon="18.2204929994">
        <ele>54</ele>
        <time>2012-09-16T14:06:31Z</time>
      </trkpt>
      <trkpt lat="59.6921854076" lon="18.219899477">
        <ele>54.4</ele>
        <time>2012-09-16T14:06:37Z</time>
      </trkpt>
      <trkpt lat="59.6922299993" lon="18.2198097907">
        <ele>55</ele>
        <time>2012-09-16T14:06:38Z</time>
      </trkpt>
      <trkpt lat="59.692273669" lon="18.219727229">
        <ele>55.4</ele>
        <time>2012-09-16T14:06:39Z</time>
      </trkpt>
      <trkpt lat="59.6923187637" lon="18.2196553961">
        <ele>56</ele>
        <time>2012-09-16T14:06:40Z</time>
      </trkpt>
      <trkpt lat="59.6923671272" lon="18.2195978125">
        <ele>56.4</ele>
        <time>2012-09-16T14:06:41Z</time>
      </trkpt>
      <trkpt lat="59.6924092044" lon="18.2195408155">
        <ele>56.4</ele>
        <time>2012-09-16T14:06:42Z</time>
      </trkpt>
      <trkpt lat="59.692529317" lon="18.2193335312">
        <ele>56.4</ele>
        <time>2012-09-16T14:06:45Z</time>
      </trkpt>
      <trkpt lat="59.6926418021" lon="18.219098838">
        <ele>56.4</ele>
        <time>2012-09-16T14:06:48Z</time>
      </trkpt>
      <trkpt lat="59.6926787663" lon="18.2190158572">
        <ele>56.8</ele>
        <time>2012-09-16T14:06:49Z</time>
      </trkpt>
      <trkpt lat="59.6927188318" lon="18.2189301941">
        <ele>57.2</ele>
        <time>2012-09-16T14:06:50Z</time>
      </trkpt>
      <trkpt lat="59.6927618309" lon="18.2188462075">
        <ele>57.6</ele>
        <time>2012-09-16T14:06:51Z</time>
      </trkpt>
      <trkpt lat="59.6928068417" lon="18.2187566888">
        <ele>58</ele>
        <time>2012-09-16T14:06:52Z</time>
      </trkpt>
      <trkpt lat="59.6928464881" lon="18.2186713611">
        <ele>58.4</ele>
        <time>2012-09-16T14:06:53Z</time>
      </trkpt>
      <trkpt lat="59.6928898225" lon="18.2185790763">
        <ele>58.4</ele>
        <time>2012-09-16T14:06:54Z</time>
      </trkpt>
      <trkpt lat="59.6931110209" lon="18.2180905792">
        <ele>59</ele>
        <time>2012-09-16T14:06:59Z</time>
      </trkpt>
      <trkpt lat="59.6931511702" lon="18.2179974563">
        <ele>60</ele>
        <time>2012-09-16T14:07:00Z</time>
      </trkpt>
      <trkpt lat="59.6931888049" lon="18.2179093625">
        <ele>60.4</ele>
        <time>2012-09-16T14:07:01Z</time>
      </trkpt>
      <trkpt lat="59.6932261882" lon="18.2178226099">
        <ele>61</ele>
        <time>2012-09-16T14:07:02Z</time>
      </trkpt>
      <trkpt lat="59.6934027948" lon="18.2173828954">
        <ele>61</ele>
        <time>2012-09-16T14:07:07Z</time>
      </trkpt>
      <trkpt lat="59.693521231" lon="18.2169870183">
        <ele>61</ele>
        <time>2012-09-16T14:07:11Z</time>
      </trkpt>
      <trkpt lat="59.693555513" lon="18.2167533309">
        <ele>61</ele>
        <time>2012-09-16T14:07:13Z</time>
      </trkpt>
      <trkpt lat="59.6935658228" lon="18.2162270314">
        <ele>61</ele>
        <time>2012-09-16T14:07:17Z</time>
      </trkpt>
      <trkpt lat="59.6935099993" lon="18.2154471794">
        <ele>61</ele>
        <time>2012-09-16T14:07:23Z</time>
      </trkpt>
      <trkpt lat="59.6934817523" lon="18.2150955587">
        <ele>61</ele>
        <time>2012-09-16T14:07:26Z</time>
      </trkpt>
      <trkpt lat="59.6934520804" lon="18.2147516493">
        <ele>61</ele>
        <time>2012-09-16T14:07:29Z</time>
      </trkpt>
      <trkpt lat="59.6933654953" lon="18.2140270341">
        <ele>61</ele>
        <time>2012-09-16T14:07:35Z</time>
      </trkpt>
      <trkpt lat="59.6932696902" lon="18.2133527102">
        <ele>61</ele>
        <time>2012-09-16T14:07:40Z</time>
      </trkpt>
      <trkpt lat="59.6932550219" lon="18.2130685638">
        <ele>61</ele>
        <time>2012-09-16T14:07:42Z</time>
      </trkpt>
      <trkpt lat="59.6932748032" lon="18.2126555038">
        <ele>61</ele>
        <time>2012-09-16T14:07:45Z</time>
      </trkpt>
      <trkpt lat="59.6932925728" lon="18.2125166157">
        <ele>61</ele>
        <time>2012-09-16T14:07:46Z</time>
      </trkpt>
      <trkpt lat="59.6933277768" lon="18.2122455451">
        <ele>60.6</ele>
        <time>2012-09-16T14:07:48Z</time>
      </trkpt>
      <trkpt lat="59.6933391762" lon="18.2121007897">
        <ele>60</ele>
        <time>2012-09-16T14:07:49Z</time>
      </trkpt>
      <trkpt lat="59.6933450435" lon="18.2119685233">
        <ele>59.2</ele>
        <time>2012-09-16T14:07:50Z</time>
      </trkpt>
      <trkpt lat="59.693353593" lon="18.2118378494">
        <ele>58.6</ele>
        <time>2012-09-16T14:07:51Z</time>
      </trkpt>
      <trkpt lat="59.6934292816" lon="18.2112848117">
        <ele>58.6</ele>
        <time>2012-09-16T14:07:55Z</time>
      </trkpt>
      <trkpt lat="59.6934524995" lon="18.2111513718">
        <ele>58.6</ele>
        <time>2012-09-16T14:07:56Z</time>
      </trkpt>
      <trkpt lat="59.693501785" lon="18.2107548242">
        <ele>58.6</ele>
        <time>2012-09-16T14:07:59Z</time>
      </trkpt>
      <trkpt lat="59.6935020365" lon="18.2104555065">
        <ele>58.6</ele>
        <time>2012-09-16T14:08:01Z</time>
      </trkpt>
      <trkpt lat="59.6934813332" lon="18.2102961666">
        <ele>58.2</ele>
        <time>2012-09-16T14:08:02Z</time>
      </trkpt>
      <trkpt lat="59.693449482" lon="18.2101335577">
        <ele>57.8</ele>
        <time>2012-09-16T14:08:03Z</time>
      </trkpt>
      <trkpt lat="59.6934074887" lon="18.2099703621">
        <ele>57.4</ele>
        <time>2012-09-16T14:08:04Z</time>
      </trkpt>
      <trkpt lat="59.6933602986" lon="18.2098028918">
        <ele>57</ele>
        <time>2012-09-16T14:08:05Z</time>
      </trkpt>
      <trkpt lat="59.6933184729" lon="18.2096436357">
        <ele>56.6</ele>
        <time>2012-09-16T14:08:06Z</time>
      </trkpt>
      <trkpt lat="59.6932319717" lon="18.2091592457">
        <ele>56.6</ele>
        <time>2012-09-16T14:08:09Z</time>
      </trkpt>
      <trkpt lat="59.6932529264" lon="18.2086724249">
        <ele>56.6</ele>
        <time>2012-09-16T14:08:12Z</time>
      </trkpt>
      <trkpt lat="59.6933242564" lon="18.2084097362">
        <ele>56.6</ele>
        <time>2012-09-16T14:08:14Z</time>
      </trkpt>
      <trkpt lat="59.6933654953" lon="18.2082957423">
        <ele>56.6</ele>
        <time>2012-09-16T14:08:15Z</time>
      </trkpt>
      <trkpt lat="59.6934062314" lon="18.2081698462">
        <ele>56.6</ele>
        <time>2012-09-16T14:08:16Z</time>
      </trkpt>
      <trkpt lat="59.6936809062" lon="18.2074459015">
        <ele>56.6</ele>
        <time>2012-09-16T14:08:22Z</time>
      </trkpt>
      <trkpt lat="59.6938671521" lon="18.2069921054">
        <ele>56.6</ele>
        <time>2012-09-16T14:08:26Z</time>
      </trkpt>
      <trkpt lat="59.6938907052" lon="18.2068498646">
        <ele>56.6</ele>
        <time>2012-09-16T14:08:27Z</time>
      </trkpt>
      <trkpt lat="59.693856507" lon="18.2063765387">
        <ele>56.6</ele>
        <time>2012-09-16T14:08:30Z</time>
      </trkpt>
      <trkpt lat="59.6937538288" lon="18.2060751256">
        <ele>56.6</ele>
        <time>2012-09-16T14:08:32Z</time>
      </trkpt>
      <trkpt lat="59.6936963289" lon="18.2059359022">
        <ele>56.2</ele>
        <time>2012-09-16T14:08:33Z</time>
      </trkpt>
      <trkpt lat="59.6936352249" lon="18.2058109281">
        <ele>55.8</ele>
        <time>2012-09-16T14:08:34Z</time>
      </trkpt>
      <trkpt lat="59.6935687564" lon="18.205698443">
        <ele>55.2</ele>
        <time>2012-09-16T14:08:35Z</time>
      </trkpt>
      <trkpt lat="59.6935058922" lon="18.2056001233">
        <ele>54.8</ele>
        <time>2012-09-16T14:08:36Z</time>
      </trkpt>
      <trkpt lat="59.6934418544" lon="18.2055008816">
        <ele>54.4</ele>
        <time>2012-09-16T14:08:37Z</time>
      </trkpt>
      <trkpt lat="59.6933785711" lon="18.2054064176">
        <ele>54.4</ele>
        <time>2012-09-16T14:08:38Z</time>
      </trkpt>
      <trkpt lat="59.6930531857" lon="18.2049117178">
        <ele>54.4</ele>
        <time>2012-09-16T14:08:43Z</time>
      </trkpt>
      <trkpt lat="59.6930060795" lon="18.204780122">
        <ele>54.4</ele>
        <time>2012-09-16T14:08:44Z</time>
      </trkpt>
      <trkpt lat="59.6929193268" lon="18.2043839096">
        <ele>54.4</ele>
        <time>2012-09-16T14:08:47Z</time>
      </trkpt>
      <trkpt lat="59.6929051614" lon="18.2042567562">
        <ele>54.4</ele>
        <time>2012-09-16T14:08:48Z</time>
      </trkpt>
      <trkpt lat="59.6928578875" lon="18.2038764694">
        <ele>54.4</ele>
        <time>2012-09-16T14:08:52Z</time>
      </trkpt>
      <trkpt lat="59.6928022317" lon="18.2034606433">
        <ele>54.8</ele>
        <time>2012-09-16T14:08:55Z</time>
      </trkpt>
      <trkpt lat="59.6927863061" lon="18.2033217552">
        <ele>55.2</ele>
        <time>2012-09-16T14:08:56Z</time>
      </trkpt>
      <trkpt lat="59.6927709672" lon="18.2031764131">
        <ele>55.6</ele>
        <time>2012-09-16T14:08:57Z</time>
      </trkpt>
      <trkpt lat="59.6927539519" lon="18.2030282211">
        <ele>56</ele>
        <time>2012-09-16T14:08:58Z</time>
      </trkpt>
      <trkpt lat="59.69274096" lon="18.2028662828">
        <ele>56.6</ele>
        <time>2012-09-16T14:08:59Z</time>
      </trkpt>
      <trkpt lat="59.6927342545" lon="18.2023383069">
        <ele>56</ele>
        <time>2012-09-16T14:09:02Z</time>
      </trkpt>
      <trkpt lat="59.6927415467" lon="18.202138231">
        <ele>55.4</ele>
        <time>2012-09-16T14:09:03Z</time>
      </trkpt>
      <trkpt lat="59.6927528623" lon="18.2019305275">
        <ele>54.6</ele>
        <time>2012-09-16T14:09:04Z</time>
      </trkpt>
      <trkpt lat="59.6927821151" lon="18.2017213991">
        <ele>52.8</ele>
        <time>2012-09-16T14:09:05Z</time>
      </trkpt>
      <trkpt lat="59.6928236055" lon="18.2015060681">
        <ele>51.8</ele>
        <time>2012-09-16T14:09:06Z</time>
      </trkpt>
      <trkpt lat="59.6928660179" lon="18.2013049863">
        <ele>51</ele>
        <time>2012-09-16T14:09:07Z</time>
      </trkpt>
      <trkpt lat="59.6929100229" lon="18.2011101909">
        <ele>50</ele>
        <time>2012-09-16T14:09:08Z</time>
      </trkpt>
      <trkpt lat="59.6929443049" lon="18.200919838">
        <ele>49</ele>
        <time>2012-09-16T14:09:09Z</time>
      </trkpt>
      <trkpt lat="59.692972049" lon="18.2007378669">
        <ele>48.2</ele>
        <time>2012-09-16T14:09:10Z</time>
      </trkpt>
      <trkpt lat="59.6929881422" lon="18.2005628528">
        <ele>48.2</ele>
        <time>2012-09-16T14:09:11Z</time>
      </trkpt>
      <trkpt lat="59.6930106057" lon="18.2004013336">
        <ele>47.6</ele>
        <time>2012-09-16T14:09:12Z</time>
      </trkpt>
      <trkpt lat="59.6930242682" lon="18.200240485">
        <ele>47.2</ele>
        <time>2012-09-16T14:09:13Z</time>
      </trkpt>
      <trkpt lat="59.6930403614" lon="18.2000803907">
        <ele>46.8</ele>
        <time>2012-09-16T14:09:14Z</time>
      </trkpt>
      <trkpt lat="59.6930555327" lon="18.1999190391">
        <ele>46.4</ele>
        <time>2012-09-16T14:09:15Z</time>
      </trkpt>
      <trkpt lat="59.6930761522" lon="18.1997527422">
        <ele>45.8</ele>
        <time>2012-09-16T14:09:16Z</time>
      </trkpt>
      <trkpt lat="59.6931775731" lon="18.1988816113">
        <ele>45.8</ele>
        <time>2012-09-16T14:09:21Z</time>
      </trkpt>
      <trkpt lat="59.693190146" lon="18.1985396298">
        <ele>45.8</ele>
        <time>2012-09-16T14:09:23Z</time>
      </trkpt>
      <trkpt lat="59.6931703647" lon="18.1982025936">
        <ele>45.8</ele>
        <time>2012-09-16T14:09:25Z</time>
      </trkpt>
      <trkpt lat="59.6931349931" lon="18.1978736879">
        <ele>45.4</ele>
        <time>2012-09-16T14:09:27Z</time>
      </trkpt>
      <trkpt lat="59.6931220011" lon="18.197707391">
        <ele>45</ele>
        <time>2012-09-16T14:09:28Z</time>
      </trkpt>
      <trkpt lat="59.6931055726" lon="18.1975358973">
        <ele>43.4</ele>
        <time>2012-09-16T14:09:29Z</time>
      </trkpt>
      <trkpt lat="59.6930935865" lon="18.1973728693">
        <ele>42.6</ele>
        <time>2012-09-16T14:09:30Z</time>
      </trkpt>
      <trkpt lat="59.6930854561" lon="18.1972120207">
        <ele>41.8</ele>
        <time>2012-09-16T14:09:31Z</time>
      </trkpt>
      <trkpt lat="59.6930796726" lon="18.1970532675">
        <ele>41</ele>
        <time>2012-09-16T14:09:32Z</time>
      </trkpt>
      <trkpt lat="59.6930362543" lon="18.1964523691">
        <ele>41</ele>
        <time>2012-09-16T14:09:36Z</time>
      </trkpt>
      <trkpt lat="59.6930026429" lon="18.1961719945">
        <ele>40.6</ele>
        <time>2012-09-16T14:09:38Z</time>
      </trkpt>
      <trkpt lat="59.6929736415" lon="18.1960372136">
        <ele>40.2</ele>
        <time>2012-09-16T14:09:39Z</time>
      </trkpt>
      <trkpt lat="59.6929577159" lon="18.1958988284">
        <ele>39.8</ele>
        <time>2012-09-16T14:09:40Z</time>
      </trkpt>
      <trkpt lat="59.6929484958" lon="18.1957599403">
        <ele>39.4</ele>
        <time>2012-09-16T14:09:41Z</time>
      </trkpt>
      <trkpt lat="59.6929436343" lon="18.1956167775">
        <ele>39</ele>
        <time>2012-09-16T14:09:42Z</time>
      </trkpt>
      <trkpt lat="59.6929822749" lon="18.1951815054">
        <ele>39.6</ele>
        <time>2012-09-16T14:09:45Z</time>
      </trkpt>
      <trkpt lat="59.6930070853" lon="18.1950489876">
        <ele>40.2</ele>
        <time>2012-09-16T14:09:46Z</time>
      </trkpt>
      <trkpt lat="59.6930397747" lon="18.1949169726">
        <ele>40.8</ele>
        <time>2012-09-16T14:09:47Z</time>
      </trkpt>
      <trkpt lat="59.6930764874" lon="18.1947864665">
        <ele>40.4</ele>
        <time>2012-09-16T14:09:48Z</time>
      </trkpt>
      <trkpt lat="59.6931192351" lon="18.1946646775">
        <ele>40</ele>
        <time>2012-09-16T14:09:49Z</time>
      </trkpt>
      <trkpt lat="59.693163743" lon="18.1945501807">
        <ele>39.6</ele>
        <time>2012-09-16T14:09:50Z</time>
      </trkpt>
      <trkpt lat="59.6932095082" lon="18.1944359354">
        <ele>39.2</ele>
        <time>2012-09-16T14:09:51Z</time>
      </trkpt>
      <trkpt lat="59.6932525911" lon="18.1943317484">
        <ele>39</ele>
        <time>2012-09-16T14:09:52Z</time>
      </trkpt>
      <trkpt lat="59.6933240049" lon="18.1941185967">
        <ele>39</ele>
        <time>2012-09-16T14:09:54Z</time>
      </trkpt>
      <trkpt lat="59.6933593766" lon="18.1940346938">
        <ele>38.4</ele>
        <time>2012-09-16T14:09:55Z</time>
      </trkpt>
      <trkpt lat="59.6933991906" lon="18.1939510425">
        <ele>38</ele>
        <time>2012-09-16T14:09:56Z</time>
      </trkpt>
      <trkpt lat="59.693437915" lon="18.1938564947">
        <ele>37.6</ele>
        <time>2012-09-16T14:09:57Z</time>
      </trkpt>
      <trkpt lat="59.6934708558" lon="18.1937580911">
        <ele>37.2</ele>
        <time>2012-09-16T14:09:58Z</time>
      </trkpt>
      <trkpt lat="59.693500863" lon="18.193653988">
        <ele>36.8</ele>
        <time>2012-09-16T14:09:59Z</time>
      </trkpt>
      <trkpt lat="59.6936407569" lon="18.1931280237">
        <ele>36.8</ele>
        <time>2012-09-16T14:10:04Z</time>
      </trkpt>
      <trkpt lat="59.6937810699" lon="18.1925279635">
        <ele>36.8</ele>
        <time>2012-09-16T14:10:10Z</time>
      </trkpt>
      <trkpt lat="59.6939157671" lon="18.1919931983">
        <ele>36.8</ele>
        <time>2012-09-16T14:10:15Z</time>
      </trkpt>
      <trkpt lat="59.6939954789" lon="18.1916684835">
        <ele>37.2</ele>
        <time>2012-09-16T14:10:18Z</time>
      </trkpt>
      <trkpt lat="59.6940245641" lon="18.1915622848">
        <ele>38.2</ele>
        <time>2012-09-16T14:10:19Z</time>
      </trkpt>
      <trkpt lat="59.6940542361" lon="18.1914558347">
        <ele>38.6</ele>
        <time>2012-09-16T14:10:20Z</time>
      </trkpt>
      <trkpt lat="59.6940808905" lon="18.1913466185">
        <ele>39.2</ele>
        <time>2012-09-16T14:10:21Z</time>
      </trkpt>
      <trkpt lat="59.6941671403" lon="18.1910226581">
        <ele>39.2</ele>
        <time>2012-09-16T14:10:24Z</time>
      </trkpt>
      <trkpt lat="59.6942232152" lon="18.1907121925">
        <ele>39.2</ele>
        <time>2012-09-16T14:10:27Z</time>
      </trkpt>
      <trkpt lat="59.6941796293" lon="18.1903983742">
        <ele>39.2</ele>
        <time>2012-09-16T14:10:30Z</time>
      </trkpt>
      <trkpt lat="59.6940495422" lon="18.1902189177">
        <ele>39.2</ele>
        <time>2012-09-16T14:10:33Z</time>
      </trkpt>
      <trkpt lat="59.6939622028" lon="18.1901546285">
        <ele>39.2</ele>
        <time>2012-09-16T14:10:35Z</time>
      </trkpt>
      <trkpt lat="59.6937845065" lon="18.1899776866">
        <ele>39.2</ele>
        <time>2012-09-16T14:10:39Z</time>
      </trkpt>
      <trkpt lat="59.6935407609" lon="18.1896355375">
        <ele>39.6</ele>
        <time>2012-09-16T14:10:45Z</time>
      </trkpt>
      <trkpt lat="59.6935000248" lon="18.1895620282">
        <ele>40</ele>
        <time>2012-09-16T14:10:46Z</time>
      </trkpt>
      <trkpt lat="59.6934558522" lon="18.1894865073">
        <ele>40.4</ele>
        <time>2012-09-16T14:10:47Z</time>
      </trkpt>
      <trkpt lat="59.6934159544" lon="18.1894218828">
        <ele>40.8</ele>
        <time>2012-09-16T14:10:48Z</time>
      </trkpt>
      <trkpt lat="59.6933770624" lon="18.1893550791">
        <ele>41.4</ele>
        <time>2012-09-16T14:10:49Z</time>
      </trkpt>
      <trkpt lat="59.6933367454" lon="18.1892945618">
        <ele>41.4</ele>
        <time>2012-09-16T14:10:50Z</time>
      </trkpt>
      <trkpt lat="59.6932157108" lon="18.1891162787">
        <ele>41.8</ele>
        <time>2012-09-16T14:10:53Z</time>
      </trkpt>
      <trkpt lat="59.6931791657" lon="18.1890528278">
        <ele>42.2</ele>
        <time>2012-09-16T14:10:54Z</time>
      </trkpt>
      <trkpt lat="59.6931439617" lon="18.188986024">
        <ele>42.6</ele>
        <time>2012-09-16T14:10:55Z</time>
      </trkpt>
      <trkpt lat="59.6931147927" lon="18.1889141073">
        <ele>43</ele>
        <time>2012-09-16T14:10:56Z</time>
      </trkpt>
      <trkpt lat="59.6930820195" lon="18.1888483932">
        <ele>43.4</ele>
        <time>2012-09-16T14:10:57Z</time>
      </trkpt>
      <trkpt lat="59.6930493301" lon="18.1887860319">
        <ele>43.4</ele>
        <time>2012-09-16T14:10:58Z</time>
      </trkpt>
      <trkpt lat="59.6929441372" lon="18.1886792465">
        <ele>43.4</ele>
        <time>2012-09-16T14:11:01Z</time>
      </trkpt>
      <trkpt lat="59.6928930915" lon="18.1887375007">
        <ele>43.4</ele>
        <time>2012-09-16T14:11:02Z</time>
      </trkpt>
      <trkpt lat="59.6927092764" lon="18.1890208089">
        <ele>43.4</ele>
        <time>2012-09-16T14:11:05Z</time>
      </trkpt>
      <trkpt lat="59.6925622579" lon="18.189225914">
        <ele>43</ele>
        <time>2012-09-16T14:11:07Z</time>
      </trkpt>
      <trkpt lat="59.6924859826" lon="18.1893100683">
        <ele>42.2</ele>
        <time>2012-09-16T14:11:08Z</time>
      </trkpt>
      <trkpt lat="59.6924085338" lon="18.1893802248">
        <ele>41.6</ele>
        <time>2012-09-16T14:11:09Z</time>
      </trkpt>
      <trkpt lat="59.6923273132" lon="18.1894425023">
        <ele>41.2</ele>
        <time>2012-09-16T14:11:10Z</time>
      </trkpt>
      <trkpt lat="59.6919854155" lon="18.1896470207">
        <ele>40.8</ele>
        <time>2012-09-16T14:11:14Z</time>
      </trkpt>
      <trkpt lat="59.6918943043" lon="18.1897049396">
        <ele>40.4</ele>
        <time>2012-09-16T14:11:15Z</time>
      </trkpt>
      <trkpt lat="59.6918072163" lon="18.1897632776">
        <ele>39.8</ele>
        <time>2012-09-16T14:11:16Z</time>
      </trkpt>
      <trkpt lat="59.6917196255" lon="18.1898211127">
        <ele>39.2</ele>
        <time>2012-09-16T14:11:17Z</time>
      </trkpt>
      <trkpt lat="59.691635555" lon="18.1898932809">
        <ele>38.6</ele>
        <time>2012-09-16T14:11:18Z</time>
      </trkpt>
      <trkpt lat="59.6915506464" lon="18.1899609228">
        <ele>38</ele>
        <time>2012-09-16T14:11:19Z</time>
      </trkpt>
      <trkpt lat="59.6914664083" lon="18.1900308279">
        <ele>37.4</ele>
        <time>2012-09-16T14:11:20Z</time>
      </trkpt>
      <trkpt lat="59.6913826731" lon="18.1900989727">
        <ele>36.8</ele>
        <time>2012-09-16T14:11:21Z</time>
      </trkpt>
      <trkpt lat="59.691296591" lon="18.1901621722">
        <ele>36.8</ele>
        <time>2012-09-16T14:11:22Z</time>
      </trkpt>
      <trkpt lat="59.6910333155" lon="18.190294271">
        <ele>36.4</ele>
        <time>2012-09-16T14:11:25Z</time>
      </trkpt>
      <trkpt lat="59.6909460599" lon="18.1903299779">
        <ele>36</ele>
        <time>2012-09-16T14:11:26Z</time>
      </trkpt>
      <trkpt lat="59.6908603131" lon="18.1903588954">
        <ele>35.6</ele>
        <time>2012-09-16T14:11:27Z</time>
      </trkpt>
      <trkpt lat="59.6907753206" lon="18.1903820295">
        <ele>35.2</ele>
        <time>2012-09-16T14:11:28Z</time>
      </trkpt>
      <trkpt lat="59.6906923398" lon="18.1904043253">
        <ele>34.8</ele>
        <time>2012-09-16T14:11:29Z</time>
      </trkpt>
      <trkpt lat="59.6902035912" lon="18.190528126">
        <ele>34.8</ele>
        <time>2012-09-16T14:11:35Z</time>
      </trkpt>
      <trkpt lat="59.6895977475" lon="18.1906882203">
        <ele>34.8</ele>
        <time>2012-09-16T14:11:43Z</time>
      </trkpt>
      <trkpt lat="59.6890965937" lon="18.1907906471">
        <ele>34.8</ele>
        <time>2012-09-16T14:11:50Z</time>
      </trkpt>
      <trkpt lat="59.689029287" lon="18.1907700276">
        <ele>34.8</ele>
        <time>2012-09-16T14:11:51Z</time>
      </trkpt>
      <trkpt lat="59.6889167181" lon="18.1906591351">
        <ele>34.8</ele>
        <time>2012-09-16T14:11:53Z</time>
      </trkpt>
      <trkpt lat="59.6888238466" lon="18.1904419601">
        <ele>34.8</ele>
        <time>2012-09-16T14:11:56Z</time>
      </trkpt>
      <trkpt lat="59.6888050712" lon="18.1903724741">
        <ele>34.8</ele>
        <time>2012-09-16T14:11:57Z</time>
      </trkpt>
      <trkpt lat="59.6887709569" lon="18.1902370226">
        <ele>34.8</ele>
        <time>2012-09-16T14:11:59Z</time>
      </trkpt>
      <trkpt lat="59.6887354176" lon="18.1900898364">
        <ele>34.8</ele>
        <time>2012-09-16T14:12:01Z</time>
      </trkpt>
      <trkpt lat="59.6887111939" lon="18.1900190094">
        <ele>34.8</ele>
        <time>2012-09-16T14:12:02Z</time>
      </trkpt>
      <trkpt lat="59.6886581365" lon="18.1898761818">
        <ele>35.2</ele>
        <time>2012-09-16T14:12:04Z</time>
      </trkpt>
      <trkpt lat="59.6886311468" lon="18.1898113897">
        <ele>35.6</ele>
        <time>2012-09-16T14:12:05Z</time>
      </trkpt>
      <trkpt lat="59.6886049952" lon="18.1897496989">
        <ele>36</ele>
        <time>2012-09-16T14:12:06Z</time>
      </trkpt>
      <trkpt lat="59.6885777541" lon="18.1896864994">
        <ele>36.6</ele>
        <time>2012-09-16T14:12:07Z</time>
      </trkpt>
      <trkpt lat="59.6885505129" lon="18.1896191927">
        <ele>37</ele>
        <time>2012-09-16T14:12:08Z</time>
      </trkpt>
      <trkpt lat="59.6884921749" lon="18.1894937157">
        <ele>37</ele>
        <time>2012-09-16T14:12:10Z</time>
      </trkpt>
      <trkpt lat="59.6883330864" lon="18.1891913806">
        <ele>37.4</ele>
        <time>2012-09-16T14:12:15Z</time>
      </trkpt>
      <trkpt lat="59.6882931886" lon="18.1891332102">
        <ele>37.8</ele>
        <time>2012-09-16T14:12:16Z</time>
      </trkpt>
      <trkpt lat="59.6882527878" lon="18.1890990959">
        <ele>38.4</ele>
        <time>2012-09-16T14:12:17Z</time>
      </trkpt>
      <trkpt lat="59.6882094534" lon="18.1890826673">
        <ele>38.8</ele>
        <time>2012-09-16T14:12:18Z</time>
      </trkpt>
      <trkpt lat="59.688163772" lon="18.1890750398">
        <ele>39.2</ele>
        <time>2012-09-16T14:12:19Z</time>
      </trkpt>
      <trkpt lat="59.6880743371" lon="18.1890894567">
        <ele>39.2</ele>
        <time>2012-09-16T14:12:21Z</time>
      </trkpt>
      <trkpt lat="59.6879297494" lon="18.1892755348">
        <ele>39.2</ele>
        <time>2012-09-16T14:12:25Z</time>
      </trkpt>
      <trkpt lat="59.687831262" lon="18.1894382275">
        <ele>39.6</ele>
        <time>2012-09-16T14:12:28Z</time>
      </trkpt>
      <trkpt lat="59.6878031827" lon="18.1894989125">
        <ele>40</ele>
        <time>2012-09-16T14:12:29Z</time>
      </trkpt>
      <trkpt lat="59.6877730917" lon="18.1895592622">
        <ele>40.4</ele>
        <time>2012-09-16T14:12:30Z</time>
      </trkpt>
      <trkpt lat="59.6877425815" lon="18.1896225455">
        <ele>40.8</ele>
        <time>2012-09-16T14:12:31Z</time>
      </trkpt>
      <trkpt lat="59.6877137478" lon="18.1896836496">
        <ele>41.2</ele>
        <time>2012-09-16T14:12:32Z</time>
      </trkpt>
      <trkpt lat="59.6876514703" lon="18.1897966376">
        <ele>41.2</ele>
        <time>2012-09-16T14:12:34Z</time>
      </trkpt>
      <trkpt lat="59.6875524801" lon="18.1899508645">
        <ele>41.2</ele>
        <time>2012-09-16T14:12:37Z</time>
      </trkpt>
      <trkpt lat="59.6873764602" lon="18.1902426385">
        <ele>41.2</ele>
        <time>2012-09-16T14:12:42Z</time>
      </trkpt>
      <trkpt lat="59.6872918868" lon="18.1903561294">
        <ele>41.6</ele>
        <time>2012-09-16T14:12:44Z</time>
      </trkpt>
      <trkpt lat="59.68724872" lon="18.1904080134">
        <ele>42.2</ele>
        <time>2012-09-16T14:12:45Z</time>
      </trkpt>
      <trkpt lat="59.6872038768" lon="18.1904584724">
        <ele>43</ele>
        <time>2012-09-16T14:12:46Z</time>
      </trkpt>
      <trkpt lat="59.6871572735" lon="18.1905057463">
        <ele>43.4</ele>
        <time>2012-09-16T14:12:47Z</time>
      </trkpt>
      <trkpt lat="59.6870665813" lon="18.1905849553">
        <ele>43.4</ele>
        <time>2012-09-16T14:12:49Z</time>
      </trkpt>
      <trkpt lat="59.6869752186" lon="18.1906405273">
        <ele>43.4</ele>
        <time>2012-09-16T14:12:51Z</time>
      </trkpt>
      <trkpt lat="59.6868837721" lon="18.1906951773">
        <ele>43.8</ele>
        <time>2012-09-16T14:12:53Z</time>
      </trkpt>
      <trkpt lat="59.6868357438" lon="18.1907272799">
        <ele>44.4</ele>
        <time>2012-09-16T14:12:54Z</time>
      </trkpt>
      <trkpt lat="59.6867905653" lon="18.1907575386">
        <ele>44.8</ele>
        <time>2012-09-16T14:12:55Z</time>
      </trkpt>
      <trkpt lat="59.686743962" lon="18.1907810079">
        <ele>45.2</ele>
        <time>2012-09-16T14:12:56Z</time>
      </trkpt>
      <trkpt lat="59.6866950117" lon="18.1908100931">
        <ele>45.8</ele>
        <time>2012-09-16T14:12:57Z</time>
      </trkpt>
      <trkpt lat="59.6866019726" lon="18.1908759748">
        <ele>45.8</ele>
        <time>2012-09-16T14:12:59Z</time>
      </trkpt>
      <trkpt lat="59.6865124539" lon="18.1909635657">
        <ele>45.8</ele>
        <time>2012-09-16T14:13:01Z</time>
      </trkpt>
      <trkpt lat="59.6863958617" lon="18.1911311199">
        <ele>45.8</ele>
        <time>2012-09-16T14:13:04Z</time>
      </trkpt>
      <trkpt lat="59.686363759" lon="18.191186189">
        <ele>46.2</ele>
        <time>2012-09-16T14:13:05Z</time>
      </trkpt>
      <trkpt lat="59.6863377751" lon="18.1912488856">
        <ele>46.6</ele>
        <time>2012-09-16T14:13:06Z</time>
      </trkpt>
      <trkpt lat="59.6863128809" lon="18.191306553">
        <ele>47</ele>
        <time>2012-09-16T14:13:07Z</time>
      </trkpt>
      <trkpt lat="59.6862904174" lon="18.1913669027">
        <ele>47.4</ele>
        <time>2012-09-16T14:13:08Z</time>
      </trkpt>
      <trkpt lat="59.6862639306" lon="18.1914293479">
        <ele>47.8</ele>
        <time>2012-09-16T14:13:09Z</time>
      </trkpt>
      <trkpt lat="59.6862332528" lon="18.1914889432">
        <ele>47.8</ele>
        <time>2012-09-16T14:13:10Z</time>
      </trkpt>
      <trkpt lat="59.6861991385" lon="18.1915435932">
        <ele>48.8</ele>
        <time>2012-09-16T14:13:11Z</time>
      </trkpt>
      <trkpt lat="59.686166952" lon="18.1916026856">
        <ele>49.2</ele>
        <time>2012-09-16T14:13:12Z</time>
      </trkpt>
      <trkpt lat="59.6861330891" lon="18.1916606883">
        <ele>49.6</ele>
        <time>2012-09-16T14:13:13Z</time>
      </trkpt>
      <trkpt lat="59.686099813" lon="18.1917269891">
        <ele>50</ele>
        <time>2012-09-16T14:13:14Z</time>
      </trkpt>
      <trkpt lat="59.6859429038" lon="18.1920897578">
        <ele>50.6</ele>
        <time>2012-09-16T14:13:19Z</time>
      </trkpt>
      <trkpt lat="59.685918261" lon="18.1921789412">
        <ele>51</ele>
        <time>2012-09-16T14:13:20Z</time>
      </trkpt>
      <trkpt lat="59.6858983959" lon="18.1922682084">
        <ele>51.4</ele>
        <time>2012-09-16T14:13:21Z</time>
      </trkpt>
      <trkpt lat="59.6858820512" lon="18.192359655">
        <ele>51.8</ele>
        <time>2012-09-16T14:13:22Z</time>
      </trkpt>
      <trkpt lat="59.6858714062" lon="18.1924547057">
        <ele>52.2</ele>
        <time>2012-09-16T14:13:23Z</time>
      </trkpt>
      <trkpt lat="59.6858604259" lon="18.1925459846">
        <ele>52.2</ele>
        <time>2012-09-16T14:13:24Z</time>
      </trkpt>
      <trkpt lat="59.685847434" lon="18.1927315599">
        <ele>52.2</ele>
        <time>2012-09-16T14:13:26Z</time>
      </trkpt>
      <trkpt lat="59.6858321789" lon="18.1931064822">
        <ele>52.2</ele>
        <time>2012-09-16T14:13:30Z</time>
      </trkpt>
      <trkpt lat="59.6858094639" lon="18.1933052171">
        <ele>52.2</ele>
        <time>2012-09-16T14:13:32Z</time>
      </trkpt>
      <trkpt lat="59.6857511259" lon="18.1935773774">
        <ele>52.2</ele>
        <time>2012-09-16T14:13:35Z</time>
      </trkpt>
      <trkpt lat="59.6856880102" lon="18.1937455183">
        <ele>52.2</ele>
        <time>2012-09-16T14:13:37Z</time>
      </trkpt>
      <trkpt lat="59.6855298438" lon="18.1942208558">
        <ele>52.2</ele>
        <time>2012-09-16T14:13:42Z</time>
      </trkpt>
      <trkpt lat="59.685515846" lon="18.1943260487">
        <ele>52.2</ele>
        <time>2012-09-16T14:13:43Z</time>
      </trkpt>
      <trkpt lat="59.6854385649" lon="18.1947358398">
        <ele>52.2</ele>
        <time>2012-09-16T14:13:47Z</time>
      </trkpt>
      <trkpt lat="59.6853978288" lon="18.1948384342">
        <ele>52.2</ele>
        <time>2012-09-16T14:13:48Z</time>
      </trkpt>
      <trkpt lat="59.6851625489" lon="18.195233557">
        <ele>52.2</ele>
        <time>2012-09-16T14:13:52Z</time>
      </trkpt>
      <trkpt lat="59.6847959246" lon="18.1957072182">
        <ele>51.8</ele>
        <time>2012-09-16T14:13:57Z</time>
      </trkpt>
      <trkpt lat="59.6847238403" lon="18.1957959825">
        <ele>51.4</ele>
        <time>2012-09-16T14:13:58Z</time>
      </trkpt>
      <trkpt lat="59.6846556116" lon="18.1958819808">
        <ele>51</ele>
        <time>2012-09-16T14:13:59Z</time>
      </trkpt>
      <trkpt lat="59.6845914901" lon="18.1959671409">
        <ele>50.6</ele>
        <time>2012-09-16T14:14:00Z</time>
      </trkpt>
      <trkpt lat="59.6845317271" lon="18.1960548994">
        <ele>49.6</ele>
        <time>2012-09-16T14:14:01Z</time>
      </trkpt>
      <trkpt lat="59.6844699525" lon="18.1961208649">
        <ele>49</ele>
        <time>2012-09-16T14:14:02Z</time>
      </trkpt>
      <trkpt lat="59.684409519" lon="18.1961922787">
        <ele>48.6</ele>
        <time>2012-09-16T14:14:03Z</time>
      </trkpt>
      <trkpt lat="59.6843488341" lon="18.1962692246">
        <ele>48</ele>
        <time>2012-09-16T14:14:04Z</time>
      </trkpt>
      <trkpt lat="59.684045074" lon="18.1965932688">
        <ele>48</ele>
        <time>2012-09-16T14:14:09Z</time>
      </trkpt>
      <trkpt lat="59.6835834828" lon="18.1969732204">
        <ele>48</ele>
        <time>2012-09-16T14:14:16Z</time>
      </trkpt>
      <trkpt lat="59.6832306886" lon="18.1972237553">
        <ele>48</ele>
        <time>2012-09-16T14:14:21Z</time>
      </trkpt>
      <trkpt lat="59.6831775473" lon="18.1972763099">
        <ele>48</ele>
        <time>2012-09-16T14:14:22Z</time>
      </trkpt>
      <trkpt lat="59.6830776351" lon="18.197401284">
        <ele>48</ele>
        <time>2012-09-16T14:14:24Z</time>
      </trkpt>
      <trkpt lat="59.6829233243" lon="18.1976011923">
        <ele>48</ele>
        <time>2012-09-16T14:14:27Z</time>
      </trkpt>
      <trkpt lat="59.6827213205" lon="18.1978249052">
        <ele>48.4</ele>
        <time>2012-09-16T14:14:31Z</time>
      </trkpt>
      <trkpt lat="59.6826726217" lon="18.1978793876">
        <ele>49</ele>
        <time>2012-09-16T14:14:32Z</time>
      </trkpt>
      <trkpt lat="59.6826205701" lon="18.1979415813">
        <ele>49.4</ele>
        <time>2012-09-16T14:14:33Z</time>
      </trkpt>
      <trkpt lat="59.6825660039" lon="18.1980062895">
        <ele>49.8</ele>
        <time>2012-09-16T14:14:34Z</time>
      </trkpt>
      <trkpt lat="59.6825091746" lon="18.1980747696">
        <ele>50.2</ele>
        <time>2012-09-16T14:14:35Z</time>
      </trkpt>
      <trkpt lat="59.682207091" lon="18.1984686351">
        <ele>50.2</ele>
        <time>2012-09-16T14:14:40Z</time>
      </trkpt>
      <trkpt lat="59.6818660315" lon="18.198869709">
        <ele>50.2</ele>
        <time>2012-09-16T14:14:45Z</time>
      </trkpt>
      <trkpt lat="59.6816367865" lon="18.1990909912">
        <ele>50.2</ele>
        <time>2012-09-16T14:14:49Z</time>
      </trkpt>
      <trkpt lat="59.6814785362" lon="18.1991795879">
        <ele>50.2</ele>
        <time>2012-09-16T14:14:52Z</time>
      </trkpt>
      <trkpt lat="59.6813709964" lon="18.1991799232">
        <ele>50.2</ele>
        <time>2012-09-16T14:14:54Z</time>
      </trkpt>
      <trkpt lat="59.6812503809" lon="18.1991540231">
        <ele>50.2</ele>
        <time>2012-09-16T14:14:56Z</time>
      </trkpt>
      <trkpt lat="59.6811921267" lon="18.1991289612">
        <ele>50.6</ele>
        <time>2012-09-16T14:14:57Z</time>
      </trkpt>
      <trkpt lat="59.6811403266" lon="18.1990950145">
        <ele>51.2</ele>
        <time>2012-09-16T14:14:58Z</time>
      </trkpt>
      <trkpt lat="59.681089197" lon="18.1990547814">
        <ele>51.6</ele>
        <time>2012-09-16T14:14:59Z</time>
      </trkpt>
      <trkpt lat="59.6810387379" lon="18.1990059987">
        <ele>52</ele>
        <time>2012-09-16T14:15:00Z</time>
      </trkpt>
      <trkpt lat="59.6809875245" lon="18.1989606527">
        <ele>52.4</ele>
        <time>2012-09-16T14:15:01Z</time>
      </trkpt>
      <trkpt lat="59.6808205571" lon="18.1988238601">
        <ele>52.4</ele>
        <time>2012-09-16T14:15:04Z</time>
      </trkpt>
      <trkpt lat="59.6805060682" lon="18.198565949">
        <ele>52.4</ele>
        <time>2012-09-16T14:15:08Z</time>
      </trkpt>
      <trkpt lat="59.6801632485" lon="18.1983145758">
        <ele>52.4</ele>
        <time>2012-09-16T14:15:13Z</time>
      </trkpt>
      <trkpt lat="59.679919419" lon="18.1981119015">
        <ele>52.4</ele>
        <time>2012-09-16T14:15:18Z</time>
      </trkpt>
      <trkpt lat="59.6798760846" lon="18.1980788768">
        <ele>52.4</ele>
        <time>2012-09-16T14:15:19Z</time>
      </trkpt>
      <trkpt lat="59.6795603384" lon="18.1978180321">
        <ele>52.4</ele>
        <time>2012-09-16T14:15:26Z</time>
      </trkpt>
      <trkpt lat="59.6793731706" lon="18.197710157">
        <ele>52.8</ele>
        <time>2012-09-16T14:15:30Z</time>
      </trkpt>
      <trkpt lat="59.6793242203" lon="18.1976873582">
        <ele>53.4</ele>
        <time>2012-09-16T14:15:31Z</time>
      </trkpt>
      <trkpt lat="59.6792804668" lon="18.1976572672">
        <ele>53.8</ele>
        <time>2012-09-16T14:15:32Z</time>
      </trkpt>
      <trkpt lat="59.6792353721" lon="18.1976210574">
        <ele>54.2</ele>
        <time>2012-09-16T14:15:33Z</time>
      </trkpt>
      <trkpt lat="59.6791868409" lon="18.1976036231">
        <ele>54.6</ele>
        <time>2012-09-16T14:15:34Z</time>
      </trkpt>
      <trkpt lat="59.6790434266" lon="18.1975586122">
        <ele>55</ele>
        <time>2012-09-16T14:15:37Z</time>
      </trkpt>
      <trkpt lat="59.6790000922" lon="18.1975407588">
        <ele>56</ele>
        <time>2012-09-16T14:15:38Z</time>
      </trkpt>
      <trkpt lat="59.6789544947" lon="18.1975255876">
        <ele>56.4</ele>
        <time>2012-09-16T14:15:39Z</time>
      </trkpt>
      <trkpt lat="59.6789118308" lon="18.1975137691">
        <ele>56.8</ele>
        <time>2012-09-16T14:15:40Z</time>
      </trkpt>
      <trkpt lat="59.6788715139" lon="18.1975046328">
        <ele>57.2</ele>
        <time>2012-09-16T14:15:41Z</time>
      </trkpt>
      <trkpt lat="59.6788294367" lon="18.1975103325">
        <ele>57.8</ele>
        <time>2012-09-16T14:15:42Z</time>
      </trkpt>
      <trkpt lat="59.6787917182" lon="18.1975119251">
        <ele>58.2</ele>
        <time>2012-09-16T14:15:43Z</time>
      </trkpt>
      <trkpt lat="59.6787571009" lon="18.1975111707">
        <ele>58.8</ele>
        <time>2012-09-16T14:15:44Z</time>
      </trkpt>
      <trkpt lat="59.6787240762" lon="18.1975187144">
        <ele>59.2</ele>
        <time>2012-09-16T14:15:45Z</time>
      </trkpt>
      <trkpt lat="59.6785677538" lon="18.1975603724">
        <ele>59.8</ele>
        <time>2012-09-16T14:15:49Z</time>
      </trkpt>
      <trkpt lat="59.6785369084" lon="18.1975734482">
        <ele>60.2</ele>
        <time>2012-09-16T14:15:50Z</time>
      </trkpt>
      <trkpt lat="59.6785046381" lon="18.1975813272">
        <ele>60.6</ele>
        <time>2012-09-16T14:15:51Z</time>
      </trkpt>
      <trkpt lat="59.6784735412" lon="18.1976004379">
        <ele>61</ele>
        <time>2012-09-16T14:15:52Z</time>
      </trkpt>
      <trkpt lat="59.6784327214" lon="18.1976172855">
        <ele>61.4</ele>
        <time>2012-09-16T14:15:53Z</time>
      </trkpt>
      <trkpt lat="59.6783450467" lon="18.1976462869">
        <ele>61.8</ele>
        <time>2012-09-16T14:15:55Z</time>
      </trkpt>
      <trkpt lat="59.6782981919" lon="18.1976596141">
        <ele>62.2</ele>
        <time>2012-09-16T14:15:56Z</time>
      </trkpt>
      <trkpt lat="59.6782577073" lon="18.1976779705">
        <ele>62.6</ele>
        <time>2012-09-16T14:15:57Z</time>
      </trkpt>
      <trkpt lat="59.6782192344" lon="18.1977037029">
        <ele>63</ele>
        <time>2012-09-16T14:15:58Z</time>
      </trkpt>
      <trkpt lat="59.6781804262" lon="18.1977202991">
        <ele>63.4</ele>
        <time>2012-09-16T14:15:59Z</time>
      </trkpt>
      <trkpt lat="59.6780520993" lon="18.1977914614">
        <ele>63.4</ele>
        <time>2012-09-16T14:16:02Z</time>
      </trkpt>
      <trkpt lat="59.6779544502" lon="18.19782918">
        <ele>63.4</ele>
        <time>2012-09-16T14:16:04Z</time>
      </trkpt>
      <trkpt lat="59.6777050048" lon="18.1978904517">
        <ele>63.4</ele>
        <time>2012-09-16T14:16:09Z</time>
      </trkpt>
      <trkpt lat="59.6776040029" lon="18.1978715924">
        <ele>63.4</ele>
        <time>2012-09-16T14:16:11Z</time>
      </trkpt>
      <trkpt lat="59.6774988101" lon="18.1978333709">
        <ele>63.4</ele>
        <time>2012-09-16T14:16:13Z</time>
      </trkpt>
      <trkpt lat="59.6773887558" lon="18.1977895336">
        <ele>64</ele>
        <time>2012-09-16T14:16:15Z</time>
      </trkpt>
      <trkpt lat="59.6773288252" lon="18.1977594426">
        <ele>64.4</ele>
        <time>2012-09-16T14:16:16Z</time>
      </trkpt>
      <trkpt lat="59.6772676373" lon="18.1977414215">
        <ele>64.8</ele>
        <time>2012-09-16T14:16:17Z</time>
      </trkpt>
      <trkpt lat="59.6772083773" lon="18.1977194609">
        <ele>65.4</ele>
        <time>2012-09-16T14:16:18Z</time>
      </trkpt>
      <trkpt lat="59.6771481114" lon="18.1976902081">
        <ele>65.8</ele>
        <time>2012-09-16T14:16:19Z</time>
      </trkpt>
      <trkpt lat="59.6770911983" lon="18.1976761265">
        <ele>65.8</ele>
        <time>2012-09-16T14:16:20Z</time>
      </trkpt>
      <trkpt lat="59.676934792" lon="18.197637905">
        <ele>65.8</ele>
        <time>2012-09-16T14:16:23Z</time>
      </trkpt>
      <trkpt lat="59.6766889509" lon="18.197621225">
        <ele>65.8</ele>
        <time>2012-09-16T14:16:28Z</time>
      </trkpt>
      <trkpt lat="59.6763067363" lon="18.1977337101">
        <ele>65.8</ele>
        <time>2012-09-16T14:16:35Z</time>
      </trkpt>
      <trkpt lat="59.6762017949" lon="18.1977866837">
        <ele>65.4</ele>
        <time>2012-09-16T14:16:37Z</time>
      </trkpt>
      <trkpt lat="59.676147564" lon="18.1978130029">
        <ele>64.8</ele>
        <time>2012-09-16T14:16:38Z</time>
      </trkpt>
      <trkpt lat="59.6760911538" lon="18.1978457761">
        <ele>64.4</ele>
        <time>2012-09-16T14:16:39Z</time>
      </trkpt>
      <trkpt lat="59.6760421197" lon="18.1978846682">
        <ele>64</ele>
        <time>2012-09-16T14:16:40Z</time>
      </trkpt>
      <trkpt lat="59.6759904034" lon="18.1979190339">
        <ele>63.4</ele>
        <time>2012-09-16T14:16:41Z</time>
      </trkpt>
      <trkpt lat="59.6756675326" lon="18.1982083771">
        <ele>63.4</ele>
        <time>2012-09-16T14:16:47Z</time>
      </trkpt>
      <trkpt lat="59.6756104518" lon="18.1982526336">
        <ele>63.4</ele>
        <time>2012-09-16T14:16:48Z</time>
      </trkpt>
      <trkpt lat="59.6753901755" lon="18.1984426512">
        <ele>63.4</ele>
        <time>2012-09-16T14:16:52Z</time>
      </trkpt>
      <trkpt lat="59.6752773551" lon="18.1985169149">
        <ele>63</ele>
        <time>2012-09-16T14:16:54Z</time>
      </trkpt>
      <trkpt lat="59.6752222022" lon="18.1985494366">
        <ele>62.6</ele>
        <time>2012-09-16T14:16:55Z</time>
      </trkpt>
      <trkpt lat="59.6751669655" lon="18.1985795277">
        <ele>62.2</ele>
        <time>2012-09-16T14:16:56Z</time>
      </trkpt>
      <trkpt lat="59.6751115612" lon="18.1986121333">
        <ele>61.8</ele>
        <time>2012-09-16T14:16:57Z</time>
      </trkpt>
      <trkpt lat="59.6750562406" lon="18.1986500194">
        <ele>61.4</ele>
        <time>2012-09-16T14:16:58Z</time>
      </trkpt>
      <trkpt lat="59.6749480303" lon="18.198724786">
        <ele>61.4</ele>
        <time>2012-09-16T14:17:00Z</time>
      </trkpt>
      <trkpt lat="59.6745302764" lon="18.1989803501">
        <ele>61</ele>
        <time>2012-09-16T14:17:07Z</time>
      </trkpt>
      <trkpt lat="59.6744500616" lon="18.1989940126">
        <ele>60.6</ele>
        <time>2012-09-16T14:17:08Z</time>
      </trkpt>
      <trkpt lat="59.6743735349" lon="18.1989650951">
        <ele>60.2</ele>
        <time>2012-09-16T14:17:09Z</time>
      </trkpt>
      <trkpt lat="59.6742971758" lon="18.1989301425">
        <ele>59.8</ele>
        <time>2012-09-16T14:17:10Z</time>
      </trkpt>
      <trkpt lat="59.6742250914" lon="18.1988707987">
        <ele>59.2</ele>
        <time>2012-09-16T14:17:11Z</time>
      </trkpt>
      <trkpt lat="59.6740877959" lon="18.1987386161">
        <ele>59.2</ele>
        <time>2012-09-16T14:17:13Z</time>
      </trkpt>
      <trkpt lat="59.6740236744" lon="18.1986592395">
        <ele>59.2</ele>
        <time>2012-09-16T14:17:14Z</time>
      </trkpt>
      <trkpt lat="59.6739654202" lon="18.1985667872">
        <ele>59.2</ele>
        <time>2012-09-16T14:17:15Z</time>
      </trkpt>
      <trkpt lat="59.6738380991" lon="18.1982046891">
        <ele>59.2</ele>
        <time>2012-09-16T14:17:18Z</time>
      </trkpt>
      <trkpt lat="59.6737518493" lon="18.1978323651">
        <ele>59.2</ele>
        <time>2012-09-16T14:17:21Z</time>
      </trkpt>
      <trkpt lat="59.673691332" lon="18.1975949059">
        <ele>59.2</ele>
        <time>2012-09-16T14:17:23Z</time>
      </trkpt>
      <trkpt lat="59.6736352571" lon="18.1973454605">
        <ele>58.8</ele>
        <time>2012-09-16T14:17:25Z</time>
      </trkpt>
      <trkpt lat="59.6736060881" lon="18.1972246774">
        <ele>58.4</ele>
        <time>2012-09-16T14:17:26Z</time>
      </trkpt>
      <trkpt lat="59.6735747398" lon="18.1971073308">
        <ele>58</ele>
        <time>2012-09-16T14:17:27Z</time>
      </trkpt>
      <trkpt lat="59.6735397035" lon="18.1969904871">
        <ele>57.6</ele>
        <time>2012-09-16T14:17:28Z</time>
      </trkpt>
      <trkpt lat="59.6735021525" lon="18.1968832826">
        <ele>57.2</ele>
        <time>2012-09-16T14:17:29Z</time>
      </trkpt>
      <trkpt lat="59.6734604945" lon="18.1967757428">
        <ele>57.2</ele>
        <time>2012-09-16T14:17:30Z</time>
      </trkpt>
      <trkpt lat="59.6733108776" lon="18.1964716475">
        <ele>57.2</ele>
        <time>2012-09-16T14:17:33Z</time>
      </trkpt>
      <trkpt lat="59.6731941177" lon="18.1962850664">
        <ele>57.2</ele>
        <time>2012-09-16T14:17:35Z</time>
      </trkpt>
      <trkpt lat="59.6729029305" lon="18.19584158">
        <ele>57.2</ele>
        <time>2012-09-16T14:17:40Z</time>
      </trkpt>
      <trkpt lat="59.6728455983" lon="18.195748038">
        <ele>57.2</ele>
        <time>2012-09-16T14:17:41Z</time>
      </trkpt>
      <trkpt lat="59.6727886014" lon="18.1956404144">
        <ele>56.6</ele>
        <time>2012-09-16T14:17:42Z</time>
      </trkpt>
      <trkpt lat="59.6727339514" lon="18.1955303601">
        <ele>56.2</ele>
        <time>2012-09-16T14:17:43Z</time>
      </trkpt>
      <trkpt lat="59.6726782118" lon="18.1954075653">
        <ele>55.8</ele>
        <time>2012-09-16T14:17:44Z</time>
      </trkpt>
      <trkpt lat="59.6726258249" lon="18.1952708565">
        <ele>55.4</ele>
        <time>2012-09-16T14:17:45Z</time>
      </trkpt>
      <trkpt lat="59.6725732704" lon="18.1951348182">
        <ele>54.8</ele>
        <time>2012-09-16T14:17:46Z</time>
      </trkpt>
      <trkpt lat="59.6724669879" lon="18.1949018852">
        <ele>54.4</ele>
        <time>2012-09-16T14:17:48Z</time>
      </trkpt>
      <trkpt lat="59.6724020282" lon="18.1948307229">
        <ele>53.8</ele>
        <time>2012-09-16T14:17:49Z</time>
      </trkpt>
      <trkpt lat="59.6723241603" lon="18.1948015539">
        <ele>53.4</ele>
        <time>2012-09-16T14:17:50Z</time>
      </trkpt>
      <trkpt lat="59.6722402575" lon="18.1948213352">
        <ele>52.8</ele>
        <time>2012-09-16T14:17:51Z</time>
      </trkpt>
      <trkpt lat="59.6721556003" lon="18.1948536055">
        <ele>52.2</ele>
        <time>2012-09-16T14:17:52Z</time>
      </trkpt>
      <trkpt lat="59.672063567" lon="18.1949049865">
        <ele>52.2</ele>
        <time>2012-09-16T14:17:53Z</time>
      </trkpt>
      <trkpt lat="59.6719670076" lon="18.1949603909">
        <ele>51.6</ele>
        <time>2012-09-16T14:17:54Z</time>
      </trkpt>
      <trkpt lat="59.6718623176" lon="18.1950282005">
        <ele>51</ele>
        <time>2012-09-16T14:17:55Z</time>
      </trkpt>
      <trkpt lat="59.6717595555" lon="18.1950970159">
        <ele>50.4</ele>
        <time>2012-09-16T14:17:56Z</time>
      </trkpt>
      <trkpt lat="59.6716558714" lon="18.195177063">
        <ele>49.8</ele>
        <time>2012-09-16T14:17:57Z</time>
      </trkpt>
      <trkpt lat="59.671547242" lon="18.1952498179">
        <ele>49.2</ele>
        <time>2012-09-16T14:17:58Z</time>
      </trkpt>
      <trkpt lat="59.6714371877" lon="18.1953297812">
        <ele>48.6</ele>
        <time>2012-09-16T14:17:59Z</time>
      </trkpt>
      <trkpt lat="59.6713263789" lon="18.1954156119">
        <ele>48.2</ele>
        <time>2012-09-16T14:18:00Z</time>
      </trkpt>
      <trkpt lat="59.6712139777" lon="18.1954971678">
        <ele>47.6</ele>
        <time>2012-09-16T14:18:01Z</time>
      </trkpt>
      <trkpt lat="59.6710993133" lon="18.1955732754">
        <ele>46.8</ele>
        <time>2012-09-16T14:18:02Z</time>
      </trkpt>
      <trkpt lat="59.6709787815" lon="18.1956468685">
        <ele>46</ele>
        <time>2012-09-16T14:18:03Z</time>
      </trkpt>
      <trkpt lat="59.6708637819" lon="18.195716103">
        <ele>45.2</ele>
        <time>2012-09-16T14:18:04Z</time>
      </trkpt>
      <trkpt lat="59.6707499557" lon="18.195777207">
        <ele>44.4</ele>
        <time>2012-09-16T14:18:05Z</time>
      </trkpt>
      <trkpt lat="59.6706369677" lon="18.1958316894">
        <ele>43.6</ele>
        <time>2012-09-16T14:18:06Z</time>
      </trkpt>
      <trkpt lat="59.6705263266" lon="18.1958836572">
        <ele>42.2</ele>
        <time>2012-09-16T14:18:07Z</time>
      </trkpt>
      <trkpt lat="59.6704169428" lon="18.1959150893">
        <ele>41.4</ele>
        <time>2012-09-16T14:18:08Z</time>
      </trkpt>
      <trkpt lat="59.6700983468" lon="18.1959603516">
        <ele>41</ele>
        <time>2012-09-16T14:18:11Z</time>
      </trkpt>
      <trkpt lat="59.6700007815" lon="18.1959574179">
        <ele>40.6</ele>
        <time>2012-09-16T14:18:12Z</time>
      </trkpt>
      <trkpt lat="59.6699067365" lon="18.1959414085">
        <ele>40.2</ele>
        <time>2012-09-16T14:18:13Z</time>
      </trkpt>
      <trkpt lat="59.6698157929" lon="18.1959191964">
        <ele>39.8</ele>
        <time>2012-09-16T14:18:14Z</time>
      </trkpt>
      <trkpt lat="59.6697288726" lon="18.1958981579">
        <ele>39.4</ele>
        <time>2012-09-16T14:18:15Z</time>
      </trkpt>
      <trkpt lat="59.66947817" lon="18.195835126">
        <ele>39.4</ele>
        <time>2012-09-16T14:18:18Z</time>
      </trkpt>
      <trkpt lat="59.6690490167" lon="18.1957067153">
        <ele>39.4</ele>
        <time>2012-09-16T14:18:24Z</time>
      </trkpt>
      <trkpt lat="59.6687252239" lon="18.1956073059">
        <ele>39.8</ele>
        <time>2012-09-16T14:18:30Z</time>
      </trkpt>
      <trkpt lat="59.6686854937" lon="18.195591967">
        <ele>40.8</ele>
        <time>2012-09-16T14:18:31Z</time>
      </trkpt>
      <trkpt lat="59.6686425784" lon="18.1955782207">
        <ele>41.4</ele>
        <time>2012-09-16T14:18:32Z</time>
      </trkpt>
      <trkpt lat="59.6686043569" lon="18.1955705932">
        <ele>41.8</ele>
        <time>2012-09-16T14:18:33Z</time>
      </trkpt>
      <trkpt lat="59.6685632018" lon="18.1955589424">
        <ele>42.2</ele>
        <time>2012-09-16T14:18:34Z</time>
      </trkpt>
      <trkpt lat="59.6685199512" lon="18.195545196">
        <ele>42.6</ele>
        <time>2012-09-16T14:18:35Z</time>
      </trkpt>
      <trkpt lat="59.6684787961" lon="18.1955328747">
        <ele>43</ele>
        <time>2012-09-16T14:18:36Z</time>
      </trkpt>
      <trkpt lat="59.6684443464" lon="18.1955311145">
        <ele>43.4</ele>
        <time>2012-09-16T14:18:37Z</time>
      </trkpt>
      <trkpt lat="59.6684129981" lon="18.1955353892">
        <ele>43.8</ele>
        <time>2012-09-16T14:18:38Z</time>
      </trkpt>
      <trkpt lat="59.6683580129" lon="18.1955689168">
        <ele>43.8</ele>
        <time>2012-09-16T14:18:40Z</time>
      </trkpt>
      <trkpt lat="59.6682992558" lon="18.1955850101">
        <ele>44.2</ele>
        <time>2012-09-16T14:18:42Z</time>
      </trkpt>
      <trkpt lat="59.6682767923" lon="18.1955871055">
        <ele>44.6</ele>
        <time>2012-09-16T14:18:43Z</time>
      </trkpt>
      <trkpt lat="59.6682505569" lon="18.1955840042">
        <ele>45</ele>
        <time>2012-09-16T14:18:44Z</time>
      </trkpt>
      <trkpt lat="59.6682219746" lon="18.1955904583">
        <ele>45.4</ele>
        <time>2012-09-16T14:18:45Z</time>
      </trkpt>
      <trkpt lat="59.6681905425" lon="18.1955990917">
        <ele>45.8</ele>
        <time>2012-09-16T14:18:46Z</time>
      </trkpt>
      <trkpt lat="59.6680892053" lon="18.1956135924">
        <ele>46.4</ele>
        <time>2012-09-16T14:18:49Z</time>
      </trkpt>
      <trkpt lat="59.6680525764" lon="18.1956078088">
        <ele>46.8</ele>
        <time>2012-09-16T14:18:50Z</time>
      </trkpt>
      <trkpt lat="59.6680157799" lon="18.1956111616">
        <ele>47.2</ele>
        <time>2012-09-16T14:18:51Z</time>
      </trkpt>
      <trkpt lat="59.6679814979" lon="18.195612838">
        <ele>47.6</ele>
        <time>2012-09-16T14:18:52Z</time>
      </trkpt>
      <trkpt lat="59.6679488085" lon="18.1956130056">
        <ele>48</ele>
        <time>2012-09-16T14:18:53Z</time>
      </trkpt>
      <trkpt lat="59.6678465493" lon="18.1956063839">
        <ele>48.8</ele>
        <time>2012-09-16T14:18:56Z</time>
      </trkpt>
      <trkpt lat="59.6678110101" lon="18.1956014386">
        <ele>49.2</ele>
        <time>2012-09-16T14:18:57Z</time>
      </trkpt>
      <trkpt lat="59.6677789074" lon="18.1955892848">
        <ele>49.6</ele>
        <time>2012-09-16T14:18:58Z</time>
      </trkpt>
      <trkpt lat="59.6677460504" lon="18.1955764605">
        <ele>50</ele>
        <time>2012-09-16T14:18:59Z</time>
      </trkpt>
      <trkpt lat="59.667638762" lon="18.1955585233">
        <ele>50.6</ele>
        <time>2012-09-16T14:19:02Z</time>
      </trkpt>
      <trkpt lat="59.6676046477" lon="18.1955567631">
        <ele>51</ele>
        <time>2012-09-16T14:19:03Z</time>
      </trkpt>
      <trkpt lat="59.6675738861" lon="18.1955617922">
        <ele>51.4</ele>
        <time>2012-09-16T14:19:04Z</time>
      </trkpt>
      <trkpt lat="59.6675372572" lon="18.1955705932">
        <ele>51.8</ele>
        <time>2012-09-16T14:19:05Z</time>
      </trkpt>
      <trkpt lat="59.6675029753" lon="18.1955700065">
        <ele>52.2</ele>
        <time>2012-09-16T14:19:06Z</time>
      </trkpt>
      <trkpt lat="59.667433154" lon="18.1955786398">
        <ele>52.8</ele>
        <time>2012-09-16T14:19:08Z</time>
      </trkpt>
      <trkpt lat="59.6673944296" lon="18.19559708">
        <ele>53.2</ele>
        <time>2012-09-16T14:19:09Z</time>
      </trkpt>
      <trkpt lat="59.6673546156" lon="18.195608647">
        <ele>53.6</ele>
        <time>2012-09-16T14:19:10Z</time>
      </trkpt>
      <trkpt lat="59.6673159751" lon="18.1956192082">
        <ele>54</ele>
        <time>2012-09-16T14:19:11Z</time>
      </trkpt>
      <trkpt lat="59.6672727245" lon="18.195631362">
        <ele>54.4</ele>
        <time>2012-09-16T14:19:12Z</time>
      </trkpt>
      <trkpt lat="59.6671371891" lon="18.1956715951">
        <ele>54.8</ele>
        <time>2012-09-16T14:19:15Z</time>
      </trkpt>
      <trkpt lat="59.6670906696" lon="18.1956825754">
        <ele>55.2</ele>
        <time>2012-09-16T14:19:16Z</time>
      </trkpt>
      <trkpt lat="59.6670480895" lon="18.1956931366">
        <ele>55.8</ele>
        <time>2012-09-16T14:19:17Z</time>
      </trkpt>
      <trkpt lat="59.6670038331" lon="18.1956945615">
        <ele>56.2</ele>
        <time>2012-09-16T14:19:18Z</time>
      </trkpt>
      <trkpt lat="59.666960331" lon="18.1956984172">
        <ele>56.6</ele>
        <time>2012-09-16T14:19:19Z</time>
      </trkpt>
      <trkpt lat="59.6668789428" lon="18.1956773786">
        <ele>56.6</ele>
        <time>2012-09-16T14:19:21Z</time>
      </trkpt>
      <trkpt lat="59.666789927" lon="18.1956449407">
        <ele>56.6</ele>
        <time>2012-09-16T14:19:23Z</time>
      </trkpt>
      <trkpt lat="59.666471331" lon="18.1956507242">
        <ele>56.6</ele>
        <time>2012-09-16T14:19:29Z</time>
      </trkpt>
      <trkpt lat="59.6661316126" lon="18.1957534863">
        <ele>56.6</ele>
        <time>2012-09-16T14:19:35Z</time>
      </trkpt>
      <trkpt lat="59.6658301995" lon="18.1958431726">
        <ele>56.6</ele>
        <time>2012-09-16T14:19:40Z</time>
      </trkpt>
      <trkpt lat="59.6656773974" lon="18.1958492076">
        <ele>56.6</ele>
        <time>2012-09-16T14:19:43Z</time>
      </trkpt>
      <trkpt lat="59.6656223283" lon="18.1958540691">
        <ele>56.6</ele>
        <time>2012-09-16T14:19:44Z</time>
      </trkpt>
      <trkpt lat="59.6654592166" lon="18.1958197871">
        <ele>57.2</ele>
        <time>2012-09-16T14:19:47Z</time>
      </trkpt>
      <trkpt lat="59.6654015491" lon="18.1958091421">
        <ele>57.6</ele>
        <time>2012-09-16T14:19:48Z</time>
      </trkpt>
      <trkpt lat="59.6653432949" lon="18.195809645">
        <ele>58</ele>
        <time>2012-09-16T14:19:49Z</time>
      </trkpt>
      <trkpt lat="59.6652865494" lon="18.1957860919">
        <ele>58.6</ele>
        <time>2012-09-16T14:19:50Z</time>
      </trkpt>
      <trkpt lat="59.6652337435" lon="18.1957512232">
        <ele>59</ele>
        <time>2012-09-16T14:19:51Z</time>
      </trkpt>
      <trkpt lat="59.6651345018" lon="18.1956861796">
        <ele>59</ele>
        <time>2012-09-16T14:19:53Z</time>
      </trkpt>
      <trkpt lat="59.6648667839" lon="18.1954589463">
        <ele>59</ele>
        <time>2012-09-16T14:19:59Z</time>
      </trkpt>
      <trkpt lat="59.664665283" lon="18.1952875364">
        <ele>59</ele>
        <time>2012-09-16T14:20:04Z</time>
      </trkpt>
      <trkpt lat="59.6645372914" lon="18.1952023763">
        <ele>59.4</ele>
        <time>2012-09-16T14:20:07Z</time>
      </trkpt>
      <trkpt lat="59.6644899337" lon="18.1951832656">
        <ele>60</ele>
        <time>2012-09-16T14:20:08Z</time>
      </trkpt>
      <trkpt lat="59.664443917" lon="18.1951803319">
        <ele>60.4</ele>
        <time>2012-09-16T14:20:09Z</time>
      </trkpt>
      <trkpt lat="59.6643917816" lon="18.1951679267">
        <ele>61.4</ele>
        <time>2012-09-16T14:20:10Z</time>
      </trkpt>
      <trkpt lat="59.6642891872" lon="18.1951722015">
        <ele>61.8</ele>
        <time>2012-09-16T14:20:12Z</time>
      </trkpt>
      <trkpt lat="59.6642411589" lon="18.1951753866">
        <ele>62.2</ele>
        <time>2012-09-16T14:20:13Z</time>
      </trkpt>
      <trkpt lat="59.6641913704" lon="18.1951903902">
        <ele>62.6</ele>
        <time>2012-09-16T14:20:14Z</time>
      </trkpt>
      <trkpt lat="59.6641458567" lon="18.1952115964">
        <ele>63</ele>
        <time>2012-09-16T14:20:15Z</time>
      </trkpt>
      <trkpt lat="59.6641001753" lon="18.1952411007">
        <ele>63.4</ele>
        <time>2012-09-16T14:20:16Z</time>
      </trkpt>
      <trkpt lat="59.6639669031" lon="18.1953716907">
        <ele>63.4</ele>
        <time>2012-09-16T14:20:19Z</time>
      </trkpt>
      <trkpt lat="59.6639229819" lon="18.1954247481">
        <ele>63.4</ele>
        <time>2012-09-16T14:20:20Z</time>
      </trkpt>
      <trkpt lat="59.6638753728" lon="18.1954934797">
        <ele>63.4</ele>
        <time>2012-09-16T14:20:21Z</time>
      </trkpt>
      <trkpt lat="59.6636760512" lon="18.1957560847">
        <ele>63.4</ele>
        <time>2012-09-16T14:20:25Z</time>
      </trkpt>
      <trkpt lat="59.6633732131" lon="18.1961196077">
        <ele>63.4</ele>
        <time>2012-09-16T14:20:30Z</time>
      </trkpt>
      <trkpt lat="59.6631492488" lon="18.196475084">
        <ele>63</ele>
        <time>2012-09-16T14:20:34Z</time>
      </trkpt>
      <trkpt lat="59.663100047" lon="18.196569548">
        <ele>62.6</ele>
        <time>2012-09-16T14:20:35Z</time>
      </trkpt>
      <trkpt lat="59.6630558744" lon="18.1966665266">
        <ele>62</ele>
        <time>2012-09-16T14:20:36Z</time>
      </trkpt>
      <trkpt lat="59.6630099416" lon="18.1967656845">
        <ele>61.6</ele>
        <time>2012-09-16T14:20:37Z</time>
      </trkpt>
      <trkpt lat="59.6629683674" lon="18.196871967">
        <ele>61.2</ele>
        <time>2012-09-16T14:20:38Z</time>
      </trkpt>
      <trkpt lat="59.6627413855" lon="18.1974228255">
        <ele>61.2</ele>
        <time>2012-09-16T14:20:43Z</time>
      </trkpt>
      <trkpt lat="59.6625042615" lon="18.1980098937">
        <ele>60.8</ele>
        <time>2012-09-16T14:20:48Z</time>
      </trkpt>
      <trkpt lat="59.6624456721" lon="18.1981355384">
        <ele>60.4</ele>
        <time>2012-09-16T14:20:49Z</time>
      </trkpt>
      <trkpt lat="59.6623886751" lon="18.1982559025">
        <ele>59.8</ele>
        <time>2012-09-16T14:20:50Z</time>
      </trkpt>
      <trkpt lat="59.6623335222" lon="18.198379787">
        <ele>59.4</ele>
        <time>2012-09-16T14:20:51Z</time>
      </trkpt>
      <trkpt lat="59.6622787884" lon="18.1985000673">
        <ele>59</ele>
        <time>2012-09-16T14:20:52Z</time>
      </trkpt>
      <trkpt lat="59.6620224699" lon="18.1989388597">
        <ele>59</ele>
        <time>2012-09-16T14:20:56Z</time>
      </trkpt>
      <trkpt lat="59.6619290956" lon="18.1990224273">
        <ele>59</ele>
        <time>2012-09-16T14:20:57Z</time>
      </trkpt>
      <trkpt lat="59.6618289319" lon="18.1990799271">
        <ele>58.6</ele>
        <time>2012-09-16T14:20:58Z</time>
      </trkpt>
      <trkpt lat="59.6617199672" lon="18.1991218366">
        <ele>58.2</ele>
        <time>2012-09-16T14:20:59Z</time>
      </trkpt>
      <trkpt lat="59.6616057219" lon="18.1991361696">
        <ele>57.8</ele>
        <time>2012-09-16T14:21:00Z</time>
      </trkpt>
      <trkpt lat="59.6614918118" lon="18.1991393548">
        <ele>57</ele>
        <time>2012-09-16T14:21:01Z</time>
      </trkpt>
      <trkpt lat="59.661372705" lon="18.1991178133">
        <ele>56.2</ele>
        <time>2012-09-16T14:21:02Z</time>
      </trkpt>
      <trkpt lat="59.6612510837" lon="18.1990932543">
        <ele>55.4</ele>
        <time>2012-09-16T14:21:03Z</time>
      </trkpt>
      <trkpt lat="59.6611216671" lon="18.1990672704">
        <ele>54.6</ele>
        <time>2012-09-16T14:21:04Z</time>
      </trkpt>
      <trkpt lat="59.6609962739" lon="18.1990405322">
        <ele>54</ele>
        <time>2012-09-16T14:21:05Z</time>
      </trkpt>
      <trkpt lat="59.6608725571" lon="18.1990208347">
        <ele>53.2</ele>
        <time>2012-09-16T14:21:06Z</time>
      </trkpt>
      <trkpt lat="59.6607509357" lon="18.1990033165">
        <ele>52.4</ele>
        <time>2012-09-16T14:21:07Z</time>
      </trkpt>
      <trkpt lat="59.6606314098" lon="18.1989981198">
        <ele>51.6</ele>
        <time>2012-09-16T14:21:08Z</time>
      </trkpt>
      <trkpt lat="59.6605158234" lon="18.1989916657">
        <ele>50.8</ele>
        <time>2012-09-16T14:21:09Z</time>
      </trkpt>
      <trkpt lat="59.6604050985" lon="18.1989852954">
        <ele>50</ele>
        <time>2012-09-16T14:21:10Z</time>
      </trkpt>
      <trkpt lat="59.6603040966" lon="18.1989828647">
        <ele>49.2</ele>
        <time>2012-09-16T14:21:11Z</time>
      </trkpt>
      <trkpt lat="59.6599523921" lon="18.1989945155">
        <ele>49.2</ele>
        <time>2012-09-16T14:21:15Z</time>
      </trkpt>
      <trkpt lat="59.6596275935" lon="18.1990040709">
        <ele>49.2</ele>
        <time>2012-09-16T14:21:20Z</time>
      </trkpt>
      <trkpt lat="59.6594284395" lon="18.1990052444">
        <ele>49.2</ele>
        <time>2012-09-16T14:21:23Z</time>
      </trkpt>
      <trkpt lat="59.6593609652" lon="18.1990020592">
        <ele>49.2</ele>
        <time>2012-09-16T14:21:24Z</time>
      </trkpt>
      <trkpt lat="59.6589569577" lon="18.1989352555">
        <ele>49.2</ele>
        <time>2012-09-16T14:21:30Z</time>
      </trkpt>
      <trkpt lat="59.6586308179" lon="18.1989018117">
        <ele>49.2</ele>
        <time>2012-09-16T14:21:35Z</time>
      </trkpt>
      <trkpt lat="59.6585607452" lon="18.1988834554">
        <ele>49.2</ele>
        <time>2012-09-16T14:21:36Z</time>
      </trkpt>
      <trkpt lat="59.6583108808" lon="18.1988351756">
        <ele>49.2</ele>
        <time>2012-09-16T14:21:39Z</time>
      </trkpt>
      <trkpt lat="59.6580227949" lon="18.1987864768">
        <ele>48.8</ele>
        <time>2012-09-16T14:21:42Z</time>
      </trkpt>
      <trkpt lat="59.6579279118" lon="18.1987742392">
        <ele>48.4</ele>
        <time>2012-09-16T14:21:43Z</time>
      </trkpt>
      <trkpt lat="59.6578343698" lon="18.1987612473">
        <ele>48</ele>
        <time>2012-09-16T14:21:44Z</time>
      </trkpt>
      <trkpt lat="59.6577409116" lon="18.1987490097">
        <ele>47.6</ele>
        <time>2012-09-16T14:21:45Z</time>
      </trkpt>
      <trkpt lat="59.6576487107" lon="18.1987331679">
        <ele>47.2</ele>
        <time>2012-09-16T14:21:46Z</time>
      </trkpt>
      <trkpt lat="59.6574699248" lon="18.1987040827">
        <ele>46.6</ele>
        <time>2012-09-16T14:21:48Z</time>
      </trkpt>
      <trkpt lat="59.6573839265" lon="18.1986894982">
        <ele>46.2</ele>
        <time>2012-09-16T14:21:49Z</time>
      </trkpt>
      <trkpt lat="59.6572965871" lon="18.1986742431">
        <ele>45.8</ele>
        <time>2012-09-16T14:21:50Z</time>
      </trkpt>
      <trkpt lat="59.6572163723" lon="18.1986636819">
        <ele>45.4</ele>
        <time>2012-09-16T14:21:51Z</time>
      </trkpt>
      <trkpt lat="59.6571430307" lon="18.198646499">
        <ele>45</ele>
        <time>2012-09-16T14:21:52Z</time>
      </trkpt>
      <trkpt lat="59.656794176" lon="18.1985877419">
        <ele>45</ele>
        <time>2012-09-16T14:21:57Z</time>
      </trkpt>
      <trkpt lat="59.6564982111" lon="18.1985415577">
        <ele>45</ele>
        <time>2012-09-16T14:22:02Z</time>
      </trkpt>
      <trkpt lat="59.656313474" lon="18.198517334">
        <ele>45</ele>
        <time>2012-09-16T14:22:05Z</time>
      </trkpt>
      <trkpt lat="59.6561934452" lon="18.1985045935">
        <ele>45</ele>
        <time>2012-09-16T14:22:07Z</time>
      </trkpt>
      <trkpt lat="59.656069896" lon="18.1984871591">
        <ele>45</ele>
        <time>2012-09-16T14:22:09Z</time>
      </trkpt>
      <trkpt lat="59.6558771961" lon="18.1984653662">
        <ele>46</ele>
        <time>2012-09-16T14:22:12Z</time>
      </trkpt>
      <trkpt lat="59.6558190257" lon="18.1984720717">
        <ele>46.4</ele>
        <time>2012-09-16T14:22:13Z</time>
      </trkpt>
      <trkpt lat="59.6557622803" lon="18.198481208">
        <ele>47</ele>
        <time>2012-09-16T14:22:14Z</time>
      </trkpt>
      <trkpt lat="59.6557061216" lon="18.1984914339">
        <ele>47.4</ele>
        <time>2012-09-16T14:22:15Z</time>
      </trkpt>
      <trkpt lat="59.6555357175" lon="18.1985460001">
        <ele>47.4</ele>
        <time>2012-09-16T14:22:18Z</time>
      </trkpt>
      <trkpt lat="59.6551820852" lon="18.1986382848">
        <ele>47.4</ele>
        <time>2012-09-16T14:22:23Z</time>
      </trkpt>
      <trkpt lat="59.6548779898" lon="18.1987191701">
        <ele>47</ele>
        <time>2012-09-16T14:22:27Z</time>
      </trkpt>
      <trkpt lat="59.6548006249" lon="18.1987425556">
        <ele>46.6</ele>
        <time>2012-09-16T14:22:28Z</time>
      </trkpt>
      <trkpt lat="59.6547256069" lon="18.1987620854">
        <ele>46.2</ele>
        <time>2012-09-16T14:22:29Z</time>
      </trkpt>
      <trkpt lat="59.6546490801" lon="18.1987764185">
        <ele>45.8</ele>
        <time>2012-09-16T14:22:30Z</time>
      </trkpt>
      <trkpt lat="59.6545773311" lon="18.198801648">
        <ele>45.4</ele>
        <time>2012-09-16T14:22:31Z</time>
      </trkpt>
      <trkpt lat="59.6543215993" lon="18.1989213415">
        <ele>45.4</ele>
        <time>2012-09-16T14:22:35Z</time>
      </trkpt>
      <trkpt lat="59.654067963" lon="18.1990760714">
        <ele>45.4</ele>
        <time>2012-09-16T14:22:39Z</time>
      </trkpt>
      <trkpt lat="59.654002668" lon="18.1990862135">
        <ele>45.4</ele>
        <time>2012-09-16T14:22:40Z</time>
      </trkpt>
      <trkpt lat="59.6537959704" lon="18.199072551">
        <ele>45.4</ele>
        <time>2012-09-16T14:22:43Z</time>
      </trkpt>
      <trkpt lat="59.6536520531" lon="18.1990458128">
        <ele>45.4</ele>
        <time>2012-09-16T14:22:45Z</time>
      </trkpt>
      <trkpt lat="59.6531974189" lon="18.1988998839">
        <ele>45.4</ele>
        <time>2012-09-16T14:22:51Z</time>
      </trkpt>
      <trkpt lat="59.6530539208" lon="18.1987653544">
        <ele>45.4</ele>
        <time>2012-09-16T14:22:53Z</time>
      </trkpt>
      <trkpt lat="59.6529344787" lon="18.1985848083">
        <ele>45.4</ele>
        <time>2012-09-16T14:22:55Z</time>
      </trkpt>
      <trkpt lat="59.6528344826" lon="18.1983960479">
        <ele>45.4</ele>
        <time>2012-09-16T14:22:57Z</time>
      </trkpt>
      <trkpt lat="59.6526684372" lon="18.1980704949">
        <ele>45.4</ele>
        <time>2012-09-16T14:23:00Z</time>
      </trkpt>
      <trkpt lat="59.6522831212" lon="18.1974662437">
        <ele>45.4</ele>
        <time>2012-09-16T14:23:06Z</time>
      </trkpt>
      <trkpt lat="59.6522215981" lon="18.1973771441">
        <ele>45</ele>
        <time>2012-09-16T14:23:07Z</time>
      </trkpt>
      <trkpt lat="59.6521581471" lon="18.1973018747">
        <ele>44.6</ele>
        <time>2012-09-16T14:23:08Z</time>
      </trkpt>
      <trkpt lat="59.6520925168" lon="18.1972372502">
        <ele>44.2</ele>
        <time>2012-09-16T14:23:09Z</time>
      </trkpt>
      <trkpt lat="59.6520290658" lon="18.1971763976">
        <ele>43.6</ele>
        <time>2012-09-16T14:23:10Z</time>
      </trkpt>
      <trkpt lat="59.6519680456" lon="18.1971333146">
        <ele>43.2</ele>
        <time>2012-09-16T14:23:11Z</time>
      </trkpt>
      <trkpt lat="59.6519029182" lon="18.197093333">
        <ele>43.8</ele>
        <time>2012-09-16T14:23:12Z</time>
      </trkpt>
      <trkpt lat="59.6518361983" lon="18.1970563688">
        <ele>44.2</ele>
        <time>2012-09-16T14:23:13Z</time>
      </trkpt>
      <trkpt lat="59.6517645331" lon="18.1970209972">
        <ele>44.6</ele>
        <time>2012-09-16T14:23:14Z</time>
      </trkpt>
      <trkpt lat="59.6516962206" lon="18.1970011321">
        <ele>45</ele>
        <time>2012-09-16T14:23:15Z</time>
      </trkpt>
      <trkpt lat="59.6516289978" lon="18.1969924149">
        <ele>45.6</ele>
        <time>2012-09-16T14:23:16Z</time>
      </trkpt>
      <trkpt lat="59.6515593442" lon="18.1969863799">
        <ele>45.2</ele>
        <time>2012-09-16T14:23:17Z</time>
      </trkpt>
      <trkpt lat="59.6514888524" lon="18.196991912">
        <ele>44.8</ele>
        <time>2012-09-16T14:23:18Z</time>
      </trkpt>
      <trkpt lat="59.6514202884" lon="18.1970014674">
        <ele>44.2</ele>
        <time>2012-09-16T14:23:19Z</time>
      </trkpt>
      <trkpt lat="59.6513546582" lon="18.1970079214">
        <ele>43.8</ele>
        <time>2012-09-16T14:23:20Z</time>
      </trkpt>
      <trkpt lat="59.6512835797" lon="18.1970121962">
        <ele>43.4</ele>
        <time>2012-09-16T14:23:21Z</time>
      </trkpt>
      <trkpt lat="59.6511525706" lon="18.1970373419">
        <ele>43.4</ele>
        <time>2012-09-16T14:23:23Z</time>
      </trkpt>
      <trkpt lat="59.650952327" lon="18.1970976077">
        <ele>42.6</ele>
        <time>2012-09-16T14:23:26Z</time>
      </trkpt>
      <trkpt lat="59.6508861938" lon="18.1971244298">
        <ele>42</ele>
        <time>2012-09-16T14:23:27Z</time>
      </trkpt>
      <trkpt lat="59.6508197253" lon="18.1971497432">
        <ele>41.6</ele>
        <time>2012-09-16T14:23:28Z</time>
      </trkpt>
      <trkpt lat="59.6507484792" lon="18.1971794989">
        <ele>41</ele>
        <time>2012-09-16T14:23:29Z</time>
      </trkpt>
      <trkpt lat="59.6506796638" lon="18.1972073268">
        <ele>40.6</ele>
        <time>2012-09-16T14:23:30Z</time>
      </trkpt>
      <trkpt lat="59.6506094234" lon="18.1972318858">
        <ele>40</ele>
        <time>2012-09-16T14:23:31Z</time>
      </trkpt>
      <trkpt lat="59.6505385964" lon="18.1972568638">
        <ele>39.4</ele>
        <time>2012-09-16T14:23:32Z</time>
      </trkpt>
      <trkpt lat="59.6504667635" lon="18.1972854461">
        <ele>38.8</ele>
        <time>2012-09-16T14:23:33Z</time>
      </trkpt>
      <trkpt lat="59.6501687031" lon="18.1973101727">
        <ele>38.8</ele>
        <time>2012-09-16T14:23:37Z</time>
      </trkpt>
      <trkpt lat="59.6500644323" lon="18.1971117732">
        <ele>38.8</ele>
        <time>2012-09-16T14:23:39Z</time>
      </trkpt>
      <trkpt lat="59.6500138894" lon="18.1966948575">
        <ele>38.8</ele>
        <time>2012-09-16T14:23:42Z</time>
      </trkpt>
      <trkpt lat="59.6498232012" lon="18.1955707608">
        <ele>38.8</ele>
        <time>2012-09-16T14:23:50Z</time>
      </trkpt>
      <trkpt lat="59.649800151" lon="18.1954432721">
        <ele>38.8</ele>
        <time>2012-09-16T14:23:51Z</time>
      </trkpt>
      <trkpt lat="59.6497771008" lon="18.1953103352">
        <ele>38.4</ele>
        <time>2012-09-16T14:23:52Z</time>
      </trkpt>
      <trkpt lat="59.6497595826" lon="18.1951783203">
        <ele>38</ele>
        <time>2012-09-16T14:23:53Z</time>
      </trkpt>
      <trkpt lat="59.6497364486" lon="18.1950536814">
        <ele>37.6</ele>
        <time>2012-09-16T14:23:54Z</time>
      </trkpt>
      <trkpt lat="59.6497116381" lon="18.1949257736">
        <ele>37</ele>
        <time>2012-09-16T14:23:55Z</time>
      </trkpt>
      <trkpt lat="59.6496900966" lon="18.1947956866">
        <ele>36.6</ele>
        <time>2012-09-16T14:23:56Z</time>
      </trkpt>
      <trkpt lat="59.6496631069" lon="18.1946669406">
        <ele>36.6</ele>
        <time>2012-09-16T14:23:57Z</time>
      </trkpt>
      <trkpt lat="59.6494847401" lon="18.1937570015">
        <ele>36.6</ele>
        <time>2012-09-16T14:24:04Z</time>
      </trkpt>
      <trkpt lat="59.6493176888" lon="18.1929750541">
        <ele>36.6</ele>
        <time>2012-09-16T14:24:10Z</time>
      </trkpt>
      <trkpt lat="59.6490831633" lon="18.1920986426">
        <ele>36.2</ele>
        <time>2012-09-16T14:24:17Z</time>
      </trkpt>
      <trkpt lat="59.6490434331" lon="18.1919708186">
        <ele>35.8</ele>
        <time>2012-09-16T14:24:18Z</time>
      </trkpt>
      <trkpt lat="59.6490067203" lon="18.191844671">
        <ele>35.4</ele>
        <time>2012-09-16T14:24:19Z</time>
      </trkpt>
      <trkpt lat="59.6489674092" lon="18.1917160927">
        <ele>34.8</ele>
        <time>2012-09-16T14:24:20Z</time>
      </trkpt>
      <trkpt lat="59.6489296907" lon="18.1915934655">
        <ele>34.4</ele>
        <time>2012-09-16T14:24:21Z</time>
      </trkpt>
      <trkpt lat="59.6487477196" lon="18.1909774796">
        <ele>34.4</ele>
        <time>2012-09-16T14:24:26Z</time>
      </trkpt>
      <trkpt lat="59.6485430336" lon="18.1901570593">
        <ele>34.4</ele>
        <time>2012-09-16T14:24:33Z</time>
      </trkpt>
      <trkpt lat="59.6484547722" lon="18.1896484456">
        <ele>34.4</ele>
        <time>2012-09-16T14:24:38Z</time>
      </trkpt>
      <trkpt lat="59.648439601" lon="18.1895582563">
        <ele>34.8</ele>
        <time>2012-09-16T14:24:39Z</time>
      </trkpt>
      <trkpt lat="59.648424765" lon="18.1894593499">
        <ele>35.2</ele>
        <time>2012-09-16T14:24:40Z</time>
      </trkpt>
      <trkpt lat="59.6484170537" lon="18.1893626228">
        <ele>36</ele>
        <time>2012-09-16T14:24:41Z</time>
      </trkpt>
      <trkpt lat="59.6484079174" lon="18.1892677397">
        <ele>36.4</ele>
        <time>2012-09-16T14:24:42Z</time>
      </trkpt>
      <trkpt lat="59.6484024692" lon="18.1891733595">
        <ele>36.8</ele>
        <time>2012-09-16T14:24:43Z</time>
      </trkpt>
      <trkpt lat="59.6483987811" lon="18.1890949887">
        <ele>37.4</ele>
        <time>2012-09-16T14:24:44Z</time>
      </trkpt>
      <trkpt lat="59.6483971048" lon="18.1890164503">
        <ele>37.8</ele>
        <time>2012-09-16T14:24:45Z</time>
      </trkpt>
      <trkpt lat="59.6483957637" lon="18.1889388339">
        <ele>38.2</ele>
        <time>2012-09-16T14:24:46Z</time>
      </trkpt>
      <trkpt lat="59.6483982782" lon="18.1888607146">
        <ele>38.8</ele>
        <time>2012-09-16T14:24:47Z</time>
      </trkpt>
      <trkpt lat="59.6483995355" lon="18.1887827629">
        <ele>39.2</ele>
        <time>2012-09-16T14:24:48Z</time>
      </trkpt>
      <trkpt lat="59.6484018824" lon="18.1887043084">
        <ele>39.8</ele>
        <time>2012-09-16T14:24:49Z</time>
      </trkpt>
      <trkpt lat="59.6484007928" lon="18.188621579">
        <ele>40.2</ele>
        <time>2012-09-16T14:24:50Z</time>
      </trkpt>
      <trkpt lat="59.648398362" lon="18.1885397717">
        <ele>40.8</ele>
        <time>2012-09-16T14:24:51Z</time>
      </trkpt>
      <trkpt lat="59.648394674" lon="18.1884610656">
        <ele>41.2</ele>
        <time>2012-09-16T14:24:52Z</time>
      </trkpt>
      <trkpt lat="59.6483866274" lon="18.1883881431">
        <ele>41.8</ele>
        <time>2012-09-16T14:24:53Z</time>
      </trkpt>
      <trkpt lat="59.6483777426" lon="18.188310862">
        <ele>42.2</ele>
        <time>2012-09-16T14:24:54Z</time>
      </trkpt>
      <trkpt lat="59.6483677681" lon="18.1882351734">
        <ele>42.8</ele>
        <time>2012-09-16T14:24:55Z</time>
      </trkpt>
      <trkpt lat="59.6483496632" lon="18.1881588143">
        <ele>43.2</ele>
        <time>2012-09-16T14:24:56Z</time>
      </trkpt>
      <trkpt lat="59.6483314745" lon="18.1880827067">
        <ele>43.8</ele>
        <time>2012-09-16T14:24:57Z</time>
      </trkpt>
      <trkpt lat="59.648311777" lon="18.1880077725">
        <ele>44.4</ele>
        <time>2012-09-16T14:24:58Z</time>
      </trkpt>
      <trkpt lat="59.6482893135" lon="18.1879268033">
        <ele>44.8</ele>
        <time>2012-09-16T14:24:59Z</time>
      </trkpt>
      <trkpt lat="59.6482624914" lon="18.1878591614">
        <ele>45.4</ele>
        <time>2012-09-16T14:25:00Z</time>
      </trkpt>
      <trkpt lat="59.6482338253" lon="18.1877880829">
        <ele>46</ele>
        <time>2012-09-16T14:25:01Z</time>
      </trkpt>
      <trkpt lat="59.6482013874" lon="18.1877068623">
        <ele>46.6</ele>
        <time>2012-09-16T14:25:02Z</time>
      </trkpt>
      <trkpt lat="59.6481686142" lon="18.1876124821">
        <ele>47</ele>
        <time>2012-09-16T14:25:03Z</time>
      </trkpt>
      <trkpt lat="59.6481360924" lon="18.1875419903">
        <ele>47.6</ele>
        <time>2012-09-16T14:25:04Z</time>
      </trkpt>
      <trkpt lat="59.6481062528" lon="18.1874743484">
        <ele>48.8</ele>
        <time>2012-09-16T14:25:05Z</time>
      </trkpt>
      <trkpt lat="59.6480811909" lon="18.1874023478">
        <ele>49.2</ele>
        <time>2012-09-16T14:25:06Z</time>
      </trkpt>
      <trkpt lat="59.648059398" lon="18.1873315208">
        <ele>49.8</ele>
        <time>2012-09-16T14:25:07Z</time>
      </trkpt>
      <trkpt lat="59.6480368507" lon="18.1872521442">
        <ele>50.4</ele>
        <time>2012-09-16T14:25:08Z</time>
      </trkpt>
      <trkpt lat="59.6479281374" lon="18.1868885374">
        <ele>50.4</ele>
        <time>2012-09-16T14:25:13Z</time>
      </trkpt>
      <trkpt lat="59.6478906704" lon="18.1867367412">
        <ele>50.4</ele>
        <time>2012-09-16T14:25:15Z</time>
      </trkpt>
      <trkpt lat="59.6478272194" lon="18.1865069095">
        <ele>50.8</ele>
        <time>2012-09-16T14:25:18Z</time>
      </trkpt>
      <trkpt lat="59.6478065161" lon="18.1864271138">
        <ele>51.2</ele>
        <time>2012-09-16T14:25:19Z</time>
      </trkpt>
      <trkpt lat="59.6477838011" lon="18.1863437139">
        <ele>51.6</ele>
        <time>2012-09-16T14:25:20Z</time>
      </trkpt>
      <trkpt lat="59.6477630978" lon="18.1862651755">
        <ele>52.2</ele>
        <time>2012-09-16T14:25:21Z</time>
      </trkpt>
      <trkpt lat="59.6477356052" lon="18.1861818594">
        <ele>52.6</ele>
        <time>2012-09-16T14:25:22Z</time>
      </trkpt>
      <trkpt lat="59.6477147343" lon="18.1860822824">
        <ele>52.6</ele>
        <time>2012-09-16T14:25:23Z</time>
      </trkpt>
      <trkpt lat="59.647658827" lon="18.1858466672">
        <ele>52.6</ele>
        <time>2012-09-16T14:25:25Z</time>
      </trkpt>
      <trkpt lat="59.6476212761" lon="18.1857140655">
        <ele>52</ele>
        <time>2012-09-16T14:25:26Z</time>
      </trkpt>
      <trkpt lat="59.6475765167" lon="18.1855623531">
        <ele>51.6</ele>
        <time>2012-09-16T14:25:27Z</time>
      </trkpt>
      <trkpt lat="59.6475350263" lon="18.1854013368">
        <ele>51</ele>
        <time>2012-09-16T14:25:28Z</time>
      </trkpt>
      <trkpt lat="59.6474890097" lon="18.1852341179">
        <ele>50.4</ele>
        <time>2012-09-16T14:25:29Z</time>
      </trkpt>
      <trkpt lat="59.6474408976" lon="18.1850764544">
        <ele>49.2</ele>
        <time>2012-09-16T14:25:30Z</time>
      </trkpt>
      <trkpt lat="59.6473932884" lon="18.1849263346">
        <ele>48.4</ele>
        <time>2012-09-16T14:25:31Z</time>
      </trkpt>
      <trkpt lat="59.6473476071" lon="18.1847824174">
        <ele>47.8</ele>
        <time>2012-09-16T14:25:32Z</time>
      </trkpt>
      <trkpt lat="59.6473018419" lon="18.1846463791">
        <ele>47</ele>
        <time>2012-09-16T14:25:33Z</time>
      </trkpt>
      <trkpt lat="59.6472502094" lon="18.1845287811">
        <ele>46.2</ele>
        <time>2012-09-16T14:25:34Z</time>
      </trkpt>
      <trkpt lat="59.6471876804" lon="18.184428785">
        <ele>45.6</ele>
        <time>2012-09-16T14:25:35Z</time>
      </trkpt>
      <trkpt lat="59.6469818209" lon="18.1842196566">
        <ele>45.6</ele>
        <time>2012-09-16T14:25:38Z</time>
      </trkpt>
      <trkpt lat="59.6469135923" lon="18.1841603966">
        <ele>45.6</ele>
        <time>2012-09-16T14:25:39Z</time>
      </trkpt>
      <trkpt lat="59.6466653204" lon="18.1838682873">
        <ele>45.6</ele>
        <time>2012-09-16T14:25:44Z</time>
      </trkpt>
      <trkpt lat="59.6465582835" lon="18.1836865677">
        <ele>45.6</ele>
        <time>2012-09-16T14:25:48Z</time>
      </trkpt>
      <trkpt lat="59.6465060643" lon="18.1835812073">
        <ele>46</ele>
        <time>2012-09-16T14:25:50Z</time>
      </trkpt>
      <trkpt lat="59.6464782364" lon="18.1835150741">
        <ele>46.4</ele>
        <time>2012-09-16T14:25:51Z</time>
      </trkpt>
      <trkpt lat="59.6464566111" lon="18.1834518745">
        <ele>47</ele>
        <time>2012-09-16T14:25:52Z</time>
      </trkpt>
      <trkpt lat="59.6464312977" lon="18.1833755993">
        <ele>47.4</ele>
        <time>2012-09-16T14:25:53Z</time>
      </trkpt>
      <trkpt lat="59.6464049786" lon="18.1832953007">
        <ele>47.8</ele>
        <time>2012-09-16T14:25:54Z</time>
      </trkpt>
      <trkpt lat="59.6463823475" lon="18.1832129904">
        <ele>48.4</ele>
        <time>2012-09-16T14:25:55Z</time>
      </trkpt>
      <trkpt lat="59.6463600516" lon="18.1831292552">
        <ele>48.8</ele>
        <time>2012-09-16T14:25:56Z</time>
      </trkpt>
      <trkpt lat="59.6463381748" lon="18.1830416644">
        <ele>49.4</ele>
        <time>2012-09-16T14:25:57Z</time>
      </trkpt>
      <trkpt lat="59.6463213272" lon="18.1829633774">
        <ele>49.8</ele>
        <time>2012-09-16T14:25:58Z</time>
      </trkpt>
      <trkpt lat="59.6463014621" lon="18.1828819053">
        <ele>50.4</ele>
        <time>2012-09-16T14:25:59Z</time>
      </trkpt>
      <trkpt lat="59.6461985324" lon="18.182311098">
        <ele>51</ele>
        <time>2012-09-16T14:26:05Z</time>
      </trkpt>
      <trkpt lat="59.6461821039" lon="18.1822033905">
        <ele>51.6</ele>
        <time>2012-09-16T14:26:06Z</time>
      </trkpt>
      <trkpt lat="59.6461655077" lon="18.1820935038">
        <ele>52.2</ele>
        <time>2012-09-16T14:26:07Z</time>
      </trkpt>
      <trkpt lat="59.6461476543" lon="18.1819778336">
        <ele>52.8</ele>
        <time>2012-09-16T14:26:08Z</time>
      </trkpt>
      <trkpt lat="59.6461308066" lon="18.1818581401">
        <ele>53.4</ele>
        <time>2012-09-16T14:26:09Z</time>
      </trkpt>
      <trkpt lat="59.6460422099" lon="18.1813780248">
        <ele>53</ele>
        <time>2012-09-16T14:26:13Z</time>
      </trkpt>
      <trkpt lat="59.6460040723" lon="18.1812625223">
        <ele>52.6</ele>
        <time>2012-09-16T14:26:14Z</time>
      </trkpt>
      <trkpt lat="59.6459631686" lon="18.1811522165">
        <ele>52.2</ele>
        <time>2012-09-16T14:26:15Z</time>
      </trkpt>
      <trkpt lat="59.6459174873" lon="18.1810432518">
        <ele>51.8</ele>
        <time>2012-09-16T14:26:16Z</time>
      </trkpt>
      <trkpt lat="59.6458705486" lon="18.1809431719">
        <ele>51.2</ele>
        <time>2012-09-16T14:26:17Z</time>
      </trkpt>
      <trkpt lat="59.64582361" lon="18.1808607778">
        <ele>50.8</ele>
        <time>2012-09-16T14:26:18Z</time>
      </trkpt>
      <trkpt lat="59.6457781801" lon="18.1807676549">
        <ele>49.8</ele>
        <time>2012-09-16T14:26:19Z</time>
      </trkpt>
      <trkpt lat="59.6457303195" lon="18.1806848417">
        <ele>49.4</ele>
        <time>2012-09-16T14:26:20Z</time>
      </trkpt>
      <trkpt lat="59.6456800281" lon="18.180604124">
        <ele>49</ele>
        <time>2012-09-16T14:26:21Z</time>
      </trkpt>
      <trkpt lat="59.645502248" lon="18.180384183">
        <ele>49</ele>
        <time>2012-09-16T14:26:24Z</time>
      </trkpt>
      <trkpt lat="59.64543184" lon="18.1803286948">
        <ele>49</ele>
        <time>2012-09-16T14:26:25Z</time>
      </trkpt>
      <trkpt lat="59.645172504" lon="18.1801225">
        <ele>49</ele>
        <time>2012-09-16T14:26:29Z</time>
      </trkpt>
      <trkpt lat="59.6451100589" lon="18.1800636591">
        <ele>48.4</ele>
        <time>2012-09-16T14:26:30Z</time>
      </trkpt>
      <trkpt lat="59.6450528105" lon="18.1800108531">
        <ele>48</ele>
        <time>2012-09-16T14:26:31Z</time>
      </trkpt>
      <trkpt lat="59.6449928799" lon="18.1799612323">
        <ele>47.6</ele>
        <time>2012-09-16T14:26:32Z</time>
      </trkpt>
      <trkpt lat="59.6449314406" lon="18.1799149642">
        <ele>47</ele>
        <time>2012-09-16T14:26:33Z</time>
      </trkpt>
      <trkpt lat="59.6448687439" lon="18.1798607333">
        <ele>46.4</ele>
        <time>2012-09-16T14:26:34Z</time>
      </trkpt>
      <trkpt lat="59.6448036166" lon="18.1798201649">
        <ele>45.8</ele>
        <time>2012-09-16T14:26:35Z</time>
      </trkpt>
      <trkpt lat="59.6447410876" lon="18.1797727234">
        <ele>45.2</ele>
        <time>2012-09-16T14:26:36Z</time>
      </trkpt>
      <trkpt lat="59.644682079" lon="18.1797212585">
        <ele>44.6</ele>
        <time>2012-09-16T14:26:37Z</time>
      </trkpt>
      <trkpt lat="59.6443835996" lon="18.1794786863">
        <ele>44.6</ele>
        <time>2012-09-16T14:26:42Z</time>
      </trkpt>
      <trkpt lat="59.6442854475" lon="18.1794188395">
        <ele>44</ele>
        <time>2012-09-16T14:26:44Z</time>
      </trkpt>
      <trkpt lat="59.6442369163" lon="18.1793930233">
        <ele>43.6</ele>
        <time>2012-09-16T14:26:45Z</time>
      </trkpt>
      <trkpt lat="59.6441855353" lon="18.1793683805">
        <ele>43</ele>
        <time>2012-09-16T14:26:46Z</time>
      </trkpt>
      <trkpt lat="59.6441304662" lon="18.179341307">
        <ele>42.6</ele>
        <time>2012-09-16T14:26:47Z</time>
      </trkpt>
      <trkpt lat="59.644074056" lon="18.1793011577">
        <ele>42.2</ele>
        <time>2012-09-16T14:26:48Z</time>
      </trkpt>
      <trkpt lat="59.6438328249" lon="18.1791189352">
        <ele>42.2</ele>
        <time>2012-09-16T14:26:52Z</time>
      </trkpt>
      <trkpt lat="59.6434707268" lon="18.1788142531">
        <ele>42.2</ele>
        <time>2012-09-16T14:26:58Z</time>
      </trkpt>
      <trkpt lat="59.6432359498" lon="18.1786571763">
        <ele>42.2</ele>
        <time>2012-09-16T14:27:02Z</time>
      </trkpt>
      <trkpt lat="59.643112233" lon="18.1786378141">
        <ele>42.2</ele>
        <time>2012-09-16T14:27:04Z</time>
      </trkpt>
      <trkpt lat="59.6429883485" lon="18.1786976609">
        <ele>42.2</ele>
        <time>2012-09-16T14:27:06Z</time>
      </trkpt>
      <trkpt lat="59.6429285856" lon="18.1787335354">
        <ele>42.2</ele>
        <time>2012-09-16T14:27:07Z</time>
      </trkpt>
      <trkpt lat="59.6427350475" lon="18.1788170191">
        <ele>42.2</ele>
        <time>2012-09-16T14:27:10Z</time>
      </trkpt>
      <trkpt lat="59.6426063015" lon="18.178765219">
        <ele>42.2</ele>
        <time>2012-09-16T14:27:12Z</time>
      </trkpt>
      <trkpt lat="59.6424559302" lon="18.1785493851">
        <ele>42.2</ele>
        <time>2012-09-16T14:27:15Z</time>
      </trkpt>
      <trkpt lat="59.6424271803" lon="18.1784555078">
        <ele>42.6</ele>
        <time>2012-09-16T14:27:16Z</time>
      </trkpt>
      <trkpt lat="59.642400945" lon="18.178360457">
        <ele>43.2</ele>
        <time>2012-09-16T14:27:17Z</time>
      </trkpt>
      <trkpt lat="59.6423771404" lon="18.1782676694">
        <ele>43.6</ele>
        <time>2012-09-16T14:27:18Z</time>
      </trkpt>
      <trkpt lat="59.6423596222" lon="18.1781585371">
        <ele>44</ele>
        <time>2012-09-16T14:27:19Z</time>
      </trkpt>
      <trkpt lat="59.6423437804" lon="18.1780458005">
        <ele>44.6</ele>
        <time>2012-09-16T14:27:20Z</time>
      </trkpt>
      <trkpt lat="59.6423063971" lon="18.1778113588">
        <ele>45</ele>
        <time>2012-09-16T14:27:22Z</time>
      </trkpt>
      <trkpt lat="59.6422862806" lon="18.1776764102">
        <ele>45.6</ele>
        <time>2012-09-16T14:27:23Z</time>
      </trkpt>
      <trkpt lat="59.6422617216" lon="18.1775515199">
        <ele>46</ele>
        <time>2012-09-16T14:27:24Z</time>
      </trkpt>
      <trkpt lat="59.6422370788" lon="18.177425037">
        <ele>46.6</ele>
        <time>2012-09-16T14:27:25Z</time>
      </trkpt>
      <trkpt lat="59.6422110949" lon="18.1773014878">
        <ele>47.2</ele>
        <time>2012-09-16T14:27:26Z</time>
      </trkpt>
      <trkpt lat="59.6421838537" lon="18.1771708978">
        <ele>47.8</ele>
        <time>2012-09-16T14:27:27Z</time>
      </trkpt>
      <trkpt lat="59.6421581213" lon="18.1770470133">
        <ele>48.4</ele>
        <time>2012-09-16T14:27:28Z</time>
      </trkpt>
      <trkpt lat="59.6421398488" lon="18.1769320975">
        <ele>49</ele>
        <time>2012-09-16T14:27:29Z</time>
      </trkpt>
      <trkpt lat="59.642132808" lon="18.1768161758">
        <ele>49.6</ele>
        <time>2012-09-16T14:27:30Z</time>
      </trkpt>
      <trkpt lat="59.6421164633" lon="18.1767270762">
        <ele>50</ele>
        <time>2012-09-16T14:27:31Z</time>
      </trkpt>
      <trkpt lat="59.642088803" lon="18.1766331989">
        <ele>50.6</ele>
        <time>2012-09-16T14:27:32Z</time>
      </trkpt>
      <trkpt lat="59.6420643278" lon="18.1765406627">
        <ele>51.8</ele>
        <time>2012-09-16T14:27:33Z</time>
      </trkpt>
      <trkpt lat="59.6420015474" lon="18.1762774711">
        <ele>51.8</ele>
        <time>2012-09-16T14:27:36Z</time>
      </trkpt>
      <trkpt lat="59.641951256" lon="18.1760699352">
        <ele>51.8</ele>
        <time>2012-09-16T14:27:38Z</time>
      </trkpt>
      <trkpt lat="59.6418920798" lon="18.1758897244">
        <ele>51.8</ele>
        <time>2012-09-16T14:27:40Z</time>
      </trkpt>
      <trkpt lat="59.6416523575" lon="18.1752936875">
        <ele>51.4</ele>
        <time>2012-09-16T14:27:47Z</time>
      </trkpt>
      <trkpt lat="59.6416094421" lon="18.1752041688">
        <ele>51</ele>
        <time>2012-09-16T14:27:48Z</time>
      </trkpt>
      <trkpt lat="59.64156133" lon="18.1750988083">
        <ele>50.6</ele>
        <time>2012-09-16T14:27:49Z</time>
      </trkpt>
      <trkpt lat="59.6415008127" lon="18.1749968006">
        <ele>50.2</ele>
        <time>2012-09-16T14:27:50Z</time>
      </trkpt>
      <trkpt lat="59.6414403792" lon="18.1748856566">
        <ele>49.8</ele>
        <time>2012-09-16T14:27:51Z</time>
      </trkpt>
      <trkpt lat="59.6413775988" lon="18.1747728362">
        <ele>49.8</ele>
        <time>2012-09-16T14:27:52Z</time>
      </trkpt>
      <trkpt lat="59.6413102083" lon="18.1746578365">
        <ele>49.2</ele>
        <time>2012-09-16T14:27:53Z</time>
      </trkpt>
      <trkpt lat="59.6412444942" lon="18.1745419148">
        <ele>48.8</ele>
        <time>2012-09-16T14:27:54Z</time>
      </trkpt>
      <trkpt lat="59.6411750083" lon="18.1744221375">
        <ele>48.4</ele>
        <time>2012-09-16T14:27:55Z</time>
      </trkpt>
      <trkpt lat="59.6411080369" lon="18.1743196269">
        <ele>48</ele>
        <time>2012-09-16T14:27:56Z</time>
      </trkpt>
      <trkpt lat="59.6410458432" lon="18.1742173677">
        <ele>47.6</ele>
        <time>2012-09-16T14:27:57Z</time>
      </trkpt>
      <trkpt lat="59.6409879242" lon="18.1741174554">
        <ele>47</ele>
        <time>2012-09-16T14:27:58Z</time>
      </trkpt>
      <trkpt lat="59.6409281613" lon="18.1740284397">
        <ele>46.6</ele>
        <time>2012-09-16T14:27:59Z</time>
      </trkpt>
      <trkpt lat="59.6408669734" lon="18.1739429443">
        <ele>46</ele>
        <time>2012-09-16T14:28:00Z</time>
      </trkpt>
      <trkpt lat="59.6408001697" lon="18.1738677586">
        <ele>45.6</ele>
        <time>2012-09-16T14:28:01Z</time>
      </trkpt>
      <trkpt lat="59.6407293426" lon="18.1737909804">
        <ele>45</ele>
        <time>2012-09-16T14:28:02Z</time>
      </trkpt>
      <trkpt lat="59.6405814021" lon="18.1736415311">
        <ele>45</ele>
        <time>2012-09-16T14:28:04Z</time>
      </trkpt>
      <trkpt lat="59.6402048033" lon="18.1733768307">
        <ele>45</ele>
        <time>2012-09-16T14:28:09Z</time>
      </trkpt>
      <trkpt lat="59.6400611376" lon="18.1730626771">
        <ele>45</ele>
        <time>2012-09-16T14:28:12Z</time>
      </trkpt>
      <trkpt lat="59.6400017099" lon="18.1726652074">
        <ele>45</ele>
        <time>2012-09-16T14:28:15Z</time>
      </trkpt>
      <trkpt lat="59.6398983611" lon="18.1720238244">
        <ele>45</ele>
        <time>2012-09-16T14:28:20Z</time>
      </trkpt>
      <trkpt lat="59.6398323955" lon="18.1717842697">
        <ele>45</ele>
        <time>2012-09-16T14:28:22Z</time>
      </trkpt>
      <trkpt lat="59.6397867142" lon="18.1716717846">
        <ele>45.4</ele>
        <time>2012-09-16T14:28:23Z</time>
      </trkpt>
      <trkpt lat="59.6397334053" lon="18.1715819307">
        <ele>46</ele>
        <time>2012-09-16T14:28:24Z</time>
      </trkpt>
      <trkpt lat="59.6396786715" lon="18.1714818508">
        <ele>46.8</ele>
        <time>2012-09-16T14:28:25Z</time>
      </trkpt>
      <trkpt lat="59.6396160587" lon="18.1714086768">
        <ele>47.4</ele>
        <time>2012-09-16T14:28:26Z</time>
      </trkpt>
      <trkpt lat="59.6395595647" lon="18.1713135422">
        <ele>48.2</ele>
        <time>2012-09-16T14:28:27Z</time>
      </trkpt>
      <trkpt lat="59.6395115364" lon="18.1712017277">
        <ele>49</ele>
        <time>2012-09-16T14:28:28Z</time>
      </trkpt>
      <trkpt lat="59.6394687887" lon="18.1710778432">
        <ele>49.6</ele>
        <time>2012-09-16T14:28:29Z</time>
      </trkpt>
      <trkpt lat="59.6394323274" lon="18.1709601613">
        <ele>50.4</ele>
        <time>2012-09-16T14:28:30Z</time>
      </trkpt>
      <trkpt lat="59.6393972911" lon="18.1708299066">
        <ele>51.2</ele>
        <time>2012-09-16T14:28:31Z</time>
      </trkpt>
      <trkpt lat="59.639371391" lon="18.1706863247">
        <ele>51.8</ele>
        <time>2012-09-16T14:28:32Z</time>
      </trkpt>
      <trkpt lat="59.6393474188" lon="18.1705437485">
        <ele>51.8</ele>
        <time>2012-09-16T14:28:33Z</time>
      </trkpt>
      <trkpt lat="59.6392573134" lon="18.1699949017">
        <ele>51.8</ele>
        <time>2012-09-16T14:28:38Z</time>
      </trkpt>
      <trkpt lat="59.6391909287" lon="18.1697291117">
        <ele>51.8</ele>
        <time>2012-09-16T14:28:41Z</time>
      </trkpt>
      <trkpt lat="59.6391330098" lon="18.169583099">
        <ele>51.8</ele>
        <time>2012-09-16T14:28:43Z</time>
      </trkpt>
      <trkpt lat="59.6389699818" lon="18.1694093422">
        <ele>51.8</ele>
        <time>2012-09-16T14:28:47Z</time>
      </trkpt>
      <trkpt lat="59.6387759408" lon="18.1694933288">
        <ele>51.8</ele>
        <time>2012-09-16T14:28:51Z</time>
      </trkpt>
      <trkpt lat="59.6387278287" lon="18.1695378367">
        <ele>51.8</ele>
        <time>2012-09-16T14:28:52Z</time>
      </trkpt>
      <trkpt lat="59.638408646" lon="18.1698327958">
        <ele>51.2</ele>
        <time>2012-09-16T14:28:58Z</time>
      </trkpt>
      <trkpt lat="59.638340082" lon="18.1698701791">
        <ele>50.8</ele>
        <time>2012-09-16T14:28:59Z</time>
      </trkpt>
      <trkpt lat="59.6382708475" lon="18.169901695">
        <ele>50.2</ele>
        <time>2012-09-16T14:29:00Z</time>
      </trkpt>
      <trkpt lat="59.6381908004" lon="18.169941509">
        <ele>49.6</ele>
        <time>2012-09-16T14:29:01Z</time>
      </trkpt>
      <trkpt lat="59.6381074843" lon="18.1699694208">
        <ele>49</ele>
        <time>2012-09-16T14:29:02Z</time>
      </trkpt>
      <trkpt lat="59.6380268504" lon="18.1699913813">
        <ele>48.6</ele>
        <time>2012-09-16T14:29:03Z</time>
      </trkpt>
      <trkpt lat="59.6379429476" lon="18.1700142639">
        <ele>48.2</ele>
        <time>2012-09-16T14:29:04Z</time>
      </trkpt>
      <trkpt lat="59.6378576199" lon="18.1700505576">
        <ele>47.8</ele>
        <time>2012-09-16T14:29:05Z</time>
      </trkpt>
      <trkpt lat="59.6377705319" lon="18.1700695845">
        <ele>47.2</ele>
        <time>2012-09-16T14:29:06Z</time>
      </trkpt>
      <trkpt lat="59.6376863777" lon="18.1700782178">
        <ele>46.8</ele>
        <time>2012-09-16T14:29:07Z</time>
      </trkpt>
      <trkpt lat="59.6375966075" lon="18.1700621246">
        <ele>46.8</ele>
        <time>2012-09-16T14:29:08Z</time>
      </trkpt>
      <trkpt lat="59.6373373553" lon="18.1699125915">
        <ele>46.4</ele>
        <time>2012-09-16T14:29:11Z</time>
      </trkpt>
      <trkpt lat="59.6372589008" lon="18.1698483023">
        <ele>45.6</ele>
        <time>2012-09-16T14:29:12Z</time>
      </trkpt>
      <trkpt lat="59.6371833798" lon="18.1697881203">
        <ele>45</ele>
        <time>2012-09-16T14:29:13Z</time>
      </trkpt>
      <trkpt lat="59.6371139777" lon="18.1697278544">
        <ele>44.6</ele>
        <time>2012-09-16T14:29:14Z</time>
      </trkpt>
      <trkpt lat="59.6369143208" lon="18.1695915647">
        <ele>44.6</ele>
        <time>2012-09-16T14:29:17Z</time>
      </trkpt>
      <trkpt lat="59.6368527977" lon="18.1695696879">
        <ele>44.2</ele>
        <time>2012-09-16T14:29:18Z</time>
      </trkpt>
      <trkpt lat="59.6367916098" lon="18.1695592944">
        <ele>43.8</ele>
        <time>2012-09-16T14:29:19Z</time>
      </trkpt>
      <trkpt lat="59.636731344" lon="18.1695471406">
        <ele>43.4</ele>
        <time>2012-09-16T14:29:20Z</time>
      </trkpt>
      <trkpt lat="59.6366692341" lon="18.1695422791">
        <ele>43</ele>
        <time>2012-09-16T14:29:21Z</time>
      </trkpt>
      <trkpt lat="59.636609555" lon="18.1695349031">
        <ele>42.6</ele>
        <time>2012-09-16T14:29:22Z</time>
      </trkpt>
      <trkpt lat="59.6362101574" lon="18.1694307999">
        <ele>42.6</ele>
        <time>2012-09-16T14:29:28Z</time>
      </trkpt>
      <trkpt lat="59.6358048926" lon="18.1692347472">
        <ele>42.6</ele>
        <time>2012-09-16T14:29:33Z</time>
      </trkpt>
      <trkpt lat="59.6354543615" lon="18.1689773391">
        <ele>41.6</ele>
        <time>2012-09-16T14:29:37Z</time>
      </trkpt>
      <trkpt lat="59.6353630826" lon="18.1689072664">
        <ele>41.2</ele>
        <time>2012-09-16T14:29:38Z</time>
      </trkpt>
      <trkpt lat="59.6352710494" lon="18.1688271354">
        <ele>40.6</ele>
        <time>2012-09-16T14:29:39Z</time>
      </trkpt>
      <trkpt lat="59.6351752442" lon="18.1687630139">
        <ele>40.2</ele>
        <time>2012-09-16T14:29:40Z</time>
      </trkpt>
      <trkpt lat="59.6350786009" lon="18.1687061846">
        <ele>39.6</ele>
        <time>2012-09-16T14:29:41Z</time>
      </trkpt>
      <trkpt lat="59.6349844722" lon="18.1686771832">
        <ele>39</ele>
        <time>2012-09-16T14:29:42Z</time>
      </trkpt>
      <trkpt lat="59.6348936962" lon="18.1686721541">
        <ele>38.6</ele>
        <time>2012-09-16T14:29:43Z</time>
      </trkpt>
      <trkpt lat="59.6348004057" lon="18.1687062684">
        <ele>38</ele>
        <time>2012-09-16T14:29:44Z</time>
      </trkpt>
      <trkpt lat="59.6346264812" lon="18.1688132215">
        <ele>38</ele>
        <time>2012-09-16T14:29:46Z</time>
      </trkpt>
      <trkpt lat="59.634133877" lon="18.1691355055">
        <ele>38</ele>
        <time>2012-09-16T14:29:52Z</time>
      </trkpt>
      <trkpt lat="59.6336338128" lon="18.1694453006">
        <ele>37.6</ele>
        <time>2012-09-16T14:29:58Z</time>
      </trkpt>
      <trkpt lat="59.6335515864" lon="18.1694852822">
        <ele>37.2</ele>
        <time>2012-09-16T14:29:59Z</time>
      </trkpt>
      <trkpt lat="59.6334712878" lon="18.1695317179">
        <ele>36.8</ele>
        <time>2012-09-16T14:30:00Z</time>
      </trkpt>
      <trkpt lat="59.6333847028" lon="18.1695760582">
        <ele>36</ele>
        <time>2012-09-16T14:30:01Z</time>
      </trkpt>
      <trkpt lat="59.6330463255" lon="18.1697464622">
        <ele>36</ele>
        <time>2012-09-16T14:30:05Z</time>
      </trkpt>
      <trkpt lat="59.6324569102" lon="18.1699569317">
        <ele>36</ele>
        <time>2012-09-16T14:30:12Z</time>
      </trkpt>
      <trkpt lat="59.6322897752" lon="18.1699925548">
        <ele>35.6</ele>
        <time>2012-09-16T14:30:14Z</time>
      </trkpt>
      <trkpt lat="59.632206962" lon="18.1700076422">
        <ele>35</ele>
        <time>2012-09-16T14:30:15Z</time>
      </trkpt>
      <trkpt lat="59.632125909" lon="18.1700195445">
        <ele>34.6</ele>
        <time>2012-09-16T14:30:16Z</time>
      </trkpt>
      <trkpt lat="59.6320423415" lon="18.1700308601">
        <ele>34.2</ele>
        <time>2012-09-16T14:30:17Z</time>
      </trkpt>
      <trkpt lat="59.6319581872" lon="18.1700338776">
        <ele>33.8</ele>
        <time>2012-09-16T14:30:18Z</time>
      </trkpt>
      <trkpt lat="59.6318022839" lon="18.1700575145">
        <ele>33.8</ele>
        <time>2012-09-16T14:30:20Z</time>
      </trkpt>
      <trkpt lat="59.6312403613" lon="18.1700611187">
        <ele>33.8</ele>
        <time>2012-09-16T14:30:27Z</time>
      </trkpt>
      <trkpt lat="59.6307287301" lon="18.1700366436">
        <ele>33.8</ele>
        <time>2012-09-16T14:30:34Z</time>
      </trkpt>
      <trkpt lat="59.6302108125" lon="18.1700245737">
        <ele>33.8</ele>
        <time>2012-09-16T14:30:41Z</time>
      </trkpt>
      <trkpt lat="59.6296916376" lon="18.1699822451">
        <ele>33.8</ele>
        <time>2012-09-16T14:30:48Z</time>
      </trkpt>
      <trkpt lat="59.6292570361" lon="18.1699595301">
        <ele>33.8</ele>
        <time>2012-09-16T14:30:54Z</time>
      </trkpt>
      <trkpt lat="59.6287449858" lon="18.1699274274">
        <ele>33.8</ele>
        <time>2012-09-16T14:31:01Z</time>
      </trkpt>
      <trkpt lat="59.6282148307" lon="18.1698948218">
        <ele>33.8</ele>
        <time>2012-09-16T14:31:08Z</time>
      </trkpt>
      <trkpt lat="59.627605718" lon="18.1698477994">
        <ele>33.8</ele>
        <time>2012-09-16T14:31:16Z</time>
      </trkpt>
      <trkpt lat="59.6270174762" lon="18.169685442">
        <ele>33.8</ele>
        <time>2012-09-16T14:31:24Z</time>
      </trkpt>
      <trkpt lat="59.6264474232" lon="18.1694531795">
        <ele>33.8</ele>
        <time>2012-09-16T14:31:32Z</time>
      </trkpt>
      <trkpt lat="59.6258733469" lon="18.1692267006">
        <ele>33.8</ele>
        <time>2012-09-16T14:31:40Z</time>
      </trkpt>
      <trkpt lat="59.6258021846" lon="18.1691923348">
        <ele>33.8</ele>
        <time>2012-09-16T14:31:41Z</time>
      </trkpt>
      <trkpt lat="59.6255905416" lon="18.1690876449">
        <ele>33.8</ele>
        <time>2012-09-16T14:31:44Z</time>
      </trkpt>
      <trkpt lat="59.6253800721" lon="18.1689760818">
        <ele>33.8</ele>
        <time>2012-09-16T14:31:47Z</time>
      </trkpt>
      <trkpt lat="59.6248875516" lon="18.1687395446">
        <ele>33.8</ele>
        <time>2012-09-16T14:31:54Z</time>
      </trkpt>
      <trkpt lat="59.6244420536" lon="18.1684273188">
        <ele>33.8</ele>
        <time>2012-09-16T14:32:01Z</time>
      </trkpt>
      <trkpt lat="59.6242700571" lon="18.1682914482">
        <ele>33.8</ele>
        <time>2012-09-16T14:32:04Z</time>
      </trkpt>
      <trkpt lat="59.6241045984" lon="18.1681260733">
        <ele>33.8</ele>
        <time>2012-09-16T14:32:07Z</time>
      </trkpt>
      <trkpt lat="59.6237647123" lon="18.1677745364">
        <ele>33.8</ele>
        <time>2012-09-16T14:32:13Z</time>
      </trkpt>
      <trkpt lat="59.6236000918" lon="18.1676147774">
        <ele>34.2</ele>
        <time>2012-09-16T14:32:16Z</time>
      </trkpt>
      <trkpt lat="59.6235467829" lon="18.1675606303">
        <ele>34.8</ele>
        <time>2012-09-16T14:32:17Z</time>
      </trkpt>
      <trkpt lat="59.6234912109" lon="18.1675126859">
        <ele>35.2</ele>
        <time>2012-09-16T14:32:18Z</time>
      </trkpt>
      <trkpt lat="59.6234346331" lon="18.1674532582">
        <ele>35.8</ele>
        <time>2012-09-16T14:32:19Z</time>
      </trkpt>
      <trkpt lat="59.6233805698" lon="18.1673982729">
        <ele>36.2</ele>
        <time>2012-09-16T14:32:20Z</time>
      </trkpt>
      <trkpt lat="59.6233262551" lon="18.1673438744">
        <ele>36.2</ele>
        <time>2012-09-16T14:32:21Z</time>
      </trkpt>
      <trkpt lat="59.6229425317" lon="18.1669666889">
        <ele>36.2</ele>
        <time>2012-09-16T14:32:28Z</time>
      </trkpt>
      <trkpt lat="59.6224618298" lon="18.1664936145">
        <ele>36.2</ele>
        <time>2012-09-16T14:32:37Z</time>
      </trkpt>
      <trkpt lat="59.6224070121" lon="18.1664382101">
        <ele>36.2</ele>
        <time>2012-09-16T14:32:38Z</time>
      </trkpt>
      <trkpt lat="59.6220289046" lon="18.1660580909">
        <ele>36.2</ele>
        <time>2012-09-16T14:32:45Z</time>
      </trkpt>
      <trkpt lat="59.6216336981" lon="18.1656731941">
        <ele>36.2</ele>
        <time>2012-09-16T14:32:52Z</time>
      </trkpt>
      <trkpt lat="59.6214116615" lon="18.1654327174">
        <ele>36.2</ele>
        <time>2012-09-16T14:32:56Z</time>
      </trkpt>
      <trkpt lat="59.6213695844" lon="18.1653339786">
        <ele>36.2</ele>
        <time>2012-09-16T14:32:57Z</time>
      </trkpt>
      <trkpt lat="59.6213534911" lon="18.1650668474">
        <ele>36.2</ele>
        <time>2012-09-16T14:32:59Z</time>
      </trkpt>
      <trkpt lat="59.6213701711" lon="18.1649273726">
        <ele>36.2</ele>
        <time>2012-09-16T14:33:00Z</time>
      </trkpt>
      <trkpt lat="59.621397077" lon="18.1643682999">
        <ele>36.2</ele>
        <time>2012-09-16T14:33:04Z</time>
      </trkpt>
      <trkpt lat="59.6213237354" lon="18.1639506298">
        <ele>36.2</ele>
        <time>2012-09-16T14:33:07Z</time>
      </trkpt>
      <trkpt lat="59.6211724421" lon="18.1636843369">
        <ele>36.2</ele>
        <time>2012-09-16T14:33:10Z</time>
      </trkpt>
      <trkpt lat="59.6211170377" lon="18.1636139289">
        <ele>36.2</ele>
        <time>2012-09-16T14:33:11Z</time>
      </trkpt>
      <trkpt lat="59.6208074942" lon="18.1631671736">
        <ele>36.2</ele>
        <time>2012-09-16T14:33:17Z</time>
      </trkpt>
      <trkpt lat="59.6205265329" lon="18.1627174009">
        <ele>36.2</ele>
        <time>2012-09-16T14:33:23Z</time>
      </trkpt>
      <trkpt lat="59.6203758263" lon="18.1625122958">
        <ele>35.8</ele>
        <time>2012-09-16T14:33:26Z</time>
      </trkpt>
      <trkpt lat="59.6203210925" lon="18.1624568914">
        <ele>35.4</ele>
        <time>2012-09-16T14:33:27Z</time>
      </trkpt>
      <trkpt lat="59.6202660234" lon="18.1624082764">
        <ele>35</ele>
        <time>2012-09-16T14:33:28Z</time>
      </trkpt>
      <trkpt lat="59.620209278" lon="18.162363098">
        <ele>34.4</ele>
        <time>2012-09-16T14:33:29Z</time>
      </trkpt>
      <trkpt lat="59.6201543765" lon="18.1623211885">
        <ele>34</ele>
        <time>2012-09-16T14:33:30Z</time>
      </trkpt>
      <trkpt lat="59.6198791987" lon="18.162101918">
        <ele>34</ele>
        <time>2012-09-16T14:33:35Z</time>
      </trkpt>
      <trkpt lat="59.6198227047" lon="18.1620548117">
        <ele>34.4</ele>
        <time>2012-09-16T14:33:36Z</time>
      </trkpt>
      <trkpt lat="59.619769815" lon="18.1620108067">
        <ele>35</ele>
        <time>2012-09-16T14:33:37Z</time>
      </trkpt>
      <trkpt lat="59.6197192721" lon="18.1619687296">
        <ele>35.4</ele>
        <time>2012-09-16T14:33:38Z</time>
      </trkpt>
      <trkpt lat="59.6196689807" lon="18.1619237188">
        <ele>35.8</ele>
        <time>2012-09-16T14:33:39Z</time>
      </trkpt>
      <trkpt lat="59.6196189408" lon="18.1618725892">
        <ele>36.4</ele>
        <time>2012-09-16T14:33:40Z</time>
      </trkpt>
      <trkpt lat="59.6195704096" lon="18.1618135806">
        <ele>36.4</ele>
        <time>2012-09-16T14:33:41Z</time>
      </trkpt>
      <trkpt lat="59.6195221298" lon="18.1617492076">
        <ele>36.4</ele>
        <time>2012-09-16T14:33:42Z</time>
      </trkpt>
      <trkpt lat="59.6194268276" lon="18.1616019376">
        <ele>36.4</ele>
        <time>2012-09-16T14:33:44Z</time>
      </trkpt>
      <trkpt lat="59.6193016858" lon="18.1613679988">
        <ele>36.4</ele>
        <time>2012-09-16T14:33:47Z</time>
      </trkpt>
      <trkpt lat="59.6190542521" lon="18.1608074173">
        <ele>36.4</ele>
        <time>2012-09-16T14:33:53Z</time>
      </trkpt>
      <trkpt lat="59.6189862749" lon="18.1605785076">
        <ele>36.4</ele>
        <time>2012-09-16T14:33:55Z</time>
      </trkpt>
      <trkpt lat="59.618936235" lon="18.1603333371">
        <ele>36.4</ele>
        <time>2012-09-16T14:33:57Z</time>
      </trkpt>
      <trkpt lat="59.6189220696" lon="18.1602112966">
        <ele>36.4</ele>
        <time>2012-09-16T14:33:58Z</time>
      </trkpt>
      <trkpt lat="59.6189260091" lon="18.1595453546">
        <ele>36.4</ele>
        <time>2012-09-16T14:34:04Z</time>
      </trkpt>
      <trkpt lat="59.6189624703" lon="18.1590338073">
        <ele>36.4</ele>
        <time>2012-09-16T14:34:10Z</time>
      </trkpt>
      <trkpt lat="59.6189837604" lon="18.1586773251">
        <ele>36.8</ele>
        <time>2012-09-16T14:34:15Z</time>
      </trkpt>
      <trkpt lat="59.6189854367" lon="18.1585999601">
        <ele>37.4</ele>
        <time>2012-09-16T14:34:16Z</time>
      </trkpt>
      <trkpt lat="59.6189887057" lon="18.1585249421">
        <ele>37.8</ele>
        <time>2012-09-16T14:34:17Z</time>
      </trkpt>
      <trkpt lat="59.6189950759" lon="18.1584512652">
        <ele>38.4</ele>
        <time>2012-09-16T14:34:18Z</time>
      </trkpt>
      <trkpt lat="59.6190043798" lon="18.1583759958">
        <ele>38.8</ele>
        <time>2012-09-16T14:34:19Z</time>
      </trkpt>
      <trkpt lat="59.6190123426" lon="18.1582980441">
        <ele>39.4</ele>
        <time>2012-09-16T14:34:20Z</time>
      </trkpt>
      <trkpt lat="59.6190198864" lon="18.1582106209">
        <ele>39.8</ele>
        <time>2012-09-16T14:34:21Z</time>
      </trkpt>
      <trkpt lat="59.6190261728" lon="18.1581032487">
        <ele>40.2</ele>
        <time>2012-09-16T14:34:22Z</time>
      </trkpt>
      <trkpt lat="59.6190259213" lon="18.1579994808">
        <ele>40.8</ele>
        <time>2012-09-16T14:34:23Z</time>
      </trkpt>
      <trkpt lat="59.6190187967" lon="18.1579026699">
        <ele>41.2</ele>
        <time>2012-09-16T14:34:24Z</time>
      </trkpt>
      <trkpt lat="59.6190113368" lon="18.1578101337">
        <ele>41.8</ele>
        <time>2012-09-16T14:34:25Z</time>
      </trkpt>
      <trkpt lat="59.6190047989" lon="18.1577195254">
        <ele>42.4</ele>
        <time>2012-09-16T14:34:26Z</time>
      </trkpt>
      <trkpt lat="59.618996417" lon="18.157627995">
        <ele>42.8</ele>
        <time>2012-09-16T14:34:27Z</time>
      </trkpt>
      <trkpt lat="59.6189891248" lon="18.1575383087">
        <ele>43.4</ele>
        <time>2012-09-16T14:34:28Z</time>
      </trkpt>
      <trkpt lat="59.6189779769" lon="18.1573549965">
        <ele>43.8</ele>
        <time>2012-09-16T14:34:30Z</time>
      </trkpt>
      <trkpt lat="59.6189762167" lon="18.1572684115">
        <ele>44.2</ele>
        <time>2012-09-16T14:34:31Z</time>
      </trkpt>
      <trkpt lat="59.6189752947" lon="18.1571791443">
        <ele>44.6</ele>
        <time>2012-09-16T14:34:32Z</time>
      </trkpt>
      <trkpt lat="59.6189708522" lon="18.1570783938">
        <ele>45.6</ele>
        <time>2012-09-16T14:34:33Z</time>
      </trkpt>
      <trkpt lat="59.6189424376" lon="18.1567474764">
        <ele>45.6</ele>
        <time>2012-09-16T14:34:36Z</time>
      </trkpt>
      <trkpt lat="59.6188633963" lon="18.1561860568">
        <ele>45</ele>
        <time>2012-09-16T14:34:40Z</time>
      </trkpt>
      <trkpt lat="59.6188376639" lon="18.1560253757">
        <ele>44.6</ele>
        <time>2012-09-16T14:34:41Z</time>
      </trkpt>
      <trkpt lat="59.6188155356" lon="18.1558762617">
        <ele>44</ele>
        <time>2012-09-16T14:34:42Z</time>
      </trkpt>
      <trkpt lat="59.6188029628" lon="18.1557287403">
        <ele>43.6</ele>
        <time>2012-09-16T14:34:43Z</time>
      </trkpt>
      <trkpt lat="59.6188017055" lon="18.1555867509">
        <ele>43</ele>
        <time>2012-09-16T14:34:44Z</time>
      </trkpt>
      <trkpt lat="59.6188124343" lon="18.1554536463">
        <ele>43</ele>
        <time>2012-09-16T14:34:45Z</time>
      </trkpt>
      <trkpt lat="59.6188867818" lon="18.1551196276">
        <ele>43</ele>
        <time>2012-09-16T14:34:48Z</time>
      </trkpt>
      <trkpt lat="59.6189189683" lon="18.1550218947">
        <ele>43</ele>
        <time>2012-09-16T14:34:49Z</time>
      </trkpt>
      <trkpt lat="59.6190700101" lon="18.154630879">
        <ele>43</ele>
        <time>2012-09-16T14:34:53Z</time>
      </trkpt>
      <trkpt lat="59.6191648094" lon="18.1544533504">
        <ele>43</ele>
        <time>2012-09-16T14:34:55Z</time>
      </trkpt>
      <trkpt lat="59.6192187888" lon="18.154360898">
        <ele>42.6</ele>
        <time>2012-09-16T14:34:56Z</time>
      </trkpt>
      <trkpt lat="59.6192726006" lon="18.1542746483">
        <ele>41.8</ele>
        <time>2012-09-16T14:34:57Z</time>
      </trkpt>
      <trkpt lat="59.6193271668" lon="18.1541875603">
        <ele>41.2</ele>
        <time>2012-09-16T14:34:58Z</time>
      </trkpt>
      <trkpt lat="59.6193824874" lon="18.1540967844">
        <ele>40.8</ele>
        <time>2012-09-16T14:34:59Z</time>
      </trkpt>
      <trkpt lat="59.6194330302" lon="18.1539923459">
        <ele>40.8</ele>
        <time>2012-09-16T14:35:00Z</time>
      </trkpt>
      <trkpt lat="59.6194766999" lon="18.1538738258">
        <ele>40.8</ele>
        <time>2012-09-16T14:35:01Z</time>
      </trkpt>
      <trkpt lat="59.6195496224" lon="18.1534738416">
        <ele>40.8</ele>
        <time>2012-09-16T14:35:04Z</time>
      </trkpt>
      <trkpt lat="59.6195590102" lon="18.1533457661">
        <ele>40.8</ele>
        <time>2012-09-16T14:35:05Z</time>
      </trkpt>
      <trkpt lat="59.6195534781" lon="18.1531040321">
        <ele>40.8</ele>
        <time>2012-09-16T14:35:07Z</time>
      </trkpt>
      <trkpt lat="59.6195425816" lon="18.1529856797">
        <ele>40.8</ele>
        <time>2012-09-16T14:35:08Z</time>
      </trkpt>
      <trkpt lat="59.6194729281" lon="18.1526501522">
        <ele>40.8</ele>
        <time>2012-09-16T14:35:11Z</time>
      </trkpt>
      <trkpt lat="59.6194468603" lon="18.152535404">
        <ele>40.8</ele>
        <time>2012-09-16T14:35:12Z</time>
      </trkpt>
      <trkpt lat="59.6193293461" lon="18.1520973659">
        <ele>40.8</ele>
        <time>2012-09-16T14:35:16Z</time>
      </trkpt>
      <trkpt lat="59.6192068027" lon="18.151428658">
        <ele>40.8</ele>
        <time>2012-09-16T14:35:21Z</time>
      </trkpt>
      <trkpt lat="59.6190524081" lon="18.150519138">
        <ele>40.8</ele>
        <time>2012-09-16T14:35:28Z</time>
      </trkpt>
      <trkpt lat="59.6190116721" lon="18.1501639969">
        <ele>40.8</ele>
        <time>2012-09-16T14:35:31Z</time>
      </trkpt>
      <trkpt lat="59.6190137676" lon="18.1499128752">
        <ele>40.8</ele>
        <time>2012-09-16T14:35:33Z</time>
      </trkpt>
      <trkpt lat="59.6190131808" lon="18.1496495159">
        <ele>40.8</ele>
        <time>2012-09-16T14:35:35Z</time>
      </trkpt>
      <trkpt lat="59.6189730315" lon="18.1494118052">
        <ele>40.8</ele>
        <time>2012-09-16T14:35:37Z</time>
      </trkpt>
      <trkpt lat="59.6188078243" lon="18.1490062889">
        <ele>40.8</ele>
        <time>2012-09-16T14:35:41Z</time>
      </trkpt>
      <trkpt lat="59.6187560241" lon="18.1489127469">
        <ele>41.2</ele>
        <time>2012-09-16T14:35:42Z</time>
      </trkpt>
      <trkpt lat="59.6187061518" lon="18.148823312">
        <ele>41.8</ele>
        <time>2012-09-16T14:35:43Z</time>
      </trkpt>
      <trkpt lat="59.6186551899" lon="18.1487318655">
        <ele>42.2</ele>
        <time>2012-09-16T14:35:44Z</time>
      </trkpt>
      <trkpt lat="59.6186043956" lon="18.1486402513">
        <ele>42.6</ele>
        <time>2012-09-16T14:35:45Z</time>
      </trkpt>
      <trkpt lat="59.6185536851" lon="18.1485496429">
        <ele>43.2</ele>
        <time>2012-09-16T14:35:46Z</time>
      </trkpt>
      <trkpt lat="59.618362913" lon="18.1481753911">
        <ele>43.2</ele>
        <time>2012-09-16T14:35:50Z</time>
      </trkpt>
      <trkpt lat="59.6183272061" lon="18.1480826873">
        <ele>43.2</ele>
        <time>2012-09-16T14:35:51Z</time>
      </trkpt>
      <trkpt lat="59.6182362625" lon="18.147796194">
        <ele>43.2</ele>
        <time>2012-09-16T14:35:54Z</time>
      </trkpt>
      <trkpt lat="59.6182274615" lon="18.1476851338">
        <ele>43.2</ele>
        <time>2012-09-16T14:35:55Z</time>
      </trkpt>
      <trkpt lat="59.6182648448" lon="18.1472267277">
        <ele>43.6</ele>
        <time>2012-09-16T14:35:59Z</time>
      </trkpt>
      <trkpt lat="59.6182811057" lon="18.147121451">
        <ele>44.2</ele>
        <time>2012-09-16T14:36:00Z</time>
      </trkpt>
      <trkpt lat="59.6182955226" lon="18.1470199462">
        <ele>44.8</ele>
        <time>2012-09-16T14:36:01Z</time>
      </trkpt>
      <trkpt lat="59.6183093527" lon="18.1469202016">
        <ele>45.2</ele>
        <time>2012-09-16T14:36:02Z</time>
      </trkpt>
      <trkpt lat="59.6183220932" lon="18.1468166013">
        <ele>45.8</ele>
        <time>2012-09-16T14:36:03Z</time>
      </trkpt>
      <trkpt lat="59.6183659305" lon="18.1465065548">
        <ele>45.8</ele>
        <time>2012-09-16T14:36:06Z</time>
      </trkpt>
      <trkpt lat="59.6184268669" lon="18.1459360827">
        <ele>45.8</ele>
        <time>2012-09-16T14:36:11Z</time>
      </trkpt>
      <trkpt lat="59.6184246876" lon="18.1458235976">
        <ele>45.8</ele>
        <time>2012-09-16T14:36:12Z</time>
      </trkpt>
      <trkpt lat="59.6183817723" lon="18.1454887407">
        <ele>45.8</ele>
        <time>2012-09-16T14:36:15Z</time>
      </trkpt>
      <trkpt lat="59.6183637512" lon="18.145386733">
        <ele>45.8</ele>
        <time>2012-09-16T14:36:16Z</time>
      </trkpt>
      <trkpt lat="59.6182901581" lon="18.1450183485">
        <ele>45.8</ele>
        <time>2012-09-16T14:36:20Z</time>
      </trkpt>
      <trkpt lat="59.6182704607" lon="18.1448479444">
        <ele>45.8</ele>
        <time>2012-09-16T14:36:22Z</time>
      </trkpt>
      <trkpt lat="59.6182611568" lon="18.1442560147">
        <ele>45.8</ele>
        <time>2012-09-16T14:36:28Z</time>
      </trkpt>
      <trkpt lat="59.6182614082" lon="18.1439608042">
        <ele>46.2</ele>
        <time>2012-09-16T14:36:31Z</time>
      </trkpt>
      <trkpt lat="59.6182516852" lon="18.1438583773">
        <ele>46.6</ele>
        <time>2012-09-16T14:36:32Z</time>
      </trkpt>
      <trkpt lat="59.6182387771" lon="18.1437527654">
        <ele>47.2</ele>
        <time>2012-09-16T14:36:33Z</time>
      </trkpt>
      <trkpt lat="59.6182234382" lon="18.1436463153">
        <ele>47.6</ele>
        <time>2012-09-16T14:36:34Z</time>
      </trkpt>
      <trkpt lat="59.6182088537" lon="18.1435397813">
        <ele>48</ele>
        <time>2012-09-16T14:36:35Z</time>
      </trkpt>
      <trkpt lat="59.6181711352" lon="18.1432527851">
        <ele>48</ele>
        <time>2012-09-16T14:36:38Z</time>
      </trkpt>
      <trkpt lat="59.6181625018" lon="18.1431559741">
        <ele>48</ele>
        <time>2012-09-16T14:36:39Z</time>
      </trkpt>
      <trkpt lat="59.6181252862" lon="18.1428160881">
        <ele>48</ele>
        <time>2012-09-16T14:36:42Z</time>
      </trkpt>
      <trkpt lat="59.618103158" lon="18.1426843246">
        <ele>48.4</ele>
        <time>2012-09-16T14:36:43Z</time>
      </trkpt>
      <trkpt lat="59.6180754977" lon="18.1425578417">
        <ele>49</ele>
        <time>2012-09-16T14:36:44Z</time>
      </trkpt>
      <trkpt lat="59.618040629" lon="18.1424366395">
        <ele>49.4</ele>
        <time>2012-09-16T14:36:45Z</time>
      </trkpt>
      <trkpt lat="59.6179982166" lon="18.1423212207">
        <ele>49.8</ele>
        <time>2012-09-16T14:36:46Z</time>
      </trkpt>
      <trkpt lat="59.6179477575" lon="18.1422161955">
        <ele>50.2</ele>
        <time>2012-09-16T14:36:47Z</time>
      </trkpt>
      <trkpt lat="59.6178355239" lon="18.1420322128">
        <ele>50.2</ele>
        <time>2012-09-16T14:36:49Z</time>
      </trkpt>
      <trkpt lat="59.6177760962" lon="18.1419380002">
        <ele>50.2</ele>
        <time>2012-09-16T14:36:50Z</time>
      </trkpt>
      <trkpt lat="59.6174632837" lon="18.1413892372">
        <ele>50.2</ele>
        <time>2012-09-16T14:36:56Z</time>
      </trkpt>
      <trkpt lat="59.6174172671" lon="18.1413048315">
        <ele>50.2</ele>
        <time>2012-09-16T14:36:57Z</time>
      </trkpt>
      <trkpt lat="59.6172925444" lon="18.1410024125">
        <ele>50.2</ele>
        <time>2012-09-16T14:37:00Z</time>
      </trkpt>
      <trkpt lat="59.6172572566" lon="18.1408904304">
        <ele>50.2</ele>
        <time>2012-09-16T14:37:01Z</time>
      </trkpt>
      <trkpt lat="59.6171207993" lon="18.1404189485">
        <ele>50.6</ele>
        <time>2012-09-16T14:37:05Z</time>
      </trkpt>
      <trkpt lat="59.617081572" lon="18.1402995064">
        <ele>51</ele>
        <time>2012-09-16T14:37:06Z</time>
      </trkpt>
      <trkpt lat="59.61704268" lon="18.1401938945">
        <ele>51.6</ele>
        <time>2012-09-16T14:37:07Z</time>
      </trkpt>
      <trkpt lat="59.6170021116" lon="18.1400933117">
        <ele>52</ele>
        <time>2012-09-16T14:37:08Z</time>
      </trkpt>
      <trkpt lat="59.6169593639" lon="18.139992226">
        <ele>52.4</ele>
        <time>2012-09-16T14:37:09Z</time>
      </trkpt>
      <trkpt lat="59.6167284425" lon="18.1395149606">
        <ele>52</ele>
        <time>2012-09-16T14:37:14Z</time>
      </trkpt>
      <trkpt lat="59.6166788217" lon="18.1394230111">
        <ele>51.6</ele>
        <time>2012-09-16T14:37:15Z</time>
      </trkpt>
      <trkpt lat="59.616627273" lon="18.1393319837">
        <ele>51.2</ele>
        <time>2012-09-16T14:37:16Z</time>
      </trkpt>
      <trkpt lat="59.6165737127" lon="18.1392419621">
        <ele>50.8</ele>
        <time>2012-09-16T14:37:17Z</time>
      </trkpt>
      <trkpt lat="59.6165162966" lon="18.1391635075">
        <ele>50.4</ele>
        <time>2012-09-16T14:37:18Z</time>
      </trkpt>
      <trkpt lat="59.616387383" lon="18.1390143935">
        <ele>50.4</ele>
        <time>2012-09-16T14:37:20Z</time>
      </trkpt>
      <trkpt lat="59.6160922563" lon="18.1388602504">
        <ele>50.4</ele>
        <time>2012-09-16T14:37:24Z</time>
      </trkpt>
      <trkpt lat="59.6159469142" lon="18.1388616753">
        <ele>49.8</ele>
        <time>2012-09-16T14:37:26Z</time>
      </trkpt>
      <trkpt lat="59.6158779311" lon="18.1388645251">
        <ele>49.4</ele>
        <time>2012-09-16T14:37:27Z</time>
      </trkpt>
      <trkpt lat="59.6158062659" lon="18.1388695543">
        <ele>49</ele>
        <time>2012-09-16T14:37:28Z</time>
      </trkpt>
      <trkpt lat="59.6157409709" lon="18.1388724879">
        <ele>48.6</ele>
        <time>2012-09-16T14:37:29Z</time>
      </trkpt>
      <trkpt lat="59.6156801183" lon="18.1388677941">
        <ele>48.2</ele>
        <time>2012-09-16T14:37:30Z</time>
      </trkpt>
      <trkpt lat="59.6156264741" lon="18.1388548859">
        <ele>48.2</ele>
        <time>2012-09-16T14:37:31Z</time>
      </trkpt>
      <trkpt lat="59.6155259752" lon="18.1388056842">
        <ele>48.2</ele>
        <time>2012-09-16T14:37:33Z</time>
      </trkpt>
      <trkpt lat="59.6154344448" lon="18.1387230387">
        <ele>48.2</ele>
        <time>2012-09-16T14:37:35Z</time>
      </trkpt>
      <trkpt lat="59.6153466863" lon="18.1386382977">
        <ele>48.2</ele>
        <time>2012-09-16T14:37:37Z</time>
      </trkpt>
      <trkpt lat="59.6153033519" lon="18.138602926">
        <ele>48.2</ele>
        <time>2012-09-16T14:37:38Z</time>
      </trkpt>
      <trkpt lat="59.6152617777" lon="18.1385632796">
        <ele>48.2</ele>
        <time>2012-09-16T14:37:39Z</time>
      </trkpt>
      <trkpt lat="59.6150391544" lon="18.1383400697">
        <ele>48.2</ele>
        <time>2012-09-16T14:37:44Z</time>
      </trkpt>
      <trkpt lat="59.6148892022" lon="18.1381879382">
        <ele>48.6</ele>
        <time>2012-09-16T14:37:47Z</time>
      </trkpt>
      <trkpt lat="59.6148396652" lon="18.1381332044">
        <ele>49.2</ele>
        <time>2012-09-16T14:37:48Z</time>
      </trkpt>
      <trkpt lat="59.6147871945" lon="18.1380774647">
        <ele>49.6</ele>
        <time>2012-09-16T14:37:49Z</time>
      </trkpt>
      <trkpt lat="59.6147303652" lon="18.1380254131">
        <ele>50.6</ele>
        <time>2012-09-16T14:37:50Z</time>
      </trkpt>
      <trkpt lat="59.6146685906" lon="18.1379747026">
        <ele>50.6</ele>
        <time>2012-09-16T14:37:51Z</time>
      </trkpt>
      <trkpt lat="59.6146076542" lon="18.1379368164">
        <ele>50.6</ele>
        <time>2012-09-16T14:37:52Z</time>
      </trkpt>
      <trkpt lat="59.6143457198" lon="18.1377939889">
        <ele>50.6</ele>
        <time>2012-09-16T14:37:56Z</time>
      </trkpt>
      <trkpt lat="59.614201132" lon="18.13775736">
        <ele>50.6</ele>
        <time>2012-09-16T14:37:58Z</time>
      </trkpt>
      <trkpt lat="59.6139951049" lon="18.1377507383">
        <ele>50.6</ele>
        <time>2012-09-16T14:38:01Z</time>
      </trkpt>
      <trkpt lat="59.6135612578" lon="18.1376178013">
        <ele>50.2</ele>
        <time>2012-09-16T14:38:07Z</time>
      </trkpt>
      <trkpt lat="59.6134906822" lon="18.1375773168">
        <ele>49.8</ele>
        <time>2012-09-16T14:38:08Z</time>
      </trkpt>
      <trkpt lat="59.6134211963" lon="18.1375375027">
        <ele>49.4</ele>
        <time>2012-09-16T14:38:09Z</time>
      </trkpt>
      <trkpt lat="59.6133523809" lon="18.1374988622">
        <ele>49</ele>
        <time>2012-09-16T14:38:10Z</time>
      </trkpt>
      <trkpt lat="59.6132854933" lon="18.1374639935">
        <ele>48.4</ele>
        <time>2012-09-16T14:38:11Z</time>
      </trkpt>
      <trkpt lat="59.6130224693" lon="18.1373724631">
        <ele>48.4</ele>
        <time>2012-09-16T14:38:15Z</time>
      </trkpt>
      <trkpt lat="59.6128964893" lon="18.1373741395">
        <ele>48.4</ele>
        <time>2012-09-16T14:38:17Z</time>
      </trkpt>
      <trkpt lat="59.612712339" lon="18.1374288733">
        <ele>48.4</ele>
        <time>2012-09-16T14:38:20Z</time>
      </trkpt>
      <trkpt lat="59.6125081559" lon="18.1374192341">
        <ele>48.4</ele>
        <time>2012-09-16T14:38:23Z</time>
      </trkpt>
      <trkpt lat="59.6124387538" lon="18.1373904004">
        <ele>48.4</ele>
        <time>2012-09-16T14:38:24Z</time>
      </trkpt>
      <trkpt lat="59.6123769792" lon="18.1373474851">
        <ele>48.4</ele>
        <time>2012-09-16T14:38:25Z</time>
      </trkpt>
      <trkpt lat="59.6122204053" lon="18.1371662684">
        <ele>48.4</ele>
        <time>2012-09-16T14:38:28Z</time>
      </trkpt>
      <trkpt lat="59.6120808466" lon="18.1369303179">
        <ele>48.4</ele>
        <time>2012-09-16T14:38:31Z</time>
      </trkpt>
      <trkpt lat="59.6119489993" lon="18.1366717363">
        <ele>48.4</ele>
        <time>2012-09-16T14:38:34Z</time>
      </trkpt>
      <trkpt lat="59.6117899947" lon="18.136448191">
        <ele>48.4</ele>
        <time>2012-09-16T14:38:37Z</time>
      </trkpt>
      <trkpt lat="59.6116682057" lon="18.1363471891">
        <ele>48.4</ele>
        <time>2012-09-16T14:38:39Z</time>
      </trkpt>
      <trkpt lat="59.6115438183" lon="18.1362707462">
        <ele>48.4</ele>
        <time>2012-09-16T14:38:41Z</time>
      </trkpt>
      <trkpt lat="59.6112858234" lon="18.1361803055">
        <ele>48.4</ele>
        <time>2012-09-16T14:38:45Z</time>
      </trkpt>
      <trkpt lat="59.6111589214" lon="18.1361491248">
        <ele>48</ele>
        <time>2012-09-16T14:38:47Z</time>
      </trkpt>
      <trkpt lat="59.6110953866" lon="18.1361259069">
        <ele>47.6</ele>
        <time>2012-09-16T14:38:48Z</time>
      </trkpt>
      <trkpt lat="59.6110333606" lon="18.1360885237">
        <ele>47.2</ele>
        <time>2012-09-16T14:38:49Z</time>
      </trkpt>
      <trkpt lat="59.610974352" lon="18.1360421718">
        <ele>46.8</ele>
        <time>2012-09-16T14:38:50Z</time>
      </trkpt>
      <trkpt lat="59.61091878" lon="18.1359830794">
        <ele>46.4</ele>
        <time>2012-09-16T14:38:51Z</time>
      </trkpt>
      <trkpt lat="59.6108271658" lon="18.1358102446">
        <ele>46.4</ele>
        <time>2012-09-16T14:38:53Z</time>
      </trkpt>
      <trkpt lat="59.6107482083" lon="18.1355971767">
        <ele>46.8</ele>
        <time>2012-09-16T14:38:55Z</time>
      </trkpt>
      <trkpt lat="59.6107046225" lon="18.135501623">
        <ele>47.4</ele>
        <time>2012-09-16T14:38:56Z</time>
      </trkpt>
      <trkpt lat="59.6106576" lon="18.1354193128">
        <ele>47.8</ele>
        <time>2012-09-16T14:38:57Z</time>
      </trkpt>
      <trkpt lat="59.6106057999" lon="18.1353445462">
        <ele>48.2</ele>
        <time>2012-09-16T14:38:58Z</time>
      </trkpt>
      <trkpt lat="59.610549222" lon="18.1352695282">
        <ele>48.6</ele>
        <time>2012-09-16T14:38:59Z</time>
      </trkpt>
      <trkpt lat="59.6104364017" lon="18.1351235993">
        <ele>48.6</ele>
        <time>2012-09-16T14:39:01Z</time>
      </trkpt>
      <trkpt lat="59.6103748785" lon="18.1350635849">
        <ele>48.6</ele>
        <time>2012-09-16T14:39:02Z</time>
      </trkpt>
      <trkpt lat="59.6101780715" lon="18.1349442267">
        <ele>48.6</ele>
        <time>2012-09-16T14:39:05Z</time>
      </trkpt>
      <trkpt lat="59.6101144529" lon="18.1349128784">
        <ele>48.6</ele>
        <time>2012-09-16T14:39:06Z</time>
      </trkpt>
      <trkpt lat="59.6099895626" lon="18.1348137205">
        <ele>48.6</ele>
        <time>2012-09-16T14:39:08Z</time>
      </trkpt>
      <trkpt lat="59.6098650914" lon="18.1346856451">
        <ele>48.6</ele>
        <time>2012-09-16T14:39:10Z</time>
      </trkpt>
      <trkpt lat="59.6096001395" lon="18.1342884268">
        <ele>48</ele>
        <time>2012-09-16T14:39:15Z</time>
      </trkpt>
      <trkpt lat="59.6095660252" lon="18.1341682304">
        <ele>47.6</ele>
        <time>2012-09-16T14:39:16Z</time>
      </trkpt>
      <trkpt lat="59.6095366885" lon="18.134043843">
        <ele>47.2</ele>
        <time>2012-09-16T14:39:17Z</time>
      </trkpt>
      <trkpt lat="59.6095159014" lon="18.1339239818">
        <ele>46.8</ele>
        <time>2012-09-16T14:39:18Z</time>
      </trkpt>
      <trkpt lat="59.6095006463" lon="18.1338071381">
        <ele>46.2</ele>
        <time>2012-09-16T14:39:19Z</time>
      </trkpt>
      <trkpt lat="59.6094912586" lon="18.1336923061">
        <ele>46.6</ele>
        <time>2012-09-16T14:39:20Z</time>
      </trkpt>
      <trkpt lat="59.6094776799" lon="18.1335845149">
        <ele>47</ele>
        <time>2012-09-16T14:39:21Z</time>
      </trkpt>
      <trkpt lat="59.609462844" lon="18.1334736223">
        <ele>47.6</ele>
        <time>2012-09-16T14:39:22Z</time>
      </trkpt>
      <trkpt lat="59.6094511093" lon="18.1333618078">
        <ele>48</ele>
        <time>2012-09-16T14:39:23Z</time>
      </trkpt>
      <trkpt lat="59.6094429789" lon="18.1332532622">
        <ele>48.4</ele>
        <time>2012-09-16T14:39:24Z</time>
      </trkpt>
      <trkpt lat="59.6094214374" lon="18.1329098557">
        <ele>48.4</ele>
        <time>2012-09-16T14:39:27Z</time>
      </trkpt>
      <trkpt lat="59.6094335911" lon="18.1327052536">
        <ele>48.4</ele>
        <time>2012-09-16T14:39:29Z</time>
      </trkpt>
      <trkpt lat="59.6094495168" lon="18.1325000646">
        <ele>48.4</ele>
        <time>2012-09-16T14:39:31Z</time>
      </trkpt>
      <trkpt lat="59.6094431465" lon="18.1321777806">
        <ele>48.4</ele>
        <time>2012-09-16T14:39:34Z</time>
      </trkpt>
      <trkpt lat="59.6094323339" lon="18.1320656308">
        <ele>48.4</ele>
        <time>2012-09-16T14:39:35Z</time>
      </trkpt>
      <trkpt lat="59.6093776839" lon="18.1316107451">
        <ele>48.4</ele>
        <time>2012-09-16T14:39:39Z</time>
      </trkpt>
      <trkpt lat="59.6093542984" lon="18.1311090045">
        <ele>48.4</ele>
        <time>2012-09-16T14:39:43Z</time>
      </trkpt>
      <trkpt lat="59.6092968824" lon="18.1308779155">
        <ele>48.4</ele>
        <time>2012-09-16T14:39:45Z</time>
      </trkpt>
      <trkpt lat="59.6091292444" lon="18.1307450624">
        <ele>48.4</ele>
        <time>2012-09-16T14:39:48Z</time>
      </trkpt>
      <trkpt lat="59.6090118139" lon="18.1307220122">
        <ele>48.4</ele>
        <time>2012-09-16T14:39:50Z</time>
      </trkpt>
      <trkpt lat="59.608957164" lon="18.1307046617">
        <ele>48.4</ele>
        <time>2012-09-16T14:39:51Z</time>
      </trkpt>
      <trkpt lat="59.6088517196" lon="18.1306375226">
        <ele>48.4</ele>
        <time>2012-09-16T14:39:53Z</time>
      </trkpt>
      <trkpt lat="59.6086999234" lon="18.1304637659">
        <ele>48.4</ele>
        <time>2012-09-16T14:39:56Z</time>
      </trkpt>
      <trkpt lat="59.6085937248" lon="18.1303397976">
        <ele>48.4</ele>
        <time>2012-09-16T14:39:58Z</time>
      </trkpt>
      <trkpt lat="59.6082909705" lon="18.1299192776">
        <ele>48.4</ele>
        <time>2012-09-16T14:40:03Z</time>
      </trkpt>
      <trkpt lat="59.6080354064" lon="18.1295241549">
        <ele>48.4</ele>
        <time>2012-09-16T14:40:07Z</time>
      </trkpt>
      <trkpt lat="59.6079624839" lon="18.1294484663">
        <ele>48</ele>
        <time>2012-09-16T14:40:08Z</time>
      </trkpt>
      <trkpt lat="59.6078904834" lon="18.1293736998">
        <ele>47.4</ele>
        <time>2012-09-16T14:40:09Z</time>
      </trkpt>
      <trkpt lat="59.6078179799" lon="18.1293090753">
        <ele>47</ele>
        <time>2012-09-16T14:40:10Z</time>
      </trkpt>
      <trkpt lat="59.607750338" lon="18.1292490609">
        <ele>46.6</ele>
        <time>2012-09-16T14:40:11Z</time>
      </trkpt>
      <trkpt lat="59.6076866355" lon="18.1291876216">
        <ele>46.2</ele>
        <time>2012-09-16T14:40:12Z</time>
      </trkpt>
      <trkpt lat="59.6076215082" lon="18.1291245059">
        <ele>46.2</ele>
        <time>2012-09-16T14:40:13Z</time>
      </trkpt>
      <trkpt lat="59.6075625834" lon="18.129046638">
        <ele>46.2</ele>
        <time>2012-09-16T14:40:14Z</time>
      </trkpt>
      <trkpt lat="59.6074670298" lon="18.1288210811">
        <ele>46.2</ele>
        <time>2012-09-16T14:40:16Z</time>
      </trkpt>
      <trkpt lat="59.6074350109" lon="18.1284001421">
        <ele>46.2</ele>
        <time>2012-09-16T14:40:19Z</time>
      </trkpt>
      <trkpt lat="59.6074268805" lon="18.1280146585">
        <ele>46.2</ele>
        <time>2012-09-16T14:40:22Z</time>
      </trkpt>
      <trkpt lat="59.607395616" lon="18.1277860003">
        <ele>46.2</ele>
        <time>2012-09-16T14:40:24Z</time>
      </trkpt>
      <trkpt lat="59.6072863998" lon="18.1273015264">
        <ele>46.2</ele>
        <time>2012-09-16T14:40:28Z</time>
      </trkpt>
      <trkpt lat="59.6072485136" lon="18.1271793183">
        <ele>46.2</ele>
        <time>2012-09-16T14:40:29Z</time>
      </trkpt>
      <trkpt lat="59.6071659519" lon="18.1269297892">
        <ele>46.2</ele>
        <time>2012-09-16T14:40:31Z</time>
      </trkpt>
      <trkpt lat="59.6071235395" lon="18.1268106824">
        <ele>45.6</ele>
        <time>2012-09-16T14:40:32Z</time>
      </trkpt>
      <trkpt lat="59.6070870782" lon="18.1266827746">
        <ele>45</ele>
        <time>2012-09-16T14:40:33Z</time>
      </trkpt>
      <trkpt lat="59.6070642795" lon="18.1265446409">
        <ele>44.6</ele>
        <time>2012-09-16T14:40:34Z</time>
      </trkpt>
      <trkpt lat="59.6070557299" lon="18.1264013104">
        <ele>44</ele>
        <time>2012-09-16T14:40:35Z</time>
      </trkpt>
      <trkpt lat="59.6070632736" lon="18.1262567226">
        <ele>43.4</ele>
        <time>2012-09-16T14:40:36Z</time>
      </trkpt>
      <trkpt lat="59.6070807918" lon="18.1261191756">
        <ele>43.4</ele>
        <time>2012-09-16T14:40:37Z</time>
      </trkpt>
      <trkpt lat="59.6071069433" lon="18.1259900944">
        <ele>43</ele>
        <time>2012-09-16T14:40:38Z</time>
      </trkpt>
      <trkpt lat="59.6071356933" lon="18.1258747594">
        <ele>42.6</ele>
        <time>2012-09-16T14:40:39Z</time>
      </trkpt>
      <trkpt lat="59.6071613419" lon="18.1257671358">
        <ele>42.2</ele>
        <time>2012-09-16T14:40:40Z</time>
      </trkpt>
      <trkpt lat="59.6071813746" lon="18.1256542316">
        <ele>41.8</ele>
        <time>2012-09-16T14:40:41Z</time>
      </trkpt>
      <trkpt lat="59.6072008206" lon="18.1255368012">
        <ele>41.4</ele>
        <time>2012-09-16T14:40:42Z</time>
      </trkpt>
      <trkpt lat="59.6072480945" lon="18.1251774692">
        <ele>41.4</ele>
        <time>2012-09-16T14:40:45Z</time>
      </trkpt>
      <trkpt lat="59.6072728211" lon="18.1250448675">
        <ele>41.4</ele>
        <time>2012-09-16T14:40:46Z</time>
      </trkpt>
      <trkpt lat="59.6074162355" lon="18.1246111042">
        <ele>41.4</ele>
        <time>2012-09-16T14:40:50Z</time>
      </trkpt>
      <trkpt lat="59.6075416287" lon="18.1243210066">
        <ele>41.4</ele>
        <time>2012-09-16T14:40:53Z</time>
      </trkpt>
      <trkpt lat="59.6075906628" lon="18.1240928513">
        <ele>41.4</ele>
        <time>2012-09-16T14:40:55Z</time>
      </trkpt>
      <trkpt lat="59.607610947" lon="18.1237191024">
        <ele>41.4</ele>
        <time>2012-09-16T14:40:58Z</time>
      </trkpt>
      <trkpt lat="59.6076153894" lon="18.1234631192">
        <ele>41.4</ele>
        <time>2012-09-16T14:41:00Z</time>
      </trkpt>
      <trkpt lat="59.6076261182" lon="18.1227351511">
        <ele>41.4</ele>
        <time>2012-09-16T14:41:06Z</time>
      </trkpt>
      <trkpt lat="59.6075849631" lon="18.1223900683">
        <ele>41.4</ele>
        <time>2012-09-16T14:41:09Z</time>
      </trkpt>
      <trkpt lat="59.6075332468" lon="18.1221816105">
        <ele>41.4</ele>
        <time>2012-09-16T14:41:11Z</time>
      </trkpt>
      <trkpt lat="59.6074778424" lon="18.1219831271">
        <ele>41.4</ele>
        <time>2012-09-16T14:41:13Z</time>
      </trkpt>
      <trkpt lat="59.6073639324" lon="18.1217280659">
        <ele>41.4</ele>
        <time>2012-09-16T14:41:16Z</time>
      </trkpt>
      <trkpt lat="59.6070734157" lon="18.1211307717">
        <ele>41.4</ele>
        <time>2012-09-16T14:41:23Z</time>
      </trkpt>
      <trkpt lat="59.6068253115" lon="18.1206047236">
        <ele>41.4</ele>
        <time>2012-09-16T14:41:29Z</time>
      </trkpt>
      <trkpt lat="59.6067373854" lon="18.1204287037">
        <ele>41.4</ele>
        <time>2012-09-16T14:41:31Z</time>
      </trkpt>
      <trkpt lat="59.6067003374" lon="18.1203204096">
        <ele>42.2</ele>
        <time>2012-09-16T14:41:32Z</time>
      </trkpt>
      <trkpt lat="59.6066682347" lon="18.1202064157">
        <ele>42.6</ele>
        <time>2012-09-16T14:41:33Z</time>
      </trkpt>
      <trkpt lat="59.6066364673" lon="18.1200916675">
        <ele>43</ele>
        <time>2012-09-16T14:41:34Z</time>
      </trkpt>
      <trkpt lat="59.6066054543" lon="18.1199758297">
        <ele>43.4</ele>
        <time>2012-09-16T14:41:35Z</time>
      </trkpt>
      <trkpt lat="59.6065005967" lon="18.1196451637">
        <ele>43.4</ele>
        <time>2012-09-16T14:41:38Z</time>
      </trkpt>
      <trkpt lat="59.6064023608" lon="18.1194491949">
        <ele>43.4</ele>
        <time>2012-09-16T14:41:40Z</time>
      </trkpt>
      <trkpt lat="59.6062624669" lon="18.1191417468">
        <ele>43.4</ele>
        <time>2012-09-16T14:41:43Z</time>
      </trkpt>
      <trkpt lat="59.6062013629" lon="18.1188882781">
        <ele>43.4</ele>
        <time>2012-09-16T14:41:45Z</time>
      </trkpt>
      <trkpt lat="59.6060986008" lon="18.1182245155">
        <ele>43</ele>
        <time>2012-09-16T14:41:50Z</time>
      </trkpt>
      <trkpt lat="59.6060772269" lon="18.1180866332">
        <ele>42.4</ele>
        <time>2012-09-16T14:41:51Z</time>
      </trkpt>
      <trkpt lat="59.6060553502" lon="18.117947326">
        <ele>42</ele>
        <time>2012-09-16T14:41:52Z</time>
      </trkpt>
      <trkpt lat="59.6060336411" lon="18.1178077674">
        <ele>41.6</ele>
        <time>2012-09-16T14:41:53Z</time>
      </trkpt>
      <trkpt lat="59.6060126863" lon="18.117663012">
        <ele>41.2</ele>
        <time>2012-09-16T14:41:54Z</time>
      </trkpt>
      <trkpt lat="59.6059350699" lon="18.1167891989">
        <ele>41.2</ele>
        <time>2012-09-16T14:42:00Z</time>
      </trkpt>
      <trkpt lat="59.6059275262" lon="18.1166382409">
        <ele>40.8</ele>
        <time>2012-09-16T14:42:01Z</time>
      </trkpt>
      <trkpt lat="59.6059187252" lon="18.1164775599">
        <ele>40.4</ele>
        <time>2012-09-16T14:42:02Z</time>
      </trkpt>
      <trkpt lat="59.6059114329" lon="18.1163249255">
        <ele>40</ele>
        <time>2012-09-16T14:42:03Z</time>
      </trkpt>
      <trkpt lat="59.6059039731" lon="18.1161757277">
        <ele>39.6</ele>
        <time>2012-09-16T14:42:04Z</time>
      </trkpt>
      <trkpt lat="59.6058945853" lon="18.1160334868">
        <ele>39.2</ele>
        <time>2012-09-16T14:42:05Z</time>
      </trkpt>
      <trkpt lat="59.6058758937" lon="18.1157728097">
        <ele>39.2</ele>
        <time>2012-09-16T14:42:07Z</time>
      </trkpt>
      <trkpt lat="59.6058714513" lon="18.1156496796">
        <ele>39.6</ele>
        <time>2012-09-16T14:42:08Z</time>
      </trkpt>
      <trkpt lat="59.6058667574" lon="18.1155290641">
        <ele>40.2</ele>
        <time>2012-09-16T14:42:09Z</time>
      </trkpt>
      <trkpt lat="59.6058611415" lon="18.1154081971">
        <ele>40.6</ele>
        <time>2012-09-16T14:42:10Z</time>
      </trkpt>
      <trkpt lat="59.605855358" lon="18.1152949576">
        <ele>41.2</ele>
        <time>2012-09-16T14:42:11Z</time>
      </trkpt>
      <trkpt lat="59.6058497422" lon="18.1151787845">
        <ele>41.6</ele>
        <time>2012-09-16T14:42:12Z</time>
      </trkpt>
      <trkpt lat="59.6058450483" lon="18.1150634495">
        <ele>41.6</ele>
        <time>2012-09-16T14:42:13Z</time>
      </trkpt>
      <trkpt lat="59.6058062401" lon="18.1143969208">
        <ele>41.6</ele>
        <time>2012-09-16T14:42:19Z</time>
      </trkpt>
      <trkpt lat="59.6057836928" lon="18.1141836015">
        <ele>41.6</ele>
        <time>2012-09-16T14:42:21Z</time>
      </trkpt>
      <trkpt lat="59.6057096806" lon="18.1137386064">
        <ele>41.6</ele>
        <time>2012-09-16T14:42:25Z</time>
      </trkpt>
      <trkpt lat="59.6056296335" lon="18.1132934437">
        <ele>42</ele>
        <time>2012-09-16T14:42:29Z</time>
      </trkpt>
      <trkpt lat="59.6056127859" lon="18.1131838085">
        <ele>42.4</ele>
        <time>2012-09-16T14:42:30Z</time>
      </trkpt>
      <trkpt lat="59.6055995424" lon="18.1130689764">
        <ele>43</ele>
        <time>2012-09-16T14:42:31Z</time>
      </trkpt>
      <trkpt lat="59.6055914958" lon="18.1129510431">
        <ele>43.4</ele>
        <time>2012-09-16T14:42:32Z</time>
      </trkpt>
      <trkpt lat="59.6055882269" lon="18.1128357082">
        <ele>43.8</ele>
        <time>2012-09-16T14:42:33Z</time>
      </trkpt>
      <trkpt lat="59.6056154681" lon="18.112377302">
        <ele>43.8</ele>
        <time>2012-09-16T14:42:37Z</time>
      </trkpt>
      <trkpt lat="59.6056135402" lon="18.1122664095">
        <ele>43.8</ele>
        <time>2012-09-16T14:42:38Z</time>
      </trkpt>
      <trkpt lat="59.6055785039" lon="18.1120528387">
        <ele>43.8</ele>
        <time>2012-09-16T14:42:40Z</time>
      </trkpt>
      <trkpt lat="59.6054014782" lon="18.11170214">
        <ele>43.8</ele>
        <time>2012-09-16T14:42:44Z</time>
      </trkpt>
      <trkpt lat="59.6051765918" lon="18.1115236055">
        <ele>43.8</ele>
        <time>2012-09-16T14:42:47Z</time>
      </trkpt>
      <trkpt lat="59.6050998974" lon="18.1114744876">
        <ele>43.8</ele>
        <time>2012-09-16T14:42:48Z</time>
      </trkpt>
      <trkpt lat="59.6050239574" lon="18.1114184127">
        <ele>43.4</ele>
        <time>2012-09-16T14:42:49Z</time>
      </trkpt>
      <trkpt lat="59.6049479335" lon="18.1113567219">
        <ele>42.8</ele>
        <time>2012-09-16T14:42:50Z</time>
      </trkpt>
      <trkpt lat="59.6048725803" lon="18.1112911754">
        <ele>42.4</ele>
        <time>2012-09-16T14:42:51Z</time>
      </trkpt>
      <trkpt lat="59.6047999092" lon="18.1112213542">
        <ele>42</ele>
        <time>2012-09-16T14:42:52Z</time>
      </trkpt>
      <trkpt lat="59.6047294174" lon="18.1111517006">
        <ele>41.6</ele>
        <time>2012-09-16T14:42:53Z</time>
      </trkpt>
      <trkpt lat="59.6046600153" lon="18.1110733299">
        <ele>41.6</ele>
        <time>2012-09-16T14:42:54Z</time>
      </trkpt>
      <trkpt lat="59.6042911279" lon="18.1105439291">
        <ele>41.6</ele>
        <time>2012-09-16T14:43:00Z</time>
      </trkpt>
      <trkpt lat="59.6042213905" lon="18.1101638099">
        <ele>41.6</ele>
        <time>2012-09-16T14:43:03Z</time>
      </trkpt>
      <trkpt lat="59.6042462009" lon="18.1095045735">
        <ele>41.6</ele>
        <time>2012-09-16T14:43:08Z</time>
      </trkpt>
      <trkpt lat="59.6042885295" lon="18.1089813753">
        <ele>41</ele>
        <time>2012-09-16T14:43:12Z</time>
      </trkpt>
      <trkpt lat="59.6042885295" lon="18.108853216">
        <ele>40.6</ele>
        <time>2012-09-16T14:43:13Z</time>
      </trkpt>
      <trkpt lat="59.6042825783" lon="18.1087289124">
        <ele>40.2</ele>
        <time>2012-09-16T14:43:14Z</time>
      </trkpt>
      <trkpt lat="59.6042715142" lon="18.1086077102">
        <ele>39.8</ele>
        <time>2012-09-16T14:43:15Z</time>
      </trkpt>
      <trkpt lat="59.6042573488" lon="18.1084910341">
        <ele>39.4</ele>
        <time>2012-09-16T14:43:16Z</time>
      </trkpt>
      <trkpt lat="59.6041951551" lon="18.1081464542">
        <ele>39.4</ele>
        <time>2012-09-16T14:43:19Z</time>
      </trkpt>
      <trkpt lat="59.6040296964" lon="18.1075604756">
        <ele>39.4</ele>
        <time>2012-09-16T14:43:24Z</time>
      </trkpt>
      <trkpt lat="59.6037945003" lon="18.1068398836">
        <ele>39.4</ele>
        <time>2012-09-16T14:43:31Z</time>
      </trkpt>
      <trkpt lat="59.6037290376" lon="18.1065515463">
        <ele>39.4</ele>
        <time>2012-09-16T14:43:34Z</time>
      </trkpt>
      <trkpt lat="59.6036982761" lon="18.106363205">
        <ele>39.4</ele>
        <time>2012-09-16T14:43:36Z</time>
      </trkpt>
      <trkpt lat="59.6035842822" lon="18.1056457143">
        <ele>39.4</ele>
        <time>2012-09-16T14:43:43Z</time>
      </trkpt>
      <trkpt lat="59.6035039836" lon="18.1048384535">
        <ele>39.4</ele>
        <time>2012-09-16T14:43:50Z</time>
      </trkpt>
      <trkpt lat="59.6034207514" lon="18.104371917">
        <ele>39.4</ele>
        <time>2012-09-16T14:43:54Z</time>
      </trkpt>
      <trkpt lat="59.6033876429" lon="18.1042596833">
        <ele>39.4</ele>
        <time>2012-09-16T14:43:55Z</time>
      </trkpt>
      <trkpt lat="59.6031620021" lon="18.103610589">
        <ele>39.4</ele>
        <time>2012-09-16T14:44:01Z</time>
      </trkpt>
      <trkpt lat="59.6028706473" lon="18.1027998078">
        <ele>39.4</ele>
        <time>2012-09-16T14:44:09Z</time>
      </trkpt>
      <trkpt lat="59.6026089643" lon="18.1021010088">
        <ele>39.4</ele>
        <time>2012-09-16T14:44:16Z</time>
      </trkpt>
      <trkpt lat="59.6023104011" lon="18.1012944186">
        <ele>39.4</ele>
        <time>2012-09-16T14:44:24Z</time>
      </trkpt>
      <trkpt lat="59.6022233131" lon="18.1010090149">
        <ele>39</ele>
        <time>2012-09-16T14:44:27Z</time>
      </trkpt>
      <trkpt lat="59.6021927192" lon="18.1009192447">
        <ele>38.6</ele>
        <time>2012-09-16T14:44:28Z</time>
      </trkpt>
      <trkpt lat="59.6021658133" lon="18.1008267924">
        <ele>38.2</ele>
        <time>2012-09-16T14:44:29Z</time>
      </trkpt>
      <trkpt lat="59.6021362252" lon="18.1007298976">
        <ele>37.8</ele>
        <time>2012-09-16T14:44:30Z</time>
      </trkpt>
      <trkpt lat="59.6021076429" lon="18.1006373614">
        <ele>37.4</ele>
        <time>2012-09-16T14:44:31Z</time>
      </trkpt>
      <trkpt lat="59.6020072277" lon="18.1002503691">
        <ele>37.4</ele>
        <time>2012-09-16T14:44:35Z</time>
      </trkpt>
      <trkpt lat="59.6018809125" lon="18.0996954035">
        <ele>37.4</ele>
        <time>2012-09-16T14:44:41Z</time>
      </trkpt>
      <trkpt lat="59.6017866161" lon="18.0993337245">
        <ele>37.4</ele>
        <time>2012-09-16T14:44:45Z</time>
      </trkpt>
      <trkpt lat="59.6017531724" lon="18.0992504085">
        <ele>37.4</ele>
        <time>2012-09-16T14:44:46Z</time>
      </trkpt>
      <trkpt lat="59.6016747178" lon="18.0990955109">
        <ele>37.4</ele>
        <time>2012-09-16T14:44:48Z</time>
      </trkpt>
      <trkpt lat="59.6015500789" lon="18.0989154677">
        <ele>37.4</ele>
        <time>2012-09-16T14:44:51Z</time>
      </trkpt>
      <trkpt lat="59.6013375978" lon="18.09887272">
        <ele>37.4</ele>
        <time>2012-09-16T14:44:55Z</time>
      </trkpt>
      <trkpt lat="59.601220335" lon="18.0989233467">
        <ele>37.4</ele>
        <time>2012-09-16T14:44:57Z</time>
      </trkpt>
      <trkpt lat="59.6009682074" lon="18.0990024718">
        <ele>37.4</ele>
        <time>2012-09-16T14:45:01Z</time>
      </trkpt>
      <trkpt lat="59.6005128188" lon="18.0991376719">
        <ele>37.4</ele>
        <time>2012-09-16T14:45:08Z</time>
      </trkpt>
      <trkpt lat="59.5999636367" lon="18.0993087465">
        <ele>37.4</ele>
        <time>2012-09-16T14:45:16Z</time>
      </trkpt>
      <trkpt lat="59.5995737107" lon="18.0994298649">
        <ele>37.4</ele>
        <time>2012-09-16T14:45:22Z</time>
      </trkpt>
      <trkpt lat="59.5991713795" lon="18.0995567669">
        <ele>37.4</ele>
        <time>2012-09-16T14:45:28Z</time>
      </trkpt>
      <trkpt lat="59.5987666176" lon="18.0996745326">
        <ele>37.4</ele>
        <time>2012-09-16T14:45:33Z</time>
      </trkpt>
      <trkpt lat="59.598301003" lon="18.0998316094">
        <ele>37.4</ele>
        <time>2012-09-16T14:45:39Z</time>
      </trkpt>
      <trkpt lat="59.5981681499" lon="18.0999052025">
        <ele>36.8</ele>
        <time>2012-09-16T14:45:41Z</time>
      </trkpt>
      <trkpt lat="59.5981052018" lon="18.0999466091">
        <ele>36.4</ele>
        <time>2012-09-16T14:45:42Z</time>
      </trkpt>
      <trkpt lat="59.598042589" lon="18.0999914522">
        <ele>36</ele>
        <time>2012-09-16T14:45:43Z</time>
      </trkpt>
      <trkpt lat="59.5979828261" lon="18.100037385">
        <ele>35.4</ele>
        <time>2012-09-16T14:45:44Z</time>
      </trkpt>
      <trkpt lat="59.5979238175" lon="18.1000899396">
        <ele>35</ele>
        <time>2012-09-16T14:45:45Z</time>
      </trkpt>
      <trkpt lat="59.5976245837" lon="18.1004167498">
        <ele>35</ele>
        <time>2012-09-16T14:45:51Z</time>
      </trkpt>
      <trkpt lat="59.597482259" lon="18.1006221902">
        <ele>35</ele>
        <time>2012-09-16T14:45:54Z</time>
      </trkpt>
      <trkpt lat="59.5973556923" lon="18.1008723899">
        <ele>35.4</ele>
        <time>2012-09-16T14:45:57Z</time>
      </trkpt>
      <trkpt lat="59.5973134476" lon="18.1009615733">
        <ele>35.8</ele>
        <time>2012-09-16T14:45:58Z</time>
      </trkpt>
      <trkpt lat="59.5972722086" lon="18.1010540257">
        <ele>36.4</ele>
        <time>2012-09-16T14:45:59Z</time>
      </trkpt>
      <trkpt lat="59.5972300477" lon="18.10115947">
        <ele>36.8</ele>
        <time>2012-09-16T14:46:00Z</time>
      </trkpt>
      <trkpt lat="59.5971818517" lon="18.1012800855">
        <ele>37.2</ele>
        <time>2012-09-16T14:46:01Z</time>
      </trkpt>
      <trkpt lat="59.5971321471" lon="18.1014033833">
        <ele>37.6</ele>
        <time>2012-09-16T14:46:02Z</time>
      </trkpt>
      <trkpt lat="59.597083113" lon="18.1015303691">
        <ele>38.2</ele>
        <time>2012-09-16T14:46:03Z</time>
      </trkpt>
      <trkpt lat="59.5970313128" lon="18.1016577739">
        <ele>39.2</ele>
        <time>2012-09-16T14:46:04Z</time>
      </trkpt>
      <trkpt lat="59.5969770819" lon="18.1017815746">
        <ele>39.8</ele>
        <time>2012-09-16T14:46:05Z</time>
      </trkpt>
      <trkpt lat="59.5969252818" lon="18.101900849">
        <ele>40.4</ele>
        <time>2012-09-16T14:46:06Z</time>
      </trkpt>
      <trkpt lat="59.596877924" lon="18.1020168545">
        <ele>41</ele>
        <time>2012-09-16T14:46:07Z</time>
      </trkpt>
      <trkpt lat="59.5968303987" lon="18.1021357937">
        <ele>41.6</ele>
        <time>2012-09-16T14:46:08Z</time>
      </trkpt>
      <trkpt lat="59.596785304" lon="18.1022451775">
        <ele>42</ele>
        <time>2012-09-16T14:46:09Z</time>
      </trkpt>
      <trkpt lat="59.5967389521" lon="18.1023587522">
        <ele>42.4</ele>
        <time>2012-09-16T14:46:10Z</time>
      </trkpt>
      <trkpt lat="59.5966926002" lon="18.1024679684">
        <ele>42.8</ele>
        <time>2012-09-16T14:46:11Z</time>
      </trkpt>
      <trkpt lat="59.5966441529" lon="18.1025716525">
        <ele>43.4</ele>
        <time>2012-09-16T14:46:12Z</time>
      </trkpt>
      <trkpt lat="59.5965962084" lon="18.1026763424">
        <ele>43.8</ele>
        <time>2012-09-16T14:46:13Z</time>
      </trkpt>
      <trkpt lat="59.5965040913" lon="18.1028829563">
        <ele>43.8</ele>
        <time>2012-09-16T14:46:15Z</time>
      </trkpt>
      <trkpt lat="59.5962667997" lon="18.1033779075">
        <ele>43.8</ele>
        <time>2012-09-16T14:46:21Z</time>
      </trkpt>
      <trkpt lat="59.5961494531" lon="18.1036359023">
        <ele>44.2</ele>
        <time>2012-09-16T14:46:25Z</time>
      </trkpt>
      <trkpt lat="59.5961113993" lon="18.1037009459">
        <ele>44.6</ele>
        <time>2012-09-16T14:46:26Z</time>
      </trkpt>
      <trkpt lat="59.5960695736" lon="18.103762972">
        <ele>45</ele>
        <time>2012-09-16T14:46:27Z</time>
      </trkpt>
      <trkpt lat="59.596022635" lon="18.1038048815">
        <ele>45.4</ele>
        <time>2012-09-16T14:46:28Z</time>
      </trkpt>
      <trkpt lat="59.5959778756" lon="18.1038510657">
        <ele>45.8</ele>
        <time>2012-09-16T14:46:29Z</time>
      </trkpt>
      <trkpt lat="59.5958835792" lon="18.1039154387">
        <ele>45.8</ele>
        <time>2012-09-16T14:46:31Z</time>
      </trkpt>
      <trkpt lat="59.5957912107" lon="18.1039283468">
        <ele>45.8</ele>
        <time>2012-09-16T14:46:33Z</time>
      </trkpt>
      <trkpt lat="59.5957431824" lon="18.1039235692">
        <ele>45.8</ele>
        <time>2012-09-16T14:46:34Z</time>
      </trkpt>
      <trkpt lat="59.5956425996" lon="18.1039164445">
        <ele>45.8</ele>
        <time>2012-09-16T14:46:36Z</time>
      </trkpt>
      <trkpt lat="59.5952532604" lon="18.1038839228">
        <ele>45.8</ele>
        <time>2012-09-16T14:46:43Z</time>
      </trkpt>
      <trkpt lat="59.5947549564" lon="18.1038534965">
        <ele>45.8</ele>
        <time>2012-09-16T14:46:51Z</time>
      </trkpt>
      <trkpt lat="59.5943346879" lon="18.1038376547">
        <ele>45.8</ele>
        <time>2012-09-16T14:46:58Z</time>
      </trkpt>
      <trkpt lat="59.5940345321" lon="18.1039233177">
        <ele>45.8</ele>
        <time>2012-09-16T14:47:03Z</time>
      </trkpt>
      <trkpt lat="59.5939210412" lon="18.10398987">
        <ele>45.8</ele>
        <time>2012-09-16T14:47:05Z</time>
      </trkpt>
      <trkpt lat="59.5938095619" lon="18.1040948952">
        <ele>45.8</ele>
        <time>2012-09-16T14:47:07Z</time>
      </trkpt>
      <trkpt lat="59.593751643" lon="18.1041575918">
        <ele>45.8</ele>
        <time>2012-09-16T14:47:08Z</time>
      </trkpt>
      <trkpt lat="59.5936350508" lon="18.1042823983">
        <ele>45.4</ele>
        <time>2012-09-16T14:47:10Z</time>
      </trkpt>
      <trkpt lat="59.5935808199" lon="18.1043401496">
        <ele>44.8</ele>
        <time>2012-09-16T14:47:11Z</time>
      </trkpt>
      <trkpt lat="59.5935286006" lon="18.1044009184">
        <ele>44.4</ele>
        <time>2012-09-16T14:47:12Z</time>
      </trkpt>
      <trkpt lat="59.5934812429" lon="18.1044647046">
        <ele>44</ele>
        <time>2012-09-16T14:47:13Z</time>
      </trkpt>
      <trkpt lat="59.5934340528" lon="18.1045186002">
        <ele>43.6</ele>
        <time>2012-09-16T14:47:14Z</time>
      </trkpt>
      <trkpt lat="59.5933845158" lon="18.1045606774">
        <ele>43.6</ele>
        <time>2012-09-16T14:47:15Z</time>
      </trkpt>
      <trkpt lat="59.5931330588" lon="18.1048419739">
        <ele>43.6</ele>
        <time>2012-09-16T14:47:20Z</time>
      </trkpt>
      <trkpt lat="59.5928292149" lon="18.1051650962">
        <ele>43.6</ele>
        <time>2012-09-16T14:47:26Z</time>
      </trkpt>
      <trkpt lat="59.5925179111" lon="18.1054986958">
        <ele>43.6</ele>
        <time>2012-09-16T14:47:32Z</time>
      </trkpt>
      <trkpt lat="59.59221281" lon="18.1058350615">
        <ele>43.6</ele>
        <time>2012-09-16T14:47:38Z</time>
      </trkpt>
      <trkpt lat="59.5920746762" lon="18.1059856842">
        <ele>44</ele>
        <time>2012-09-16T14:47:41Z</time>
      </trkpt>
      <trkpt lat="59.5920336049" lon="18.1060317008">
        <ele>44.4</ele>
        <time>2012-09-16T14:47:42Z</time>
      </trkpt>
      <trkpt lat="59.5919938747" lon="18.1060795615">
        <ele>45.2</ele>
        <time>2012-09-16T14:47:43Z</time>
      </trkpt>
      <trkpt lat="59.5919510432" lon="18.1061296014">
        <ele>45.6</ele>
        <time>2012-09-16T14:47:44Z</time>
      </trkpt>
      <trkpt lat="59.5919059486" lon="18.1061693316">
        <ele>45.6</ele>
        <time>2012-09-16T14:47:45Z</time>
      </trkpt>
      <trkpt lat="59.5917346226" lon="18.1063567509">
        <ele>46.2</ele>
        <time>2012-09-16T14:47:49Z</time>
      </trkpt>
      <trkpt lat="59.5916938865" lon="18.1064034381">
        <ele>46.6</ele>
        <time>2012-09-16T14:47:50Z</time>
      </trkpt>
      <trkpt lat="59.5916503007" lon="18.1064512149">
        <ele>47.2</ele>
        <time>2012-09-16T14:47:51Z</time>
      </trkpt>
      <trkpt lat="59.5916088941" lon="18.1064927891">
        <ele>47.6</ele>
        <time>2012-09-16T14:47:52Z</time>
      </trkpt>
      <trkpt lat="59.5915659787" lon="18.1065350339">
        <ele>48.2</ele>
        <time>2012-09-16T14:47:53Z</time>
      </trkpt>
      <trkpt lat="59.5915223929" lon="18.1065756023">
        <ele>48.6</ele>
        <time>2012-09-16T14:47:54Z</time>
      </trkpt>
      <trkpt lat="59.5914753704" lon="18.1066210322">
        <ele>49</ele>
        <time>2012-09-16T14:47:55Z</time>
      </trkpt>
      <trkpt lat="59.5914288509" lon="18.1066626903">
        <ele>49.4</ele>
        <time>2012-09-16T14:47:56Z</time>
      </trkpt>
      <trkpt lat="59.5913807387" lon="18.1067035101">
        <ele>50</ele>
        <time>2012-09-16T14:47:57Z</time>
      </trkpt>
      <trkpt lat="59.591331537" lon="18.1067465931">
        <ele>50.4</ele>
        <time>2012-09-16T14:47:58Z</time>
      </trkpt>
      <trkpt lat="59.5910095882" lon="18.1069564759">
        <ele>50.4</ele>
        <time>2012-09-16T14:48:04Z</time>
      </trkpt>
      <trkpt lat="59.5907856238" lon="18.1070665302">
        <ele>51.2</ele>
        <time>2012-09-16T14:48:08Z</time>
      </trkpt>
      <trkpt lat="59.5907277887" lon="18.1071024886">
        <ele>51.6</ele>
        <time>2012-09-16T14:48:09Z</time>
      </trkpt>
      <trkpt lat="59.590666098" lon="18.1071365191">
        <ele>52</ele>
        <time>2012-09-16T14:48:10Z</time>
      </trkpt>
      <trkpt lat="59.5906071732" lon="18.1071676997">
        <ele>52.4</ele>
        <time>2012-09-16T14:48:11Z</time>
      </trkpt>
      <trkpt lat="59.5902121342" lon="18.107376912">
        <ele>52.4</ele>
        <time>2012-09-16T14:48:18Z</time>
      </trkpt>
      <trkpt lat="59.5901540477" lon="18.107400968">
        <ele>53</ele>
        <time>2012-09-16T14:48:19Z</time>
      </trkpt>
      <trkpt lat="59.5900960449" lon="18.1074283768">
        <ele>53.4</ele>
        <time>2012-09-16T14:48:20Z</time>
      </trkpt>
      <trkpt lat="59.5900374555" lon="18.1074594737">
        <ele>53.8</ele>
        <time>2012-09-16T14:48:21Z</time>
      </trkpt>
      <trkpt lat="59.5899760161" lon="18.1074881398">
        <ele>54.4</ele>
        <time>2012-09-16T14:48:22Z</time>
      </trkpt>
      <trkpt lat="59.5899148283" lon="18.1075133693">
        <ele>54</ele>
        <time>2012-09-16T14:48:23Z</time>
      </trkpt>
      <trkpt lat="59.5898476054" lon="18.1075398561">
        <ele>53.6</ele>
        <time>2012-09-16T14:48:24Z</time>
      </trkpt>
      <trkpt lat="59.5897823104" lon="18.1075650018">
        <ele>53.2</ele>
        <time>2012-09-16T14:48:25Z</time>
      </trkpt>
      <trkpt lat="59.5897138303" lon="18.1075841125">
        <ele>52.8</ele>
        <time>2012-09-16T14:48:26Z</time>
      </trkpt>
      <trkpt lat="59.5896423327" lon="18.1075935841">
        <ele>52.4</ele>
        <time>2012-09-16T14:48:27Z</time>
      </trkpt>
      <trkpt lat="59.5894984993" lon="18.1075890578">
        <ele>52.4</ele>
        <time>2012-09-16T14:48:29Z</time>
      </trkpt>
      <trkpt lat="59.5891483873" lon="18.1074753155">
        <ele>52.4</ele>
        <time>2012-09-16T14:48:34Z</time>
      </trkpt>
      <trkpt lat="59.5885981994" lon="18.1072065079">
        <ele>52</ele>
        <time>2012-09-16T14:48:42Z</time>
      </trkpt>
      <trkpt lat="59.588533072" lon="18.1071728965">
        <ele>51.6</ele>
        <time>2012-09-16T14:48:43Z</time>
      </trkpt>
      <trkpt lat="59.588467777" lon="18.1071472479">
        <ele>51.2</ele>
        <time>2012-09-16T14:48:44Z</time>
      </trkpt>
      <trkpt lat="59.5884009733" lon="18.1071177436">
        <ele>50.8</ele>
        <time>2012-09-16T14:48:45Z</time>
      </trkpt>
      <trkpt lat="59.5883338343" lon="18.1070887422">
        <ele>50.4</ele>
        <time>2012-09-16T14:48:46Z</time>
      </trkpt>
      <trkpt lat="59.5882682878" lon="18.1070545441">
        <ele>50</ele>
        <time>2012-09-16T14:48:47Z</time>
      </trkpt>
      <trkpt lat="59.5882033281" lon="18.1070174123">
        <ele>49.4</ele>
        <time>2012-09-16T14:48:48Z</time>
      </trkpt>
      <trkpt lat="59.5881335069" lon="18.1069808672">
        <ele>49</ele>
        <time>2012-09-16T14:48:49Z</time>
      </trkpt>
      <trkpt lat="59.5880657811" lon="18.1069504409">
        <ele>48.6</ele>
        <time>2012-09-16T14:48:50Z</time>
      </trkpt>
      <trkpt lat="59.5879967981" lon="18.1069208528">
        <ele>48</ele>
        <time>2012-09-16T14:48:51Z</time>
      </trkpt>
      <trkpt lat="59.5875823131" lon="18.1067047674">
        <ele>48</ele>
        <time>2012-09-16T14:48:57Z</time>
      </trkpt>
      <trkpt lat="59.5872202989" lon="18.1065529712">
        <ele>48</ele>
        <time>2012-09-16T14:49:02Z</time>
      </trkpt>
      <trkpt lat="59.5867407704" lon="18.1063116563">
        <ele>48</ele>
        <time>2012-09-16T14:49:09Z</time>
      </trkpt>
      <trkpt lat="59.5862700429" lon="18.1060797291">
        <ele>48</ele>
        <time>2012-09-16T14:49:16Z</time>
      </trkpt>
      <trkpt lat="59.5858012432" lon="18.1058622188">
        <ele>48</ele>
        <time>2012-09-16T14:49:23Z</time>
      </trkpt>
      <trkpt lat="59.585251642" lon="18.1056025475">
        <ele>48</ele>
        <time>2012-09-16T14:49:31Z</time>
      </trkpt>
      <trkpt lat="59.5851147656" lon="18.1055371687">
        <ele>47.6</ele>
        <time>2012-09-16T14:49:33Z</time>
      </trkpt>
      <trkpt lat="59.5850472075" lon="18.1055048984">
        <ele>47.2</ele>
        <time>2012-09-16T14:49:34Z</time>
      </trkpt>
      <trkpt lat="59.5849830859" lon="18.1054774896">
        <ele>46.8</ele>
        <time>2012-09-16T14:49:35Z</time>
      </trkpt>
      <trkpt lat="59.5849176233" lon="18.1054458898">
        <ele>46.4</ele>
        <time>2012-09-16T14:49:36Z</time>
      </trkpt>
      <trkpt lat="59.5848529988" lon="18.1054174752">
        <ele>46</ele>
        <time>2012-09-16T14:49:37Z</time>
      </trkpt>
      <trkpt lat="59.5847903861" lon="18.1053886415">
        <ele>46</ele>
        <time>2012-09-16T14:49:38Z</time>
      </trkpt>
      <trkpt lat="59.5843340754" lon="18.1051516851">
        <ele>46.4</ele>
        <time>2012-09-16T14:49:45Z</time>
      </trkpt>
      <trkpt lat="59.5842738934" lon="18.1051157268">
        <ele>47.2</ele>
        <time>2012-09-16T14:49:46Z</time>
      </trkpt>
      <trkpt lat="59.5842131246" lon="18.1050879827">
        <ele>47.6</ele>
        <time>2012-09-16T14:49:47Z</time>
      </trkpt>
      <trkpt lat="59.5841477458" lon="18.1050614959">
        <ele>48.2</ele>
        <time>2012-09-16T14:49:48Z</time>
      </trkpt>
      <trkpt lat="59.5840870608" lon="18.1050245317">
        <ele>48.2</ele>
        <time>2012-09-16T14:49:49Z</time>
      </trkpt>
      <trkpt lat="59.5840275493" lon="18.1049941892">
        <ele>48.2</ele>
        <time>2012-09-16T14:49:50Z</time>
      </trkpt>
      <trkpt lat="59.5836744199" lon="18.1047716498">
        <ele>48.2</ele>
        <time>2012-09-16T14:49:56Z</time>
      </trkpt>
      <trkpt lat="59.5833847414" lon="18.1044995733">
        <ele>48.2</ele>
        <time>2012-09-16T14:50:01Z</time>
      </trkpt>
      <trkpt lat="59.5833251461" lon="18.1044440013">
        <ele>48.6</ele>
        <time>2012-09-16T14:50:02Z</time>
      </trkpt>
      <trkpt lat="59.5832656346" lon="18.1043908601">
        <ele>49</ele>
        <time>2012-09-16T14:50:03Z</time>
      </trkpt>
      <trkpt lat="59.5832085539" lon="18.1043374674">
        <ele>49.6</ele>
        <time>2012-09-16T14:50:04Z</time>
      </trkpt>
      <trkpt lat="59.5831502159" lon="18.1042808057">
        <ele>50</ele>
        <time>2012-09-16T14:50:05Z</time>
      </trkpt>
      <trkpt lat="59.5830939733" lon="18.1042267425">
        <ele>50.4</ele>
        <time>2012-09-16T14:50:06Z</time>
      </trkpt>
      <trkpt lat="59.5829818235" lon="18.1041122457">
        <ele>50.4</ele>
        <time>2012-09-16T14:50:08Z</time>
      </trkpt>
      <trkpt lat="59.5827505669" lon="18.1038867726">
        <ele>50.8</ele>
        <time>2012-09-16T14:50:12Z</time>
      </trkpt>
      <trkpt lat="59.5826942405" lon="18.1038339666">
        <ele>51.2</ele>
        <time>2012-09-16T14:50:13Z</time>
      </trkpt>
      <trkpt lat="59.5826409316" lon="18.1037777241">
        <ele>51.6</ele>
        <time>2012-09-16T14:50:14Z</time>
      </trkpt>
      <trkpt lat="59.5825884609" lon="18.103716201">
        <ele>52</ele>
        <time>2012-09-16T14:50:15Z</time>
      </trkpt>
      <trkpt lat="59.5825318831" lon="18.1036560189">
        <ele>52.4</ele>
        <time>2012-09-16T14:50:16Z</time>
      </trkpt>
      <trkpt lat="59.5823285382" lon="18.1033565336">
        <ele>52.4</ele>
        <time>2012-09-16T14:50:20Z</time>
      </trkpt>
      <trkpt lat="59.5822858743" lon="18.1032699486">
        <ele>52.4</ele>
        <time>2012-09-16T14:50:21Z</time>
      </trkpt>
      <trkpt lat="59.5821421247" lon="18.102914556">
        <ele>52.4</ele>
        <time>2012-09-16T14:50:25Z</time>
      </trkpt>
      <trkpt lat="59.5819437252" lon="18.1023160046">
        <ele>52.4</ele>
        <time>2012-09-16T14:50:31Z</time>
      </trkpt>
      <trkpt lat="59.5817376981" lon="18.1016946543">
        <ele>52.4</ele>
        <time>2012-09-16T14:50:37Z</time>
      </trkpt>
      <trkpt lat="59.5817033323" lon="18.1016017829">
        <ele>53</ele>
        <time>2012-09-16T14:50:38Z</time>
      </trkpt>
      <trkpt lat="59.5816705591" lon="18.1015074865">
        <ele>53.4</ele>
        <time>2012-09-16T14:50:39Z</time>
      </trkpt>
      <trkpt lat="59.5816353551" lon="18.1014149503">
        <ele>53.8</ele>
        <time>2012-09-16T14:50:40Z</time>
      </trkpt>
      <trkpt lat="59.5815980556" lon="18.1013224141">
        <ele>54.2</ele>
        <time>2012-09-16T14:50:41Z</time>
      </trkpt>
      <trkpt lat="59.5815623487" lon="18.1012364997">
        <ele>54.6</ele>
        <time>2012-09-16T14:50:42Z</time>
      </trkpt>
      <trkpt lat="59.5814857382" lon="18.1010725497">
        <ele>54.6</ele>
        <time>2012-09-16T14:50:44Z</time>
      </trkpt>
      <trkpt lat="59.5812423278" lon="18.1006594897">
        <ele>54.6</ele>
        <time>2012-09-16T14:50:49Z</time>
      </trkpt>
      <trkpt lat="59.5809215525" lon="18.1003092101">
        <ele>54.6</ele>
        <time>2012-09-16T14:50:54Z</time>
      </trkpt>
      <trkpt lat="59.5804478913" lon="18.0998744409">
        <ele>53.6</ele>
        <time>2012-09-16T14:51:01Z</time>
      </trkpt>
      <trkpt lat="59.5803806685" lon="18.0998059608">
        <ele>53.2</ele>
        <time>2012-09-16T14:51:02Z</time>
      </trkpt>
      <trkpt lat="59.5803085003" lon="18.0997385703">
        <ele>52.6</ele>
        <time>2012-09-16T14:51:03Z</time>
      </trkpt>
      <trkpt lat="59.5802353263" lon="18.0996684138">
        <ele>52.2</ele>
        <time>2012-09-16T14:51:04Z</time>
      </trkpt>
      <trkpt lat="59.5798669418" lon="18.0993110934">
        <ele>51.6</ele>
        <time>2012-09-16T14:51:09Z</time>
      </trkpt>
      <trkpt lat="59.5797912533" lon="18.0992345667">
        <ele>51.2</ele>
        <time>2012-09-16T14:51:10Z</time>
      </trkpt>
      <trkpt lat="59.5797166543" lon="18.0991509991">
        <ele>50.6</ele>
        <time>2012-09-16T14:51:11Z</time>
      </trkpt>
      <trkpt lat="59.5796392894" lon="18.0990653361">
        <ele>50.2</ele>
        <time>2012-09-16T14:51:12Z</time>
      </trkpt>
      <trkpt lat="59.5795638523" lon="18.0989966883">
        <ele>49.6</ele>
        <time>2012-09-16T14:51:13Z</time>
      </trkpt>
      <trkpt lat="59.5794087872" lon="18.0988765757">
        <ele>49.6</ele>
        <time>2012-09-16T14:51:15Z</time>
      </trkpt>
      <trkpt lat="59.5788931327" lon="18.0983442412">
        <ele>49.6</ele>
        <time>2012-09-16T14:51:22Z</time>
      </trkpt>
      <trkpt lat="59.5786967448" lon="18.0980764395">
        <ele>49.6</ele>
        <time>2012-09-16T14:51:25Z</time>
      </trkpt>
      <trkpt lat="59.578620218" lon="18.0980579994">
        <ele>49.6</ele>
        <time>2012-09-16T14:51:26Z</time>
      </trkpt>
      <trkpt lat="59.5783083275" lon="18.0980268187">
        <ele>49.2</ele>
        <time>2012-09-16T14:51:30Z</time>
      </trkpt>
      <trkpt lat="59.5782331419" lon="18.0979966438">
        <ele>48.6</ele>
        <time>2012-09-16T14:51:31Z</time>
      </trkpt>
      <trkpt lat="59.5781587944" lon="18.0979678101">
        <ele>48.2</ele>
        <time>2012-09-16T14:51:32Z</time>
      </trkpt>
      <trkpt lat="59.5780846984" lon="18.097940988">
        <ele>47.8</ele>
        <time>2012-09-16T14:51:33Z</time>
      </trkpt>
      <trkpt lat="59.578011273" lon="18.0979140821">
        <ele>47.2</ele>
        <time>2012-09-16T14:51:34Z</time>
      </trkpt>
      <trkpt lat="59.5777329939" lon="18.0978037763">
        <ele>47.2</ele>
        <time>2012-09-16T14:51:38Z</time>
      </trkpt>
      <trkpt lat="59.5776717222" lon="18.0977833245">
        <ele>47.8</ele>
        <time>2012-09-16T14:51:39Z</time>
      </trkpt>
      <trkpt lat="59.5776115402" lon="18.0977592684">
        <ele>48.2</ele>
        <time>2012-09-16T14:51:40Z</time>
      </trkpt>
      <trkpt lat="59.5775531183" lon="18.0977332007">
        <ele>48.6</ele>
        <time>2012-09-16T14:51:41Z</time>
      </trkpt>
      <trkpt lat="59.5774939421" lon="18.0977054566">
        <ele>49</ele>
        <time>2012-09-16T14:51:42Z</time>
      </trkpt>
      <trkpt lat="59.577434263" lon="18.0976798918">
        <ele>49.4</ele>
        <time>2012-09-16T14:51:43Z</time>
      </trkpt>
      <trkpt lat="59.5771449198" lon="18.0975488828">
        <ele>49.8</ele>
        <time>2012-09-16T14:51:48Z</time>
      </trkpt>
      <trkpt lat="59.5770872523" lon="18.097529772">
        <ele>50.2</ele>
        <time>2012-09-16T14:51:49Z</time>
      </trkpt>
      <trkpt lat="59.5770215382" lon="18.0975158581">
        <ele>51.2</ele>
        <time>2012-09-16T14:51:50Z</time>
      </trkpt>
      <trkpt lat="59.5769555727" lon="18.0975025308">
        <ele>51.6</ele>
        <time>2012-09-16T14:51:51Z</time>
      </trkpt>
      <trkpt lat="59.5768241445" lon="18.0974709311">
        <ele>51.6</ele>
        <time>2012-09-16T14:51:53Z</time>
      </trkpt>
      <trkpt lat="59.5767571731" lon="18.0974545026">
        <ele>51.6</ele>
        <time>2012-09-16T14:51:54Z</time>
      </trkpt>
      <trkpt lat="59.5764119226" lon="18.0973386647">
        <ele>52</ele>
        <time>2012-09-16T14:51:59Z</time>
      </trkpt>
      <trkpt lat="59.576348304" lon="18.0973055562">
        <ele>52.6</ele>
        <time>2012-09-16T14:52:00Z</time>
      </trkpt>
      <trkpt lat="59.5762853559" lon="18.0972736212">
        <ele>53</ele>
        <time>2012-09-16T14:52:01Z</time>
      </trkpt>
      <trkpt lat="59.5762225755" lon="18.0972396745">
        <ele>53.4</ele>
        <time>2012-09-16T14:52:02Z</time>
      </trkpt>
      <trkpt lat="59.5761650757" lon="18.0972001957">
        <ele>53.8</ele>
        <time>2012-09-16T14:52:03Z</time>
      </trkpt>
      <trkpt lat="59.5759717052" lon="18.0970742158">
        <ele>53.8</ele>
        <time>2012-09-16T14:52:06Z</time>
      </trkpt>
      <trkpt lat="59.5759056559" lon="18.0970307975">
        <ele>54.2</ele>
        <time>2012-09-16T14:52:07Z</time>
      </trkpt>
      <trkpt lat="59.5758403609" lon="18.0969862896">
        <ele>54.8</ele>
        <time>2012-09-16T14:52:08Z</time>
      </trkpt>
      <trkpt lat="59.5757844536" lon="18.0969466432">
        <ele>55.2</ele>
        <time>2012-09-16T14:52:09Z</time>
      </trkpt>
      <trkpt lat="59.5757198291" lon="18.0969067454">
        <ele>55.6</ele>
        <time>2012-09-16T14:52:10Z</time>
      </trkpt>
      <trkpt lat="59.5756540312" lon="18.0968625728">
        <ele>56.2</ele>
        <time>2012-09-16T14:52:11Z</time>
      </trkpt>
      <trkpt lat="59.5755837909" lon="18.0968293805">
        <ele>56.8</ele>
        <time>2012-09-16T14:52:12Z</time>
      </trkpt>
      <trkpt lat="59.5755086891" lon="18.096788393">
        <ele>57.2</ele>
        <time>2012-09-16T14:52:13Z</time>
      </trkpt>
      <trkpt lat="59.575435096" lon="18.0967491657">
        <ele>57.8</ele>
        <time>2012-09-16T14:52:14Z</time>
      </trkpt>
      <trkpt lat="59.5753612515" lon="18.0967087649">
        <ele>58.2</ele>
        <time>2012-09-16T14:52:15Z</time>
      </trkpt>
      <trkpt lat="59.5752864849" lon="18.0966805179">
        <ele>58.2</ele>
        <time>2012-09-16T14:52:16Z</time>
      </trkpt>
      <trkpt lat="59.5752114669" lon="18.0966565457">
        <ele>58.6</ele>
        <time>2012-09-16T14:52:17Z</time>
      </trkpt>
      <trkpt lat="59.5751417295" lon="18.0966464874">
        <ele>59</ele>
        <time>2012-09-16T14:52:18Z</time>
      </trkpt>
      <trkpt lat="59.5750750934" lon="18.0966459007">
        <ele>59.4</ele>
        <time>2012-09-16T14:52:19Z</time>
      </trkpt>
      <trkpt lat="59.5750086249" lon="18.0966558751">
        <ele>59.8</ele>
        <time>2012-09-16T14:52:21Z</time>
      </trkpt>
      <trkpt lat="59.5749455092" lon="18.0966717169">
        <ele>60.2</ele>
        <time>2012-09-16T14:52:22Z</time>
      </trkpt>
      <trkpt lat="59.5744856782" lon="18.0968105212">
        <ele>60.2</ele>
        <time>2012-09-16T14:52:29Z</time>
      </trkpt>
      <trkpt lat="59.5744148511" lon="18.0968372594">
        <ele>60.2</ele>
        <time>2012-09-16T14:52:30Z</time>
      </trkpt>
      <trkpt lat="59.5743439403" lon="18.0968674343">
        <ele>59.8</ele>
        <time>2012-09-16T14:52:31Z</time>
      </trkpt>
      <trkpt lat="59.5742715206" lon="18.0968947593">
        <ele>59.4</ele>
        <time>2012-09-16T14:52:32Z</time>
      </trkpt>
      <trkpt lat="59.5741974247" lon="18.0969240959">
        <ele>59</ele>
        <time>2012-09-16T14:52:33Z</time>
      </trkpt>
      <trkpt lat="59.5741197244" lon="18.0969515886">
        <ele>58.6</ele>
        <time>2012-09-16T14:52:34Z</time>
      </trkpt>
      <trkpt lat="59.5740405155" lon="18.0969748064">
        <ele>58.2</ele>
        <time>2012-09-16T14:52:35Z</time>
      </trkpt>
      <trkpt lat="59.5738769846" lon="18.097032893">
        <ele>58.2</ele>
        <time>2012-09-16T14:52:37Z</time>
      </trkpt>
      <trkpt lat="59.5737946744" lon="18.0970596312">
        <ele>57.8</ele>
        <time>2012-09-16T14:52:38Z</time>
      </trkpt>
      <trkpt lat="59.5737134537" lon="18.0970874592">
        <ele>57.4</ele>
        <time>2012-09-16T14:52:39Z</time>
      </trkpt>
      <trkpt lat="59.5736287127" lon="18.0971141974">
        <ele>56.8</ele>
        <time>2012-09-16T14:52:40Z</time>
      </trkpt>
      <trkpt lat="59.5735430497" lon="18.0971409357">
        <ele>56</ele>
        <time>2012-09-16T14:52:41Z</time>
      </trkpt>
      <trkpt lat="59.5732817859" lon="18.0972165404">
        <ele>56</ele>
        <time>2012-09-16T14:52:44Z</time>
      </trkpt>
      <trkpt lat="59.5727414048" lon="18.0973747069">
        <ele>56</ele>
        <time>2012-09-16T14:52:50Z</time>
      </trkpt>
      <trkpt lat="59.5726467732" lon="18.0973975895">
        <ele>56</ele>
        <time>2012-09-16T14:52:51Z</time>
      </trkpt>
      <trkpt lat="59.5721164503" lon="18.0975392436">
        <ele>56</ele>
        <time>2012-09-16T14:52:57Z</time>
      </trkpt>
      <trkpt lat="59.5719509916" lon="18.0975795605">
        <ele>55.6</ele>
        <time>2012-09-16T14:52:59Z</time>
      </trkpt>
      <trkpt lat="59.5718684299" lon="18.0976036166">
        <ele>55.2</ele>
        <time>2012-09-16T14:53:00Z</time>
      </trkpt>
      <trkpt lat="59.5717851977" lon="18.0976278402">
        <ele>54.8</ele>
        <time>2012-09-16T14:53:01Z</time>
      </trkpt>
      <trkpt lat="59.5717043961" lon="18.0976512257">
        <ele>54.4</ele>
        <time>2012-09-16T14:53:02Z</time>
      </trkpt>
      <trkpt lat="59.5716227564" lon="18.0976667323">
        <ele>53.8</ele>
        <time>2012-09-16T14:53:03Z</time>
      </trkpt>
      <trkpt lat="59.5711326667" lon="18.0978121582">
        <ele>53.8</ele>
        <time>2012-09-16T14:53:09Z</time>
      </trkpt>
      <trkpt lat="59.5705720853" lon="18.0979765273">
        <ele>53.8</ele>
        <time>2012-09-16T14:53:15Z</time>
      </trkpt>
      <trkpt lat="59.5704808064" lon="18.0980166766">
        <ele>53.8</ele>
        <time>2012-09-16T14:53:16Z</time>
      </trkpt>
      <trkpt lat="59.5699503997" lon="18.0982973026">
        <ele>53.8</ele>
        <time>2012-09-16T14:53:22Z</time>
      </trkpt>
      <trkpt lat="59.5697676743" lon="18.098419846">
        <ele>54.4</ele>
        <time>2012-09-16T14:53:24Z</time>
      </trkpt>
      <trkpt lat="59.5696799996" lon="18.098485141">
        <ele>54.8</ele>
        <time>2012-09-16T14:53:25Z</time>
      </trkpt>
      <trkpt lat="59.5695939175" lon="18.0985506874">
        <ele>55.2</ele>
        <time>2012-09-16T14:53:26Z</time>
      </trkpt>
      <trkpt lat="59.5695067458" lon="18.098618497">
        <ele>55.6</ele>
        <time>2012-09-16T14:53:27Z</time>
      </trkpt>
      <trkpt lat="59.5694158022" lon="18.0986910843">
        <ele>56.2</ele>
        <time>2012-09-16T14:53:28Z</time>
      </trkpt>
      <trkpt lat="59.5693235174" lon="18.0987666052">
        <ele>56.2</ele>
        <time>2012-09-16T14:53:29Z</time>
      </trkpt>
      <trkpt lat="59.5688144847" lon="18.0992489835">
        <ele>56.2</ele>
        <time>2012-09-16T14:53:35Z</time>
      </trkpt>
      <trkpt lat="59.5687318391" lon="18.0993360715">
        <ele>56.2</ele>
        <time>2012-09-16T14:53:36Z</time>
      </trkpt>
      <trkpt lat="59.5682687391" lon="18.0998509716">
        <ele>55.8</ele>
        <time>2012-09-16T14:53:42Z</time>
      </trkpt>
      <trkpt lat="59.5681924639" lon="18.0999385624">
        <ele>55.2</ele>
        <time>2012-09-16T14:53:43Z</time>
      </trkpt>
      <trkpt lat="59.5681145122" lon="18.1000310148">
        <ele>54.8</ele>
        <time>2012-09-16T14:53:44Z</time>
      </trkpt>
      <trkpt lat="59.5680317828" lon="18.100129083">
        <ele>54.4</ele>
        <time>2012-09-16T14:53:45Z</time>
      </trkpt>
      <trkpt lat="59.5679533282" lon="18.100222625">
        <ele>54</ele>
        <time>2012-09-16T14:53:46Z</time>
      </trkpt>
      <trkpt lat="59.5678696769" lon="18.1003135686">
        <ele>53.4</ele>
        <time>2012-09-16T14:53:47Z</time>
      </trkpt>
      <trkpt lat="59.5677877019" lon="18.1004110501">
        <ele>52.8</ele>
        <time>2012-09-16T14:53:48Z</time>
      </trkpt>
      <trkpt lat="59.5677027933" lon="18.1005029996">
        <ele>52.2</ele>
        <time>2012-09-16T14:53:49Z</time>
      </trkpt>
      <trkpt lat="59.5676150348" lon="18.1005883273">
        <ele>51.6</ele>
        <time>2012-09-16T14:53:50Z</time>
      </trkpt>
      <trkpt lat="59.5675264381" lon="18.1006687097">
        <ele>50.8</ele>
        <time>2012-09-16T14:53:51Z</time>
      </trkpt>
      <trkpt lat="59.5673397732" lon="18.1008391976">
        <ele>50.4</ele>
        <time>2012-09-16T14:53:53Z</time>
      </trkpt>
      <trkpt lat="59.567250003" lon="18.1009147185">
        <ele>49.8</ele>
        <time>2012-09-16T14:53:54Z</time>
      </trkpt>
      <trkpt lat="59.5671639209" lon="18.1009968611">
        <ele>48.8</ele>
        <time>2012-09-16T14:53:55Z</time>
      </trkpt>
      <trkpt lat="59.5670880647" lon="18.1011095977">
        <ele>48.4</ele>
        <time>2012-09-16T14:53:56Z</time>
      </trkpt>
      <trkpt lat="59.5670160642" lon="18.101221077">
        <ele>48.4</ele>
        <time>2012-09-16T14:53:57Z</time>
      </trkpt>
      <trkpt lat="59.5669409624" lon="18.1013082487">
        <ele>48.4</ele>
        <time>2012-09-16T14:53:58Z</time>
      </trkpt>
      <trkpt lat="59.5667826283" lon="18.1014404313">
        <ele>48.4</ele>
        <time>2012-09-16T14:54:00Z</time>
      </trkpt>
      <trkpt lat="59.566626222" lon="18.1015400921">
        <ele>47.8</ele>
        <time>2012-09-16T14:54:02Z</time>
      </trkpt>
      <trkpt lat="59.5665461749" lon="18.1015933171">
        <ele>47.2</ele>
        <time>2012-09-16T14:54:03Z</time>
      </trkpt>
      <trkpt lat="59.5664654572" lon="18.1016465422">
        <ele>46.6</ele>
        <time>2012-09-16T14:54:04Z</time>
      </trkpt>
      <trkpt lat="59.5663839851" lon="18.1017006055">
        <ele>46.2</ele>
        <time>2012-09-16T14:54:05Z</time>
      </trkpt>
      <trkpt lat="59.5663014234" lon="18.101749891">
        <ele>45.6</ele>
        <time>2012-09-16T14:54:06Z</time>
      </trkpt>
      <trkpt lat="59.5657494753" lon="18.1020653857">
        <ele>45.6</ele>
        <time>2012-09-16T14:54:13Z</time>
      </trkpt>
      <trkpt lat="59.5656728647" lon="18.1021059541">
        <ele>45.6</ele>
        <time>2012-09-16T14:54:14Z</time>
      </trkpt>
      <trkpt lat="59.5653003731" lon="18.1023174295">
        <ele>45</ele>
        <time>2012-09-16T14:54:19Z</time>
      </trkpt>
      <trkpt lat="59.5652279535" lon="18.1023601772">
        <ele>44.4</ele>
        <time>2012-09-16T14:54:20Z</time>
      </trkpt>
      <trkpt lat="59.5651578808" lon="18.1024026734">
        <ele>43.8</ele>
        <time>2012-09-16T14:54:21Z</time>
      </trkpt>
      <trkpt lat="59.5650847906" lon="18.1024496959">
        <ele>43.2</ele>
        <time>2012-09-16T14:54:22Z</time>
      </trkpt>
      <trkpt lat="59.5650122872" lon="18.1024787811">
        <ele>42.8</ele>
        <time>2012-09-16T14:54:23Z</time>
      </trkpt>
      <trkpt lat="59.5648060924" lon="18.1026059345">
        <ele>42.8</ele>
        <time>2012-09-16T14:54:26Z</time>
      </trkpt>
      <trkpt lat="59.5646751672" lon="18.1026823774">
        <ele>43.2</ele>
        <time>2012-09-16T14:54:28Z</time>
      </trkpt>
      <trkpt lat="59.5646101236" lon="18.1027112111">
        <ele>43.6</ele>
        <time>2012-09-16T14:54:29Z</time>
      </trkpt>
      <trkpt lat="59.5645430684" lon="18.1027449064">
        <ele>44</ele>
        <time>2012-09-16T14:54:30Z</time>
      </trkpt>
      <trkpt lat="59.5644723252" lon="18.1027846366">
        <ele>43.6</ele>
        <time>2012-09-16T14:54:31Z</time>
      </trkpt>
      <trkpt lat="59.5644036774" lon="18.1028245344">
        <ele>43.2</ele>
        <time>2012-09-16T14:54:32Z</time>
      </trkpt>
      <trkpt lat="59.5643396397" lon="18.1028678689">
        <ele>42.8</ele>
        <time>2012-09-16T14:54:33Z</time>
      </trkpt>
      <trkpt lat="59.56427929" lon="18.1029060065">
        <ele>42.4</ele>
        <time>2012-09-16T14:54:34Z</time>
      </trkpt>
      <trkpt lat="59.5642280766" lon="18.1029262907">
        <ele>42</ele>
        <time>2012-09-16T14:54:35Z</time>
      </trkpt>
      <trkpt lat="59.5641750192" lon="18.1029487542">
        <ele>42</ele>
        <time>2012-09-16T14:54:36Z</time>
      </trkpt>
      <trkpt lat="59.563961616" lon="18.1030958565">
        <ele>42</ele>
        <time>2012-09-16T14:54:41Z</time>
      </trkpt>
      <trkpt lat="59.5639679024" lon="18.1032920768">
        <ele>42</ele>
        <time>2012-09-16T14:54:44Z</time>
      </trkpt>
      <trkpt lat="59.5639922938" lon="18.103333651">
        <ele>42</ele>
        <time>2012-09-16T14:54:45Z</time>
      </trkpt>
    </trkseg>
  </trk>
</gpx>